     2              OBSERVATION DATA    GPS                 RINEX VERSION / TYPE
ASRINEXO-V2.6.2-LH IGPP 29-APR-1996                         PGM / RUN BY / DATE
                                                            COMMENT
Original Marker Name: SBIS - S BARBARA I 2                  COMMENT
Campaign Name: Southern Islands 96                          COMMENT
4-Character Station Name: SBIS                              COMMENT
6-Character Antenna Code: DMRCHT                            COMMENT
Vertical Measurement Point: BCR                             COMMENT
Vertical Offset to Rinex Ref. Point: 0.0349                 COMMENT
Radial Measurement Point: ECF                               COMMENT
Radial Offset to Rinex Ref. Point: 0.1896                   COMMENT
Antenna Height from Field Measurement: 1.2080 m             COMMENT
Additional Antenna Identification Info.:                    COMMENT
Turborogue and Ashtech Choke Ring                           COMMENT
Original XYZ: -2585432.1380 -4656284.7377 3497864.2474      COMMENT
New XYZ position is based on association with SCEC monument COMMENT
E1C7K0Y0+0011. Position of that monument is believed to be  COMMENT
valid to within 1 m horizontally; vertical accuracy         COMMENT
should be no worse than 3-times this value.                 COMMENT
                                                            COMMENT
Revised Rinex header created by UCSD GPS archive for        COMMENT
GSAC on 05-Apr-1999 (1999:095) 19:45:59 GMT                 COMMENT
For assistance contact dagnew@ucsd.edu or hjohnson@ucsd.edu COMMENT
                                                            COMMENT
SANTA BARBARA ISL. 2 1940                                   MARKER NAME
SJD SCRIPPS INSTITUTION OF OCEANOGRAPHY                     OBSERVER / AGENCY
380 ASHTECH Z12-XII3 1E82                                   REC # / TYPE / VERS
653 DORNE-MARGOL. TYPE T                                    ANT # / TYPE
 -2585408.0000 -4656284.0000  3497837.0000                  APPROX POSITION XYZ
        1.1581        0.0000        0.0000                  ANTENNA: DELTA H/E/N
     1     1     0                                          WAVELENGTH FACT L1/2
     6    C1    L1    L2    P1    P2    S1                  # / TYPES OF OBSERV
    30                                                      INTERVAL
  1996     4    20     0     0   30.000000                  TIME OF FIRST OBS
  1996     4    20    23    59   30.000000                  TIME OF LAST OBS
     0                                                      # OF SATELLITES
                                                            END OF HEADER
 96  4 20  0  0 30.0000000  0  7 05 04 24 20 06 09 16
  20313162.497   -38262879.30347 -29776743.83748  20313162.1114   20313166.8054
       220.000
  24192690.389   -20781827.80446 -13263336.36347  24192690.6684   24192695.9094
       150.000
  21536666.717   -29690976.05946 -23121704.31948  21536666.6564   21536671.8584
       207.000
  21026310.916   -29468987.96646 -22676582.44848  21026310.8384   21026315.9254
       210.000
  22866320.179   -20157808.87046 -15688125.87548  22866320.2164   22866325.2904
       180.000
  24312706.184   -19461283.29946 -15135764.62547  24312706.1444   24312713.0924
       153.000
  22006607.291   -23705646.42046 -17802222.38048  22006606.9434   22006613.0414
       192.000
 96  4 20  0  1  0.0000000  0  7 05 04 24 20 06 09 16
  20311211.056   -38273134.14847 -29784734.62848  20311210.6814   20311215.3694
       220.000
  24207514.543   -20703926.50146 -13202634.09147  24207514.8164   24207520.1314
       151.000
  21544989.746   -29647238.37946 -23087623.01448  21544989.6844   21544994.8964
       207.000
  21012541.798   -29541345.19846 -22732964.69448  21012541.7004   21012546.7824
       210.000
  22850819.426   -20239265.73946 -15751598.74448  22850819.4474   22850824.5104
       180.000
  24326589.911   -19388324.44846 -15078913.68447  24326589.8124   24326596.7624
       153.000
  21990294.806   -23791368.89446 -17869019.07348  21990294.4464   21990300.5394
       192.000
 96  4 20  0  1 30.0000000  0  7 05 04 24 20 06 09 16
  20309361.573   -38282853.23847 -29792307.95148  20309361.2024   20309365.8904
       220.000
  24222334.741   -20626046.04146 -13141948.05547  24222334.9764   24222340.2724
       151.000
  21553355.793   -29603274.40246 -23053365.37548  21553355.7324   21553360.9544
       206.000
  20998857.736   -29613255.42046 -22788998.62848  20998857.6534   20998862.7384
       210.000
  22835324.576   -20320691.61946 -15815047.46048  22835324.6044   22835329.6494
       180.000
  24340463.968   -19315416.20746 -15022102.18447  24340463.9174   24340470.9554
       154.000
  21974053.473   -23876717.74246 -17935524.62948  21974053.1004   21974059.1824
       192.000
 96  4 20  0  2  0.0000000  0  7 05 04 24 20 06 09 16
  20307611.694   -38292048.84547 -29799473.36548  20307611.3234   20307616.0164
       220.000
  24237153.516   -20548173.21846 -13081267.97847  24237153.8274   24237158.9924
       152.000
  21561760.765   -29559105.66146 -23018948.17748  21561760.7244   21561765.9544
       206.000
  20985256.465   -29684730.58846 -22844693.55248  20985256.3694   20985261.4494
       210.000
  22819837.488   -20402076.73446 -15878464.40848  22819837.5154   22819842.5704
       180.000
  24354324.146   -19242581.12246 -14965347.68947  24354324.1124   24354331.1104
       153.000
  21957885.168   -23961682.68146 -18001731.03848  21957884.7934   21957890.8594
       193.000
 96  4 20  0  2 30.0000000  0  7 05 04 24 20 06 09 16
  20305962.426   -38300715.89947 -29806226.92048  20305962.0354   20305966.7284
       220.000
  24251975.954   -20470281.38346 -13020573.07547  24251976.2464   24251981.3834
       153.000
  21570208.339   -29514713.22446 -22984356.67448  21570208.2964   21570213.5454
       206.000
  20971741.563   -29755751.74446 -22900034.70748  20971741.4654   20971746.5354
       211.000
  22804364.765   -20483386.35246 -15941822.53248  22804364.7974   22804369.8324
       181.000
  24368173.474   -19169802.78246 -14908637.40747  24368173.4344   24368180.4724
       153.000
  21941796.974   -24046226.57846 -18067609.36448  21941796.5904   21941802.6334
       193.000
 96  4 20  0  3  0.0000000  0  7 05 04 24 20 06 09 16
  20304414.123   -38308852.19047 -29812566.88948  20304413.7374   20304418.4254
       220.000
  24266808.375   -20392336.54346 -12959836.87547  24266808.6784   24266813.7954
       154.000
  21578702.330   -29470077.09746 -22949575.28348  21578702.2854   21578707.5614
       206.000
  20958317.766   -29826294.17246 -22955002.82348  20958317.6794   20958322.7614
       211.000
  22788909.231   -20564605.72346 -16005110.33348  22788909.2474   22788914.2834
       181.000
  24382015.855   -19097061.12646 -14851955.71447  24382015.8614   24382022.8544
       152.000
  21925792.770   -24130329.09246 -18133143.75848  21925792.3804   21925798.4174
       194.000
 96  4 20  0  3 30.0000000  0  7 05 04 24 20 06 09 16
  20302965.240   -38316466.25947 -29818499.93948  20302964.8704   20302969.5494
       220.000
  24281650.678   -20314339.59046 -12899060.07847  24281651.0024   24281656.1064
       153.000
  21587240.611   -29425208.00846 -22914612.36348  21587240.5844   21587245.8534
       206.000
  20944985.709   -29896354.67946 -23009595.41648  20944985.6184   20944990.7124
       211.000
  22773465.827   -20645761.24746 -16068348.38648  22773465.8274   22773470.8594
       181.000
  24395847.456   -19024375.98446 -14795318.04747  24395847.4864   24395854.5704
       152.000
  21909871.357   -24213996.75846 -18198339.30848  21909870.9624   21909876.9684
       194.000
 96  4 20  0  4  0.0000000  0  7 05 04 24 20 06 09 16
  20301616.462   -38323554.08247 -29824022.92748  20301616.0944   20301620.7774
       220.000
  24296500.830   -20236301.94446 -12838251.56347  24296501.1624   24296506.3114
       154.000
  21595825.193   -29380096.02446 -22879460.17648  21595825.1514   21595830.4354
       205.000
  20931745.343   -29965933.26046 -23063812.48648  20931745.2444   20931750.3124
       211.000
  22758033.922   -20726856.50646 -16131539.47848  22758033.9314   22758038.9444
       181.000
  24409670.832   -18951734.24346 -14738714.20447  24409670.8464   24409677.9984
       151.000
  21894031.877   -24297233.69446 -18263199.22248  21894031.4874   21894037.4614
       194.000
 96  4 20  0  4 30.0000000  0  7 05 04 24 20 06 09 16
  20300367.632   -38330116.89247 -29829136.81548  20300367.2384   20300371.9284
       220.000
  24311355.189   -20158241.75546 -12777425.48247  24311355.5394   24311360.7064
       153.000
  21604456.400   -29334738.82146 -22844116.90748  21604456.3364   21604461.6264
       205.000
  20918597.436   -30035025.94946 -23117650.93848  20918597.3464   20918602.4154
       211.000
  22742608.765   -20807916.18546 -16194702.84548  22742608.7894   22742613.7474
       181.000
  24423485.462   -18879138.34646 -14682146.07247  24423485.3934   24423492.5924
       150.000
  21878269.326   -24380066.28946 -18327744.06348  21878268.9304   21878274.9154
       195.000
 96  4 20  0  5  0.0000000  0  7 05 04 24 20 06 09 16
  20299216.821   -38336164.35547 -29833849.12648  20299216.4354   20299221.1274
       220.000
  24326210.543   -20080176.30246 -12716595.30347  24326210.8854   24326216.0584
       153.000
  21613131.280   -29289151.97046 -22808594.69248  21613131.2314   21613136.5264
       205.000
  20905537.795   -30103654.88646 -23171128.02248  20905537.7074   20905542.7694
       211.000
  22727185.865   -20888963.89846 -16257856.89348  22727185.9164   22727190.8364
       181.000
  24437290.346   -18806593.58146 -14625617.80847  24437290.3164   24437297.5464
       150.000
  21862578.956   -24462519.36346 -18391993.16548  21862578.5724   21862584.5734
       195.000
 96  4 20  0  5 30.0000000  0  7 05 04 24 20 06 09 16
  20298167.181   -38341680.20247 -29838147.19648  20298166.8114   20298171.4914
       220.000
  24341065.526   -20002112.88946 -12655766.72147  24341065.8714   24341071.1754
       153.000
  21621848.966   -29243340.10246 -22772897.14348  21621848.9154   21621854.2004
       205.000
  20892566.783   -30171817.95746 -23224242.09848  20892566.7074   20892571.7614
       211.000
  22711766.945   -20969990.98446 -16320994.86648  22711766.9414   22711771.8484
       181.000
  24451085.859   -18734098.11546 -14569127.94447  24451085.8354   24451093.0544
       150.000
  21846963.865   -24544576.94946 -18455934.09848  21846963.4924   21846969.4904
       195.000
 96  4 20  0  6  0.0000000  0  7 05 04 24 20 06 09 16
  20297220.438   -38346655.38947 -29842023.97548  20297220.0474   20297224.7564
       220.000
  24355918.271   -19924061.08746 -12594947.18147  24355918.6284   24355923.9524
       153.000
  21630610.999   -29197295.17646 -22737017.98848  21630610.9604   21630616.2344
       204.000
  20879684.436   -30239514.96046 -23276993.00248  20879684.3454   20879689.4164
       211.000
  22696352.598   -21050993.72246 -16384113.87548  22696352.5824   22696357.5154
       182.000
  24464873.307   -18661644.89546 -14512671.00447  24464873.3604   24464880.4714
       149.000
  21831426.911   -24626224.20946 -18519555.30548  21831426.5384   21831432.5354
       196.000
 96  4 20  0  6 30.0000000  0  7 05 04 24 20 06 09 16
  20296379.238   -38351075.99247 -29845468.60848  20296378.8594   20296383.5524
       220.000
  24370769.381   -19846018.33946 -12534134.69847  24370769.7074   24370775.0254
       152.000
  21639418.511   -29151011.24746 -22700952.59648  21639418.4724   21639423.7454
       204.000
  20866891.276   -30306743.41746 -23329378.81048  20866891.1924   20866896.2724
       211.000
  22680946.519   -21131953.16846 -16447199.13748  22680946.5284   22680951.4424
       182.000
  24478650.943   -18589243.12046 -14456254.15447  24478650.9924   24478658.0694
       150.000
  21815973.916   -24707430.05946 -18582832.55448  21815973.5464   21815979.5204
       196.000
 96  4 20  0  7  0.0000000  0  7 05 04 24 20 06 09 16
  20295639.735   -38354962.15647 -29848496.79148  20295639.3614   20295644.0474
       220.000
  24385612.076   -19768019.79546 -12473356.65847  24385612.4224   24385617.6164
       150.000
  21648264.932   -29104523.03846 -22664728.02948  21648264.9084   21648270.1844
       204.000
  20854181.113   -30373535.74546 -23381424.77148  20854181.0314   20854186.0994
       212.000
  22665546.452   -21212881.06046 -16510259.82548  22665546.4394   22665551.3404
       182.000
  24492411.136   -18516933.03746 -14399908.73847  24492411.1474   24492418.3294
       149.000
  21800604.018   -24788199.08746 -18645769.41548  21800603.6474   21800609.6074
       196.000
 96  4 20  0  7 30.0000000  0  7 05 04 24 20 06 09 16
  20295004.956   -38358297.99847 -29851096.15448  20295004.5914   20295009.2514
       220.000
  24400445.199   -19690071.23146 -12412617.56847  24400445.6034   24400450.7664
       149.000
  21657151.926   -29057821.58046 -22628337.29048  21657151.8864   21657157.1604
       203.000
  20841557.318   -30439874.30646 -23433117.15248  20841557.2304   20841562.2744
       212.000
  22650152.270   -21293777.98346 -16573296.36248  22650152.2664   22650157.1464
       182.000
  24506152.580   -18444721.41646 -14343640.05747  24506152.6244   24506159.8104
       149.000
  21785319.992   -24868516.95246 -18708354.72348  21785319.6274   21785325.6094
       196.000
 96  4 20  0  8  0.0000000  0  7 05 04 24 20 06 09 16
  20294477.778   -38361068.25647 -29853254.80448  20294477.3964   20294482.0734
       219.000
  24415272.592   -19612153.07246 -12351902.16947  24415272.8994   24415278.0254
       148.000
  21666085.340   -29010876.27546 -22591756.54348  21666085.3214   21666090.5904
       203.000
  20829024.126   -30505736.76446 -23484438.53848  20829024.0474   20829029.0794
       212.000
  22634768.666   -21374619.03446 -16636289.37048  22634768.6664   22634773.5834
       183.000
  24519879.747   -18372585.11946 -14287430.07747  24519879.7804   24519886.9884
       149.000
  21770125.740   -24948363.22946 -18770572.56048  21770125.3664   21770131.3674
       197.000
 96  4 20  0  8 30.0000000  0  7 05 04 24 20 06 09 16
  20294054.277   -38363293.77247 -29854988.97948  20294053.8894   20294058.5664
       219.000
  24430093.987   -19534266.75546 -12291211.58247  24430094.2584   24430099.3614
       148.000
  21675061.414   -28963706.71246 -22555001.04748  21675061.3974   21675066.6524
       203.000
  20816579.560   -30571133.48446 -23535397.01248  20816579.4724   20816584.4884
       212.000
  22619395.483   -21455405.64246 -16699239.95148  22619395.4984   22619400.4054
       183.000
  24533589.834   -18300538.85646 -14231290.24747  24533589.7894   24533597.0714
       148.000
  21755018.514   -25027752.01946 -18832433.91848  21755018.1454   21755024.1244
       197.000
 96  4 20  0  9  0.0000000  0  7 05 04 24 20 06 09 16
  20293736.402   -38364964.21447 -29856290.62648  20293736.0294   20293740.7004
       219.000
  24444911.769   -19456398.82446 -12230535.31047  24444912.0604   24444917.0214
       146.000
  21684080.831   -28916309.55346 -22518068.20548  21684080.8134   21684086.0284
       203.000
  20804226.758   -30636047.71846 -23585979.52748  20804226.6644   20804231.6904
       212.000
  22604032.556   -21536138.40946 -16762148.58248  22604032.5544   22604037.4744
       184.000
  24547285.876   -18228566.38346 -14175207.90747  24547285.7484   24547293.1914
       147.000
  21739996.852   -25106691.11746 -18893944.86248  21739996.4944   21740002.4294
       197.000
 96  4 20  0  9 30.0000000  0  7 05 04 24 20 06 09 16
  20293517.574   -38366114.09447 -29857186.64448  20293517.2004   20293521.8734
       219.000
  24459724.151   -19378559.55846 -12169881.38247  24459724.3264   24459729.2814
       144.000
  21693139.030   -28868708.41046 -22480976.41648  21693139.0024   21693144.2134
       203.000
  20791964.347   -30700487.04746 -23636191.98248  20791964.2734   20791969.3104
       212.000
  22588675.299   -21616841.32346 -16825033.94948  22588675.3064   22588680.2174
       184.000
  24560966.470   -18156674.62846 -14119188.48247  24560966.3764   24560973.6804
       147.000
  21725056.505   -25185203.03446 -18955122.94648  21725056.1474   21725062.0774
       198.000
 96  4 20  0 10  0.0000000  0  7 05 04 24 20 06 09 16
  20293399.684   -38366733.73447 -29857669.49548  20293399.3124   20293403.9834
       219.000
  24474539.437   -19300705.07646 -12109215.59547  24474539.6394   24474544.6794
       144.000
  21702238.547   -28820890.21446 -22443715.49248  21702238.5134   21702243.7264
       202.000
  20779796.145   -30764431.01246 -23686018.44248  20779796.0574   20779801.1294
       212.000
  22573330.159   -21697480.46646 -16887869.63348  22573330.1694   22573335.0734
       184.000
  24574635.122   -18084846.03946 -14063218.27247  24574635.0144   24574642.4204
       146.000
  21710201.992   -25263264.01446 -19015949.65248  21710201.6204   21710207.5214
       198.000
 96  4 20  0 10 30.0000000  0  7 05 04 24 20 06 09 16
  20293380.978   -38366832.04547 -29857746.10948  20293380.5854   20293385.2714
       219.000
  24489355.956   -19222843.97146 -12048544.64847  24489356.1714   24489361.1274
       144.000
  21711376.264   -28772871.18346 -22406298.07648  21711376.2174   21711381.4524
       202.000
  20767719.865   -30827892.30846 -23735468.79348  20767719.7874   20767724.8794
       212.000
  22557994.487   -21778069.96246 -16950666.62648  22557994.5264   22557999.3764
       184.000
  24588287.891   -18013100.63646 -14007312.88447  24588287.7134   24588295.1664
       146.000
  21695429.584   -25340893.51946 -19076440.14248  21695429.2074   21695435.0864
       199.000
 96  4 20  0 11  0.0000000  0  7 05 04 24 20 06 09 16
  20293463.004   -38366400.85147 -29857410.11448  20293462.6284   20293467.3314
       219.000
  24504172.307   -19144983.94246 -11987874.54647  24504172.4744   24504177.5244
       143.000
  21720554.161   -28724641.08546 -22368716.19248  21720554.1134   21720559.3554
       202.000
  20755736.499   -30890865.23246 -23784538.60248  20755736.4234   20755741.5144
       212.000
  22542668.205   -21858610.00846 -17013425.08148  22542668.2164   22542673.0814
       184.000
  24601926.840   -17941427.68746 -13951463.95347  24601926.6614   24601934.1834
       145.000
  21680738.985   -25418093.02446 -19136595.57148  21680738.5874   21680744.4884
       199.000
 96  4 20  0 11 30.0000000  0  7 05 04 24 20 06 09 16
  20293641.652   -38365462.07847 -29856678.61548  20293641.2744   20293645.9974
       219.000
  24518985.397   -19067140.73146 -11927217.53447  24518985.6994   24518990.6694
       143.000
  21729768.075   -28676221.59346 -22330986.72348  21729768.0254   21729773.2774
       202.000
  20743842.263   -30953369.88046 -23833243.51448  20743842.1874   20743847.2954
       213.000
  22527348.322   -21939116.35146 -17076157.27548  22527348.3514   22527353.1884
       185.000
  24615547.520   -17869850.88746 -13895689.94047  24615547.3814   24615554.9834
       145.000
  21666127.710   -25494875.59246 -19196426.11548  21666127.3024   21666133.2154
       199.000
 96  4 20  0 12  0.0000000  0  7 05 04 24 20 06 09 16
  20293922.258   -38363987.61447 -29855529.68848  20293921.8804   20293926.6194
       219.000
  24533795.426   -18989313.25146 -11866572.78947  24533795.6664   24533800.8584
       143.000
  21739021.422   -28627595.05946 -22293095.92448  21739021.3694   21739026.6324
       201.000
  20732038.887   -31015396.95746 -23881576.29548  20732038.7984   20732043.8944
       213.000
  22512037.893   -22019573.26446 -17138850.95748  22512037.9114   22512042.7534
       185.000
  24629149.811   -17798370.69946 -13839991.22447  24629149.7544   24629157.3284
       144.000
  21651596.482   -25571237.25146 -19255928.67448  21651596.0924   21651601.9934
       199.000
 96  4 20  0 12 30.0000000  0  7 05 04 24 20 06 09 16
  20294308.813   -38361956.27447 -29853946.83948  20294308.4334   20294313.1684
       219.000
  24548599.650   -18911516.81546 -11805952.22447  24548599.9084   24548605.1114
       143.000
  21748315.544   -28578754.09546 -22255038.04148  21748315.4954   21748320.7574
       201.000
  20720329.247   -31076931.46246 -23929525.26048  20720329.1854   20720334.2654
       213.000
  22496738.365   -22099972.82546 -17201499.94848  22496738.3624   22496743.1944
       185.000
  24642737.049   -17726969.82246 -13784354.28747  24642736.9784   24642744.6824
       143.000
  21637147.247   -25647168.34346 -19315095.72548  21637146.8754   21637152.7484
       200.000
 96  4 20  0 12 59.9990000  0  7 05 04 24 20 06 09 16
  20294798.117   -38359384.91047 -29851943.19048  20294797.7444   20294802.4734
       219.000
  24563394.718   -18833768.24446 -11745368.95647  24563395.0264   24563400.2794
       143.000
  21757646.346   -28529720.47546 -22216830.03048  21757646.3154   21757651.5574
       201.000
  20708714.287   -31137968.50546 -23977086.58548  20708714.1864   20708719.2804
       213.000
  22481447.985   -22180324.21546 -17264111.39848  22481448.0084   22481452.8404
       185.000
  24656305.983   -17655665.24046 -13728792.39547  24656305.9554   24656313.6004
       143.000
  21622780.160   -25722667.87146 -19373926.49948  21622779.8014   21622785.6314
       200.000
 96  4 20  0 13 29.9990000  0  7 05 04 24 20 06 09 16
  20295388.158   -38356284.28547 -29849527.12548  20295387.7854   20295392.5104
       219.000
  24578179.699   -18756072.61046 -11684826.95447  24578180.0104   24578185.2074
       145.000
  21767010.621   -28480511.11146 -22178485.08048  21767010.5724   21767015.8164
       201.000
  20697193.923   -31198508.31846 -24024260.46048  20697193.8214   20697198.9134
       213.000
  22466163.849   -22260642.61046 -17326697.13748  22466163.8584   22466168.7064
       185.000
  24669851.828   -17584481.99546 -13673325.04847  24669851.5974   24669859.3244
       143.000
  21608494.119   -25797741.40746 -19432425.33048  21608493.7714   21608499.5904
       200.000
 96  4 20  0 13 59.9990000  0  7 05 04 24 20 06 09 16
  20296082.945   -38352633.17147 -29846682.10948  20296082.5654   20296087.2964
       219.000
  24592953.406   -18678436.56746 -11624331.37547  24592953.7224   24592958.8854
       145.000
  21776412.570   -28431103.58946 -22139985.72148  21776412.5044   21776417.7374
       201.000
  20685772.396   -31258528.83746 -24071029.69248  20685772.3084   20685777.3854
       213.000
  22450890.567   -22340904.06546 -17389238.51248  22450890.5824   22450895.4334
       186.000
  24683377.011   -17513407.26746 -13617942.25147  24683376.6934   24683384.5344
       143.000
  21594294.117   -25872362.83146 -19490571.86948  21594293.7624   21594299.5724
       200.000
 96  4 20  0 14 29.9990000  0  7 05 04 24 20 06 09 16
  20296883.709   -38348425.08147 -29843403.08448  20296883.3404   20296888.0714
       219.000
  24607719.337   -18600841.49746 -11563867.71947  24607719.6304   24607724.7494
       147.000
  21785854.906   -28381483.78546 -22101320.94948  21785854.8574   21785860.0894
       200.000
  20674450.900   -31318023.58246 -24117389.22948  20674450.8154   20674455.8884
       213.000
  22435630.688   -22421095.03546 -17451724.96248  22435630.7164   22435635.5764
       186.000
  24696885.953   -17442417.95746 -13562626.03247  24696885.7014   24696893.3934
       141.000
  21580187.407   -25946493.98346 -19548336.37248  21580187.0674   21580192.8594
       200.000
 96  4 20  0 14 59.9990000  0  7 05 04 24 20 06 09 16
  20297783.378   -38343697.18547 -29839719.02748  20297782.9974   20297787.7464
       218.000
  24622474.790   -18523301.08446 -11503446.65947  24622475.0854   24622480.3414
       148.000
  21795333.041   -28331675.83946 -22062509.57348  21795332.9954   21795338.2384
       200.000
  20663224.239   -31377020.15046 -24163360.57848  20663224.1384   20663229.2094
       213.000
  22420380.955   -22501232.71846 -17514169.89048  22420380.9834   22420385.8604
       186.000
  24710371.894   -17371549.52546 -13507403.97747  24710371.6454   24710379.3464
       142.000
  21566170.150   -26020154.97546 -19605734.52048  21566169.7914   21566175.5984
       200.000
 96  4 20  0 15 29.9990000  0  7 05 04 24 20 06 09 16
  20298784.124   -38338438.21547 -29835621.14648  20298783.7644   20298788.5094
       218.000
  24637222.348   -18445802.17246 -11443057.93947  24637222.6164   24637227.9084
       148.000
  21804849.448   -28281666.69946 -22023541.41948  21804849.4074   21804854.6534
       200.000
  20652092.902   -31435515.63546 -24208941.47348  20652092.8044   20652097.8834
       213.000
  22405144.148   -22581302.67646 -17576562.04548  22405144.1814   22405149.0514
       186.000
  24723837.935   -17300785.76446 -13452263.51647  24723837.6134   24723845.5534
       141.000
  21552245.662   -26093328.54746 -19662752.85948  21552245.3214   21552251.1274
       200.000
 96  4 20  0 15 59.9990000  0  7 05 04 24 20 06 09 16
  20299885.397   -38332651.04747 -29831111.68348  20299885.0224   20299889.7904
       218.000
  24651964.604   -18368331.29746 -11382691.07547  24651964.8304   24651970.3324
       148.000
  21814403.073   -28231462.14146 -21984420.99548  21814403.0334   21814408.2734
       199.000
  20641053.563   -31493527.70046 -24254145.67748  20641053.4664   20641058.5354
       214.000
  22389919.531   -22661308.40546 -17638904.15448  22389919.5524   22389924.4214
       187.000
  24737284.988   -17230121.31046 -13397200.43947  24737284.7344   24737292.6564
       141.000
  21538414.650   -26166010.81346 -19719388.36848  21538414.3064   21538420.1244
       200.000
 96  4 20  0 16 29.9990000  0  7 05 04 24 20 06 09 16
  20301081.076   -38326367.70847 -29826215.58048  20301080.6944   20301085.4604
       218.000
  24666702.771   -18290881.61646 -11322340.72447  24666703.0674   24666708.4994
       149.000
  21823986.596   -28181100.37446 -21945178.06848  21823986.5584   21823991.7824
       199.000
  20630104.745   -31551064.19546 -24298979.30448  20630104.6364   20630109.7074
       214.000
  22374703.074   -22741271.41146 -17701212.96548  22374703.1154   22374708.0154
       187.000
  24750709.466   -17159575.57646 -13342229.87347  24750709.2504   24750717.2584
       141.000
  21524674.854   -26238213.86146 -19775650.45848  21524674.4984   21524680.3144
       200.000
 96  4 20  0 16 59.9990000  0  7 05 04 24 20 06 09 16
  20302376.360   -38319561.10347 -29820911.73648  20302375.9884   20302380.7494
       218.000
  24681441.041   -18213431.79046 -11261990.24947  24681441.3044   24681446.7324
       147.000
  21833601.520   -28130573.55846 -21905806.53848  21833601.4724   21833606.7274
       199.000
  20619254.959   -31608080.10046 -24343407.28048  20619254.8574   20619259.9384
       214.000
  22359499.281   -22821167.92046 -17763469.96648  22359499.2914   22359504.2234
       188.000
  24764113.625   -17089136.61146 -13287342.48147  24764113.3714   24764121.4654
       141.000
  21511027.977   -26309928.42246 -19831531.90548  21511027.6264   21511033.4544
       200.000
 96  4 20  0 17 29.9990000  0  6 05 04 24 20 06 16
  20303767.798   -38312249.06347 -29815214.05948  20303767.4144   20303772.1764
       218.000
  24696174.025   -18136009.59446 -11201661.30647  24696174.3244   24696179.7864
       146.000
  21843242.554   -28079909.63646 -21866328.16648  21843242.4984   21843247.7604
       199.000
  20608500.821   -31664593.40646 -24387443.61848  20608500.7324   20608505.8504
       214.000
  22344300.362   -22901038.60946 -17825706.85248  22344300.3634   22344305.3244
       189.000
  21497471.037   -26381170.54546 -19887045.21648  21497470.6914   21497476.5164
       200.000
 96  4 20  0 17 59.9990000  0  6 05 04 24 20 06 16
  20305258.885   -38304413.31947 -29809108.29948  20305258.5224   20305263.2724
       218.000
  24710902.450   -18058611.66846 -11141351.27647  24710902.7184   24710908.1734
       145.000
  21852911.117   -28029101.08846 -21826737.10248  21852911.0744   21852916.3474
       198.000
  20597845.555   -31720587.30546 -24431075.22248  20597845.4784   20597850.5804
       214.000
  22329108.088   -22980874.47946 -17887916.60648  22329108.0804   22329113.0574
       189.000
  21484006.638   -26451926.33746 -19942179.56648  21484006.2924   21484012.0874
       200.000
 96  4 20  0 18 29.9990000  0  6 05 04 24 20 06 16
  20306848.778   -38296058.56547 -29802598.10948  20306848.4214   20306853.1684
       219.000
  24725620.192   -17981269.11146 -11081084.39947  24725620.4394   24725625.9014
       143.000
  21862607.093   -27978148.32646 -21787033.66648  21862607.0424   21862612.3364
       198.000
  20587289.636   -31776059.14646 -24474300.03448  20587289.5564   20587294.6374
       214.000
  22313920.390   -23060686.41846 -17950107.70548  22313920.3544   22313925.3524
       189.000
  21470631.852   -26522211.33346 -19996947.07048  21470631.5214   21470637.2784
       200.000
 96  4 20  0 18 59.9990000  0  6 05 04 24 20 06 16
  20308547.646   -38287130.93647 -29795641.51648  20308547.2954   20308552.0444
       219.000
  24740332.171   -17903957.59446 -11020841.69847  24740332.2054   24740337.7974
       141.000
  21872339.996   -27927001.73446 -21747179.18848  21872339.9444   21872345.2514
       198.000
  20576838.172   -31830981.94446 -24517097.01248  20576838.1014   20576843.1754
       214.000
  22298743.793   -23140439.75546 -18012253.14648  22298743.7714   22298748.7634
       189.000
  21457352.757   -26591993.33446 -20051322.62548  21457352.4344   21457358.1944
       201.000
 96  4 20  0 19 29.9990000  0  5 05 24 20 06 16
  20310353.671   -38277640.39547 -29788246.29748  20310353.3054   20310358.0474
       219.000
  21882110.569   -27875657.09846 -21707170.39548  21882110.5104   21882115.8174
       198.000
  20566486.213   -31885381.90446 -24559486.58948  20566486.1284   20566491.2164
       214.000
  22283575.751   -23220148.30846 -18074363.68748  22283575.7514   22283580.7584
       189.000
  21444168.063   -26661279.22046 -20105311.60048  21444167.7124   21444173.4764
       201.000
 96  4 20  0 19 59.9990000  0  5 05 24 20 06 16
  20312266.743   -38267587.30747 -29780412.73948  20312266.3714   20312271.1054
       219.000
  21891918.861   -27824114.15946 -21667007.07348  21891918.8104   21891924.1274
       198.000
  20556233.745   -31939259.03546 -24601468.76648  20556233.6664   20556238.7524
       214.000
  22268417.417   -23299805.81346 -18136434.45348  22268417.4154   22268422.4314
       189.000
  21431075.058   -26730083.19646 -20158925.06348  21431074.7164   21431080.4644
       201.000
 96  4 20  0 20 29.9990000  0  5 05 24 20 06 16
  20314283.580   -38256988.76747 -29772154.15148  20314283.2244   20314287.9284
       219.000
  21901761.970   -27772388.07446 -21626701.04548  21901761.9264   21901767.2594
       197.000
  20546078.859   -31992623.13546 -24643051.18048  20546078.7664   20546083.8474
       214.000
  22253267.662   -23379418.05146 -18198469.95348  22253267.6834   22253272.6924
       190.000
  21418071.129   -26798419.33746 -20212173.97648  21418070.7784   21418076.5014
       202.000
 96  4 20  0 20 59.9990000  0  5 05 24 20 06 16
  20316403.064   -38245851.02047 -29763475.39248  20316402.6974   20316407.4204
       219.000
  21911636.691   -27720496.15246 -21586265.79448  21911636.6494   21911641.9794
       197.000
  20536020.494   -32045480.02546 -24684238.36548  20536020.4094   20536025.4744
       214.000
  22238127.059   -23458982.41446 -18260468.14548  22238127.0954   22238132.0404
       190.000
  21405157.457   -26866281.16146 -20265053.29548  21405157.1084   21405162.8094
       202.000
 96  4 20  0 21 29.9990000  0  5 05 24 20 06 16
  20318623.440   -38234182.83647 -29754383.30748  20318623.0704   20318627.7924
       219.000
  21921542.994   -27668438.20346 -21545701.17448  21921542.9514   21921548.2834
       197.000
  20526060.341   -32097820.89446 -24725023.45348  20526060.2644   20526065.3184
       214.000
  22222997.577   -23538488.45346 -18322420.88748  22222997.6094   22223002.5184
       190.000
  21392334.531   -26933665.83346 -20317560.80848  21392334.1754   21392339.8764
       203.000
 96  4 20  0 21 59.9990000  0  5 05 24 20 06 16
  20320945.263   -38221981.61747 -29744875.87648  20320944.8834   20320949.6014
       219.000
  21931478.678   -27616226.01646 -21505016.36548  21931478.6334   21931483.9574
       196.000
  20516199.390   -32149640.38246 -24765402.27448  20516199.3114   20516204.3464
       214.000
  22207881.299   -23617925.04346 -18384319.51448  22207881.3244   22207886.2104
       190.000
  21379606.202   -27000553.62646 -20369681.14548  21379605.8574   21379611.5434
       203.000
 96  4 20  0 22 29.9990000  0  6 05 24 20 06 16 17
  20323369.774   -38209240.82147 -29734947.98548  20323369.4044   20323374.1194
       218.000
  21941444.508   -27563855.37946 -21464208.08548  21941444.4344   21941449.7764
       196.000
  20506439.695   -32200928.07446 -24805366.70548  20506439.6174   20506444.6544
       214.000
  22192781.817   -23697273.43246 -18446149.41148  22192781.8474   22192786.6864
       190.000
  21366977.609   -27066917.28446 -20421393.06548  21366977.2494   21366982.9404
       204.000
  24849227.650    -3781172.21746  -2082538.33447  24849227.1994   24849235.5414
       137.000
 96  4 20  0 22 59.9990000  0  6 05 24 20 06 16 17
  20325892.130   -38195985.73047 -29724619.34548  20325891.7684   20325896.4814
       218.000
  21951438.355   -27511337.38546 -21423284.99048  21951438.2954   21951443.6194
       196.000
  20496778.937   -32251695.73546 -24844925.91848  20496778.8554   20496783.9044
       215.000
  22177695.393   -23776553.00246 -18507925.67848  22177695.4214   22177700.2884
       191.000
  21354444.723   -27132777.97546 -20472713.06448  21354444.3564   21354450.0564
       204.000
  24827478.099    -3895466.60946  -2171598.75747  24827477.5754   24827485.8074
       137.000
 96  4 20  0 23 29.9990000  0  6 05 24 20 06 16 17
  20328509.167   -38182233.22247 -29713903.12248  20328508.7964   20328513.5224
       218.000
  21961461.351   -27458666.15746 -21382242.48648  21961461.2974   21961466.6134
       196.000
  20487218.105   -32301938.33046 -24884075.98648  20487218.0144   20487223.0474
       215.000
  22162621.339   -23855767.75346 -18569651.44248  22162621.3364   22162626.2174
       191.000
  21342005.983   -27198143.91846 -20523647.54748  21342005.6074   21342011.3164
       204.000
  24805752.168    -4009636.64646  -2260562.28847  24805751.8154   24805759.6504
       137.000
 96  4 20  0 23 59.9990000  0  6 05 24 20 06 16 17
  20331219.793   -38167988.76847 -29702803.56148  20331219.4104   20331224.1574
       218.000
  21971509.930   -27405860.55146 -21341095.27248  21971509.8604   21971515.1924
       195.000
  20477758.581   -32351648.33046 -24922811.04348  20477758.5034   20477763.5374
       215.000
  22147558.920   -23934921.31346 -18631329.52148  22147558.9044   22147563.7964
       191.000
  21329663.277   -27263005.01646 -20574188.64448  21329662.9124   21329668.6284
       204.000
  24784048.960    -4123687.02146  -2349432.56447  24784048.6004   24784056.5814
       137.000
 96  4 20  0 24 29.9990000  0  6 05 24 20 06 16 17
  20334022.740   -38153259.10347 -29691325.90548  20334022.3594   20334027.1084
       218.000
  21981586.667   -27352907.10446 -21299832.85448  21981586.6044   21981591.9194
       195.000
  20468404.151   -32400806.47046 -24961116.08048  20468404.0594   20468409.0894
       215.000
  22132508.465   -24014011.81746 -18692958.46648  22132508.4334   22132513.3274
       191.000
  21317415.650   -27327366.67746 -20624340.56548  21317415.2714   21317421.0024
       204.000
  24762371.658    -4237601.10146  -2438196.65447  24762371.3974   24762379.3454
       137.000
 96  4 20  0 24 59.9990000  0  6 05 24 20 06 16 17
  20336918.136   -38138043.75247 -29679469.79148  20336917.7654   20336922.5194
       218.000
  21991691.127   -27299807.77246 -21258456.76348  21991691.0594   21991696.3644
       195.000
  20459152.854   -32449422.14246 -24998998.41848  20459152.7534   20459157.7644
       215.000
  22117468.082   -24093049.38046 -18754546.16848  22117468.0664   22117472.9174
       191.000
  21305262.699   -27391230.71446 -20674104.72748  21305262.3244   21305268.0484
       204.000
  24740719.226    -4351384.55446  -2526858.95047  24740718.9564   24740726.7424
       137.000
 96  4 20  0 25 29.9990000  0  6 05 24 20 06 16 17
  20339910.407   -38122319.18247 -29667216.89848  20339910.0234   20339914.7854
       217.000
  22001821.842   -27246570.58246 -21216973.24848  22001821.7864   22001827.0514
       194.000
  20450003.567   -32497501.89446 -25036463.15748  20450003.4774   20450008.4864
       215.000
  22102438.439   -24172030.58246 -18816089.94248  22102438.4304   22102443.2574
       191.000
  21293209.639   -27454569.73446 -20723459.78648  21293209.2584   21293215.0064
       204.000
  24719093.137    -4465029.95046  -2615413.66947  24719092.9094   24719100.6844
       137.000
 96  4 20  0 25 59.9990000  0  6 05 24 20 06 16 17
  20343006.283   -38106050.18847 -29654539.76848  20343005.9104   20343010.6774
       217.000
  22011978.793   -27193195.49246 -21175382.27748  22011978.7344   22011984.0064
       194.000
  20440958.667   -32545033.02046 -25073500.39448  20440958.5894   20440963.6084
       215.000
  22087421.728   -24250943.77946 -18877580.73148  22087421.7164   22087426.5584
       191.000
  21281259.704   -27517366.81046 -20772392.54748  21281259.3514   21281265.0924
       205.000
  24697496.109    -4578522.61346  -2703849.40547  24697495.9194   24697503.4354
       138.000
 96  4 20  0 26 29.9990000  0  6 05 24 20 06 16 17
  20346209.553   -38089216.78847 -29641422.83948  20346209.1824   20346213.9804
       217.000
  22022165.305   -27139665.04946 -21133670.25348  22022165.2524   22022170.5454
       194.000
  20432017.987   -32592016.76646 -25110111.10148  20432017.9084   20432022.9264
       215.000
  22072416.223   -24329798.26146 -18939025.76748  22072416.2244   22072421.0404
       191.000
  21269410.804   -27579633.11146 -20820911.71248  21269410.4444   21269416.1944
       205.000
  24675923.154    -4691888.58846  -2792186.39947  24675922.8154   24675930.5504
       137.000
 96  4 20  0 26 59.9990000  0  6 05 24 20 06 16 17
  20349524.099   -38071798.72647 -29627850.33348  20349523.7284   20349528.5464
       217.000
  22032382.134   -27085975.11146 -21091833.94948  22032382.0894   22032387.4144
       194.000
  20423181.402   -32638453.33746 -25146295.44048  20423181.2964   20423186.3474
       215.000
  22057423.969   -24408582.88146 -19000416.37048  22057423.9634   22057428.7654
       191.000
  21257664.035   -27641362.66146 -20869012.63448  21257663.6964   21257669.4134
       205.000
  24654372.658    -4805136.60246  -2880431.49147  24654372.2734   24654379.9624
       137.000
 96  4 20  0 27 29.9990000  0  6 05 24 20 06 16 17
  20352945.672   -38053818.36247 -29613839.67248  20352945.2894   20352950.1294
       217.000
  22042625.551   -27032145.54946 -21049888.84348  22042625.4884   22042630.8454
       193.000
  20414448.581   -32684344.71646 -25182054.95048  20414448.4814   20414453.5154
       215.000
  22042442.324   -24487311.87746 -19061763.62248  22042442.3154   22042447.1104
       191.000
  21246011.316   -27702598.20146 -20916728.61348  21246010.9634   21246016.6714
       205.000
  24632841.783    -4918281.55246  -2968596.29147  24632841.3094   24632849.0504
       137.000
 96  4 20  0 27 59.9990000  0  6 05 24 20 06 16 17
  20356467.421   -38035311.38647 -29599418.65948  20356467.0314   20356471.8894
       217.000
  22052892.851   -26978190.62446 -21007846.05248  22052892.7904   22052898.1584
       193.000
  20405817.073   -32729703.55346 -25217399.49548  20405816.9574   20405821.9734
       215.000
  22027468.153   -24566001.48346 -19123080.18248  22027468.1514   22027472.9664
       191.000
  21234447.305   -27763367.33346 -20964081.15748  21234446.9584   21234452.6504
       205.000
  24611328.775    -5031332.74446  -3056688.03047  24611328.3824   24611336.0944
       137.000
 96  4 20  0 28 29.9990000  0  6 05 24 20 06 16 17
  20360089.621   -38016276.39346 -29584586.20648  20360089.2434   20360094.1214
       216.000
  22063189.095   -26924083.53246 -20965684.69148  22063189.0224   22063194.4004
       193.000
  20397288.822   -32774519.63746 -25252321.11448  20397288.7114   20397293.7384
       215.000
  22012506.004   -24644627.99546 -19184347.57848  22012505.9994   22012510.8094
       192.000
  21222978.144   -27823638.05746 -21011045.33748  21222977.7984   21222983.4804
       205.000
  24589841.117    -5144250.62146  -3144675.87747  24589840.9184   24589848.3884
       138.000
 96  4 20  0 28 59.9990000  0  6 05 24 20 06 16 17
  20363807.824   -37996737.22046 -29569360.87448  20363807.4404   20363812.3264
       216.000
  22073511.629   -26869838.41846 -20923415.78348  22073511.5364   22073516.9284
       193.000
  20388862.621   -32818799.51046 -25286824.90948  20388862.5244   20388867.5554
       215.000
  21997557.677   -24723181.78846 -19245558.31048  21997557.6584   21997562.4864
       192.000
  21211606.995   -27883393.74246 -21057608.18348  21211606.6604   21211612.3354
       205.000
  24568384.284    -5257006.41746  -3232537.42747  24568384.1314   24568391.5514
       138.000
 96  4 20  0 29 29.9990000  0  6 05 24 20 06 16 17
  20367618.564   -37976711.47246 -29553756.40248  20367618.1814   20367623.0674
       216.000
  22083858.582   -26815464.57646 -20881046.56748  22083858.4934   22083863.9164
       192.000
  20380538.035   -32862545.59046 -25320912.76248  20380537.9374   20380542.9534
       215.000
  21982619.674   -24801681.38046 -19306726.80648  21982619.6694   21982624.5254
       192.000
  21200335.841   -27942623.97746 -21103761.59148  21200335.5034   21200341.1624
       205.000
  24546959.994    -5369591.26746  -3320265.79447  24546959.8334   24546967.2794
       139.000
 96  4 20  0 29 59.9990000  0  6 05 24 20 06 16 17
  20371522.302   -37956197.10846 -29537771.19348  20371521.9194   20371526.8234
       216.000
  22094229.681   -26760963.99546 -20838578.59548  22094229.6134   22094235.0684
       192.000
  20372314.607   -32905760.04746 -25354586.36548  20372314.5104   20372319.5154
       215.000
  21967689.929   -24880137.71146 -19367861.59748  21967689.9454   21967694.7924
       193.000
  21189170.468   -28001298.26946 -21149481.79248  21189170.1334   21189175.7974
       205.000
  24525568.628    -5482003.10146  -3407859.32647  24525568.4334   24525575.8314
       140.000
 96  4 20  0 30 29.9990000  0  6 05 24 20 06 16 17
  20375523.802   -37935169.23046 -29521385.84748  20375523.4294   20375528.3364
       216.000
  22104627.178   -26706324.93046 -20796002.71848  22104627.1154   22104632.5564
       192.000
  20364197.572   -32948415.21846 -25387824.16348  20364197.4694   20364202.4984
       215.000
  21952770.383   -24958540.44346 -19428954.61348  21952770.3834   21952775.2324
       193.000
  21178112.927   -28059405.93146 -21194760.46848  21178112.5884   21178118.2594
       205.000
  24504213.171    -5594226.29146  -3495305.87047  24504212.9374   24504220.3454
       141.000
 96  4 20  0 30 59.9990000  0  6 05 24 20 06 16 17
  20379623.049   -37913627.60846 -29504600.17748  20379622.6814   20379627.5774
       216.000
  22115048.160   -26651562.34346 -20753330.58448  22115048.1004   22115053.5434
       192.000
  20356187.612   -32990507.89246 -25420623.64848  20356187.5154   20356192.5514
       215.000
  21937860.197   -25036893.96146 -19490009.28948  21937860.2254   21937865.0534
       193.000
  21167158.565   -28116971.31046 -21239616.58248  21167158.2414   21167163.9004
       205.000
  24482890.203    -5706279.03046  -3582619.59647  24482889.8884   24482897.3294
       142.000
 96  4 20  0 31 29.9990000  0  6 05 24 20 06 16 17
  20383825.910   -37891541.41246 -29487390.15148  20383825.5514   20383830.4394
       216.000
  22125496.707   -26596655.10846 -20710545.74048  22125496.6274   22125502.0834
       192.000
  20348290.120   -33032009.46246 -25452962.53348  20348290.0324   20348295.0664
       215.000
  21922963.955   -25115174.19246 -19551006.85448  21922963.9684   21922968.8024
       194.000
  21156309.583   -28173983.07746 -21284041.31248  21156309.2524   21156314.9124
       205.000
  24461600.481    -5818156.84346  -3669797.00547  24461600.1274   24461607.6544
       143.000
 96  4 20  0 31 59.9990000  0  6 05 24 20 06 16 17
  20388126.706   -37868940.59746 -29469779.13748  20388126.3444   20388131.2174
       216.000
  22135963.323   -26541652.73646 -20667686.76248  22135963.2524   22135968.6814
       191.000
  20340497.360   -33072960.59146 -25484872.50148  20340497.2774   20340502.2964
       215.000
  21908077.814   -25193401.44046 -19611963.14148  21908077.8244   21908082.6554
       194.000
  21145556.764   -28230489.47946 -21328072.24848  21145556.4264   21145562.0804
       205.000
  24440334.425    -5929910.15946  -3756877.40847  24440333.9994   24440341.7034
       143.000
 96  4 20  0 32 29.9990000  0  6 05 24 20 06 16 17
  20392527.557   -37845814.05646 -29451758.47048  20392527.1974   20392532.0514
       216.000
  22146452.201   -26486533.18346 -20624736.47848  22146452.1504   22146457.5604
       191.000
  20332811.623   -33113349.61246 -25516344.46848  20332811.5374   20332816.5444
       215.000
  21893209.532   -25271534.75546 -19672846.23148  21893209.5564   21893214.3644
       194.000
  21134901.920   -28286481.02746 -21371702.00148  21134901.5524   21134907.2084
       204.000
  24419095.338    -6041522.05446  -3843847.62947  24419094.9824   24419102.6744
       144.000
 96  4 20  0 32 59.9990000  0  6 05 24 20 06 16 17
  20397028.302   -37822162.71246 -29433328.85948  20397027.9214   20397032.7674
       216.000
  22156966.019   -26431282.65046 -20581684.12648  22156965.9424   22156971.3784
       191.000
  20325231.972   -33153180.93546 -25547381.86048  20325231.8654   20325236.8704
       215.000
  21878361.511   -25349561.63046 -19733646.38348  21878361.5154   21878366.3294
       194.000
  21124348.287   -28341940.55646 -21414917.19448  21124347.9284   21124353.5664
       204.000
  24397881.773    -6152999.58846  -3930713.12647  24397881.3094   24397889.1424
       145.000
 96  4 20  0 33 29.9990000  0  6 05 24 20 06 16 17
  20401626.635   -37797998.37346 -29414499.52448  20401626.2684   20401631.0984
       216.000
  22167501.880   -26375916.03046 -20538541.32348  22167501.8384   22167507.2844
       190.000
  20317754.461   -33192475.28946 -25578000.83948  20317754.3914   20317759.3714
       215.000
  21863530.313   -25427500.09346 -19794377.63548  21863530.3134   21863535.1354
       194.000
  21113896.974   -28396862.49846 -21457713.49748  21113896.6244   21113902.2514
       205.000
  24376693.126    -6264346.24946  -4017476.66647  24376692.6274   24376700.4054
       146.000
 96  4 20  0 33 59.9990000  0  6 05 24 20 06 16 17
  20406323.475   -37773316.22046 -29395266.69048  20406323.1164   20406327.9354
       216.000
  22178060.356   -26320430.65546 -20495305.98148  22178060.3284   22178065.7994
       190.000
  20310377.708   -33231240.37246 -25608207.39848  20310377.6284   20310382.6324
       215.000
  21848715.515   -25505352.19346 -19855041.59848  21848715.5194   21848720.3564
       194.000
  21103549.657   -28451237.90946 -21500083.92848  21103549.2974   21103554.9324
       205.000
  24355534.830    -6375533.69246  -4104116.12947  24355534.4054   24355542.1404
       147.000
 96  4 20  0 34 29.9990000  0  6 05 24 20 06 16 17
  20411118.361   -37748119.05246 -29375632.53148  20411117.9974   20411122.7994
       216.000
  22188643.222   -26264817.54546 -20451971.09848  22188643.1724   22188648.6744
       189.000
  20303102.839   -33269470.09546 -25637996.78648  20303102.7644   20303107.7964
       215.000
  21833915.647   -25583125.86546 -19915644.43948  21833915.6554   21833920.4944
       195.000
  21093306.570   -28505065.56346 -21542027.53648  21093306.2084   21093311.8524
       205.000
  24334409.829    -6486546.22846  -4190619.29447  24334409.2794   24334416.9324
       148.000
 96  4 20  0 34 59.9990000  0  6 05 24 20 06 16 17
  20416012.868   -37722398.22546 -29355590.33748  20416012.4894   20416017.3054
       216.000
  22199248.508   -26209086.42946 -20408544.26948  22199248.4604   22199253.9364
       189.000
  20295932.916   -33307148.18546 -25667356.33648  20295932.8384   20295937.8724
       215.000
  21819127.271   -25660839.11546 -19976200.20548  21819127.3024   21819132.1114
       195.000
  21083168.050   -28558343.62046 -21583542.89148  21083167.6874   21083173.3404
       206.000
  24313320.956    -6597368.42346  -4276974.16047  24313320.4494   24313328.1654
       148.000
 96  4 20  0 35 29.9990000  0  6 05 24 20 06 16 17
  20421005.381   -37696162.42746 -29335146.87648  20421005.0224   20421009.8254
       215.000
  22209873.007   -26153254.40446 -20365038.80848  22209872.9454   22209878.4374
       188.000
  20288869.133   -33344268.69246 -25696281.40648  20288869.0584   20288874.0904
       216.000
  21804351.301   -25738487.35846 -20036705.31748  21804351.3424   21804356.1234
       195.000
  21073131.774   -28611084.44846 -21624639.62848  21073131.4254   21073137.0934
       206.000
  24292270.128    -6707990.90446  -4363173.38747  24292269.6424   24292277.3524
       148.000
 96  4 20  0 35 59.9990000  0  6 05 24 20 06 16 17
  20426091.861   -37669432.95846 -29314318.73548  20426091.5014   20426096.3054
       215.000
  22220514.816   -26097331.13846 -20321462.24648  22220514.7884   22220520.2774
       188.000
  20281911.201   -33380832.78246 -25724772.90248  20281911.1154   20281916.1474
       216.000
  21789584.985   -25816084.91846 -20097170.93548  21789585.0244   21789589.8034
       196.000
  21063194.977   -28663302.56046 -21665329.04948  21063194.6044   21063200.2774
       206.000
  24271251.963    -6818441.58246  -4449238.74947  24271251.3724   24271259.1724
       149.000
 96  4 20  0 36 29.9990000  0  6 05 24 20 06 16 17
  20431274.299   -37642199.11046 -29293097.55448  20431273.9334   20431278.7544
       215.000
  22231177.488   -26041298.30846 -20277800.31348  22231177.4564   22231182.9634
       187.000
  20275064.740   -33416811.28246 -25752808.09548  20275064.6554   20275069.6794
       216.000
  21774832.232   -25893611.17246 -20157580.99148  21774832.2574   21774837.0614
       196.000
  21053363.201   -28714968.90046 -21705588.52148  21053362.8304   21053368.5134
       207.000
  24250266.124    -6928722.58646  -4535171.90847  24250265.5714   24250273.2584
       149.000
 96  4 20  0 36 59.9990000  0  6 05 24 20 06 16 17
  20436554.753   -37614450.05746 -29271474.93148  20436554.3884   20436559.2234
       215.000
  22241862.093   -25985150.36546 -20234048.68448  22241862.0794   22241867.5554
       187.000
  20268331.275   -33452195.73246 -25780380.39448  20268331.2064   20268336.2324
       216.000
  21760096.482   -25971047.93746 -20217921.31048  21760096.4994   21760101.2974
       196.000
  21043640.052   -28766064.21846 -21745403.04248  21043639.7014   21043645.3414
       207.000
  24229311.754    -7038838.07346  -4620976.09147  24229311.1574   24229318.8814
       149.000
 96  4 20  0 37 29.9990000  0  6 05 24 20 06 16 17
  20441930.852   -37586198.55346 -29249460.79648  20441930.4764   20441935.3094
       215.000
  22252567.048   -25928895.49546 -20190213.72348  22252567.0384   22252572.5044
       187.000
  20261707.744   -33487002.69146 -25807502.69648  20261707.6624   20261712.7114
       216.000
  21745379.172   -26048387.95846 -20278186.25348  21745379.1674   21745383.9744
       196.000
  21034024.952   -28816591.92746 -21784775.26748  21034024.5984   21034030.2424
       207.000
  24208384.413    -7148811.72046  -4706669.73947  24208383.8154   24208391.4824
       149.000
 96  4 20  0 37 59.9990000  0  6 05 24 20 06 16 17
  20447401.691   -37557448.98746 -29227058.55448  20447401.3194   20447406.1804
       214.000
  22263290.601   -25872543.06646 -20146302.75848  22263290.5754   22263296.0534
       187.000
  20255193.111   -33521237.40546 -25834179.09348  20255193.0224   20255198.0674
       216.000
  21730675.297   -26125657.19146 -20338396.02748  21730675.2874   21730680.0824
       196.000
  21024516.954   -28866556.69446 -21823708.83648  21024516.5904   21024522.2124
       208.000
  24187479.906    -7258665.43746  -4792269.93947  24187479.3464   24187486.8484
       149.000
 96  4 20  0 38 29.9990000  0  6 05 24 20 06 16 17
  20452966.531   -37528205.61946 -29204271.52748  20452966.1664   20452971.0324
       214.000
  22274031.549   -25816098.95946 -20102320.34848  22274031.5194   22274037.0384
       187.000
  20248789.480   -33554888.51446 -25860400.73848  20248789.3854   20248794.4464
       216.000
  21715986.540   -26202846.92846 -20398543.86048  21715986.5354   21715991.3274
       196.000
  21015114.232   -28915968.32546 -21862211.39148  21015113.8804   21015119.4874
       208.000
  24166601.897    -7368379.80946  -4877761.56947  24166601.3604   24166608.8164
       149.000
 96  4 20  0 38 59.9990000  0  6 05 24 20 06 16 17
  20458623.269   -37498479.36246 -29181108.22048  20458622.9004   20458627.7584
       214.000
  22284786.537   -25759580.99946 -20058280.39648  22284786.5234   22284792.0634
       187.000
  20242497.645   -33587952.20646 -25886164.65048  20242497.5704   20242502.6344
       216.000
  21701310.389   -26279970.40246 -20458640.05648  21701310.3764   21701315.1954
       197.000
  21005812.925   -28964846.88946 -21900298.56948  21005812.5594   21005818.1714
       208.000
  24145750.468    -7477954.17646  -4963144.08647  24145749.9354   24145757.2934
       148.000
 96  4 20  0 39 29.9990000  0  6 05 24 20 06 16 17
  20464375.739   -37468249.98346 -29157552.86848  20464375.3784   20464380.2544
       214.000
  22295558.255   -25702975.52446 -20014172.24948  22295558.2164   22295563.7954
       187.000
  20236320.784   -33620411.89546 -25911457.91448  20236320.6874   20236325.7704
       215.000
  21686646.863   -26357027.77146 -20518684.74148  21686646.8574   21686651.6824
       197.000
  20996617.731   -29013167.81046 -21937951.22348  20996617.3744   20996622.9694
       208.000
  24124931.980    -7587355.81046  -5048392.03047  24124931.4374   24124938.8044
       148.000
 96  4 20  0 39 59.9990000  0  6 05 24 20 06 16 17
  20470226.495   -37437504.04346 -29133595.00848  20470226.1374   20470231.0154
       214.000
  22306348.779   -25646270.92746 -19969986.86348  22306348.7364   22306354.3324
       186.000
  20230260.018   -33652261.25146 -25936275.59248  20230259.9324   20230265.0164
       215.000
  21671994.880   -26434024.38146 -20578682.08748  21671994.8904   21671999.7094
       197.000
  20987530.806   -29060919.71046 -21975160.48648  20987530.4554   20987536.0464
       208.000
  24104151.500    -7696557.45846  -5133484.13947  24104151.0034   24104158.3024
       147.000
 96  4 20  0 40 29.9990000  0  6 05 24 20 06 16 17
  20476175.764   -37406240.43446 -29109233.77248  20476175.3994   20476180.2784
       214.000
  22317159.329   -25589461.32346 -19925719.65348  22317159.3024   22317164.8984
       186.000
  20224311.250   -33683522.19846 -25960634.77148  20224311.1814   20224316.2794
       215.000
  21657355.544   -26510954.52746 -20638627.63548  21657355.5454   21657360.3414
       197.000
  20978552.353   -29108101.85946 -22011925.78148  20978552.0014   20978557.5964
       208.000
  24083411.512    -7805546.19646  -5218410.32747  24083411.0524   24083418.2604
       146.000
 96  4 20  0 40 59.9990000  0  6 05 24 20 06 16 17
  20482220.730   -37374473.87146 -29084480.61948  20482220.3744   20482225.2784
       213.000
  22327986.667   -25532563.53446 -19881383.72748  22327986.6264   22327992.2314
       186.000
  20218465.842   -33714240.06146 -25984570.77148  20218465.7674   20218470.8594
       215.000
  21642724.053   -26587843.41146 -20698541.03448  21642724.0344   21642728.8484
       198.000
  20969679.398   -29154729.67146 -22048259.12948  20969679.0534   20969684.6214
       209.000
  24062704.942    -7914359.73846  -5303200.01247  24062704.4464   24062711.7184
       145.000
 96  4 20  0 41 29.9990000  0  6 05 24 20 06 16 17
  20488364.437   -37342188.54746 -29059323.23648  20488364.0914   20488368.9804
       213.000
  22338835.171   -25475554.33046 -19836960.99048  22338835.0964   22338840.7194
       185.000
  20212722.159   -33744423.17146 -26008090.07948  20212722.0844   20212727.2004
       215.000
  21628104.876   -26664667.79546 -20758404.17748  21628104.8754   21628109.6654
       198.000
  20960914.042   -29200791.90346 -22084151.76748  20960913.7014   20960919.2554
       209.000
  24042033.053    -8022990.69646  -5387847.43547  24042032.5484   24042039.7614
       145.000
 96  4 20  0 41 59.9990000  0  6 05 24 20 06 16 17
  20494602.431   -37309407.69746 -29033779.73448  20494602.0824   20494606.9554
       213.000
  22349703.562   -25418440.52846 -19792456.74148  22349703.5124   22349709.1234
       185.000
  20207081.333   -33774065.89446 -26031188.30648  20207081.2394   20207086.3624
       215.000
  21613500.852   -26741412.40946 -20818205.15848  21613500.8454   21613505.6104
       198.000
  20952252.393   -29246309.15946 -22119619.74748  20952252.0484   20952257.5864
       209.000
  24021392.452    -8131457.07646  -5472366.59947  24021391.9674   24021399.2154
       145.000
 96  4 20  0 42 29.9990000  0  6 05 24 20 06 16 17
  20500930.072   -37276155.97746 -29007869.32148  20500929.7124   20500934.5934
       213.000
  22360589.397   -25361235.06946 -19747881.07648  22360589.3764   22360594.9574
       185.000
  20201543.637   -33803166.68346 -26053864.25348  20201543.5624   20201548.6654
       216.000
  21598913.674   -26818068.43646 -20877937.11348  21598913.6834   21598918.4344
       198.000
  20943693.273   -29291287.59946 -22154667.87248  20943692.9234   20943698.4664
       209.000
  24000780.371    -8239773.83946  -5556769.19947  24000779.9664   24000787.2194
       144.000
 96  4 20  0 42 59.9990000  0  6 05 24 20 06 16 17
  20507352.778   -37242404.36646 -28981569.38348  20507352.3954   20507357.2994
       213.000
  22371494.440   -25303928.69846 -19703226.77948  22371494.4074   22371499.9984
       185.000
  20196118.857   -33831674.18546 -26076077.89648  20196118.7584   20196123.8874
       216.000
  21584351.891   -26894591.12646 -20937565.17048  21584351.9144   21584356.6374
       198.000
  20935243.485   -29335691.42046 -22189268.23948  20935243.1134   20935248.6594
       209.000
  23980202.788    -8347909.60946  -5641030.76747  23980202.3314   23980209.5514
       145.000
 96  4 20  0 43 29.9990000  0  6 05 24 20 06 16 17
  20513863.548   -37208190.21446 -28954909.01248  20513863.1584   20513868.0784
       213.000
  22382408.956   -25246572.65046 -19658533.76548  22382408.9404   22382414.5004
       185.000
  20190801.190   -33859618.68346 -26097852.83348  20190801.0994   20190806.2024
       216.000
  21569809.030   -26971014.28846 -20997115.67648  21569809.0324   21569813.7544
       198.000
  20926896.688   -29379554.06746 -22223446.91148  20926896.3314   20926901.8754
       209.000
  23959655.147    -8455887.85046  -5725169.56147  23959654.6664   23959661.8904
       146.000
 96  4 20  0 43 59.9990000  0  6 05 24 20 06 16 17
  20520464.055   -37173504.19046 -28927880.95448  20520463.6894   20520468.6094
       213.000
  22393331.851   -25189172.55146 -19613806.43048  22393331.8294   22393337.3744
       184.000
  20185593.629   -33886984.60046 -26119176.92948  20185593.5544   20185598.6724
       215.000
  21555285.939   -27047333.31946 -21056585.04048  21555285.9564   21555290.6754
       199.000
  20918656.260   -29422857.70546 -22257189.99448  20918655.9064   20918661.4664
       209.000
  23939140.037    -8563695.21146  -5809175.22347  23939139.5494   23939146.8304
       147.000
 96  4 20  0 44 29.9990000  0  6 05 24 20 06 16 17
  20527156.386   -37138335.84446 -28900477.07048  20527156.0264   20527160.9484
       213.000
  22404262.603   -25131731.17446 -19569046.93348  22404262.5724   22404268.1264
       184.000
  20180492.428   -33913791.64446 -26140065.53448  20180492.3464   20180497.4814
       215.000
  21540779.762   -27123563.84346 -21115985.42948  21540779.7794   21540784.5044
       199.000
  20910521.840   -29465604.28046 -22290498.99548  20910521.4874   20910527.0664
       209.000
  23918656.932    -8671334.48346  -5893049.91447  23918656.2994   23918663.6514
       148.000
 96  4 20  0 44 59.9990000  0  6 05 24 20 06 16 17
  20533945.490   -37102658.98346 -28872676.92648  20533945.1264   20533950.0504
       212.000
  22415203.130   -25074238.31246 -19524247.31748  22415203.0984   22415208.6534
       184.000
  20175498.608   -33940034.26946 -26160514.33848  20175498.5034   20175503.6554
       215.000
  21526290.916   -27199703.15846 -21175314.75548  21526290.9394   21526295.6374
       199.000
  20902494.669   -29507787.11746 -22323368.72348  20902494.3144   20902499.9114
       209.000
  23898206.682    -8778801.16646  -5976790.10147  23898206.1364   23898213.3224
       148.000
 96  4 20  0 45 29.9990000  0  6 05 24 20 06 16 17
  20540833.074   -37066464.51746 -28844473.46448  20540832.7074   20540837.6314
       212.000
  22426160.102   -25016658.93846 -19479380.28448  22426160.0734   22426165.6534
       183.000
  20170614.629   -33965699.88446 -26180513.52448  20170614.5344   20170619.6794
       215.000
  21511819.371   -27275751.43646 -21234573.13948  21511819.3774   21511824.0684
       199.000
  20894579.410   -29549381.91646 -22355780.23848  20894579.0644   20894584.6594
       209.000
  23877792.211    -8886079.70246  -6060383.70447  23877791.6294   23877798.7614
       150.000
 96  4 20  0 45 59.9990000  0  6 05 24 20 06 16 17
  20547817.982   -37029758.61346 -28815871.47248  20547817.6224   20547822.5304
       212.000
  22437136.515   -24958977.53346 -19434433.74948  22437136.4944   22437142.0714
       183.000
  20165843.899   -33990770.18846 -26200048.82648  20165843.8074   20165848.9534
       215.000
  21497365.023   -27351709.44346 -21293761.18748  21497365.0444   21497369.7424
       199.000
  20886777.207   -29590382.87446 -22387729.01948  20886776.8754   20886782.4474
       209.000
  23857412.334    -8993176.05046  -6143835.33747  23857411.7684   23857418.9024
       151.000
 96  4 20  0 46 29.9990000  0  6 05 24 20 06 16 17
  20554898.484   -36992550.27046 -28786877.97348  20554898.1204   20554903.0344
       212.000
  22448132.935   -24901191.22546 -19389405.47048  22448132.8914   22448138.4544
       183.000
  20161187.121   -34015241.67346 -26219117.51948  20161187.0214   20161192.1754
       215.000
  21482929.166   -27427570.48846 -21352873.67448  21482929.1984   21482933.8754
       199.000
  20879089.148   -29630783.99146 -22419210.39148  20879088.8084   20879094.3624
       209.000
  23837068.377    -9100083.93146  -6227140.10647  23837067.8424   23837074.9724
       153.000
 96  4 20  0 46 59.9990000  0  6 05 24 20 06 16 17
  20562072.376   -36954851.35246 -28757502.20748  20562072.0344   20562076.9484
       212.000
  22459148.172   -24843305.97846 -19344300.09748  22459148.1254   22459153.6714
       182.000
  20156645.864   -34039106.12946 -26237713.21148  20156645.7654   20156650.9014
       215.000
  21468512.280   -27503331.75346 -21411908.42048  21468512.3084   21468516.9714
       199.000
  20871517.633   -29670572.33846 -22450214.28248  20871517.2894   20871522.8504
       209.000
  23816760.129    -9206804.03746  -6310298.57247  23816759.5814   23816766.7444
       153.000
 96  4 20  0 47 29.9990000  0  6 05 24 20 06 16 17
  20569335.743   -36916682.07046 -28727759.92448  20569335.3864   20569340.3374
       211.000
  22470179.280   -24785337.40546 -19299129.79748  22470179.2194   22470184.7194
       182.000
  20152219.376   -34062367.42846 -26255838.90848  20152219.2794   20152224.4044
       215.000
  21454112.786   -27579001.58546 -21470871.91848  21454112.8074   21454117.4684
       200.000
  20864061.662   -29709753.65546 -22480745.16248  20864061.3214   20864066.8664
       210.000
  23796486.206    -9313343.83246  -6393316.51447  23796485.7164   23796492.8524
       154.000
 96  4 20  0 47 59.9990000  0  6 05 24 20 06 16 17
  20576686.738   -36878052.31446 -28697658.83248  20576686.3964   20576691.3364
       211.000
  22481222.756   -24727303.55646 -19253908.63248  22481222.7034   22481228.2094
       181.000
  20147904.588   -34085041.68946 -26273507.17048  20147904.5064   20147909.6414
       215.000
  21439731.474   -27654575.82746 -21529760.92048  21439731.4834   21439736.1544
       200.000
  20856715.856   -29748356.14146 -22510825.00748  20856715.5064   20856721.0574
       210.000
  23776243.738    -9419718.66446  -6476205.92147  23776243.1904   23776250.3284
       155.000
 96  4 20  0 48 29.9990000  0  6 05 24 20 06 16 17
  20584128.291   -36838946.89446 -28667187.09148  20584127.9354   20584132.8824
       211.000
  22492279.713   -24669199.06046 -19208632.41248  22492279.6594   22492285.1744
       181.000
  20143702.215   -34107125.40646 -26290715.26148  20143702.1354   20143707.2704
       215.000
  21425371.917   -27730035.63646 -21588560.76148  21425371.9244   21425376.6264
       200.000
  20849481.973   -29786370.29946 -22540446.41048  20849481.6244   20849487.1884
       209.000
  23756037.549    -9525902.50846  -6558946.50347  23756037.0584   23756044.1784
       156.000
 96  4 20  0 48 59.9990000  0  6 05 24 20 06 16 17
  20591658.027   -36799377.92046 -28636354.13948  20591657.6724   20591662.6264
       211.000
  22503347.549   -24611037.38746 -19163311.65048  22503347.4774   22503353.0114
       180.000
  20139610.035   -34128629.83346 -26307471.96148  20139609.9484   20139615.1094
       215.000
  21411030.191   -27805401.93746 -21647287.74248  21411030.2124   21411034.8974
       201.000
  20842357.206   -29823811.16546 -22569621.09748  20842356.8674   20842362.4094
       209.000
  23735865.211    -9631908.67146  -6641548.63347  23735864.7234   23735871.8074
       157.000
 96  4 20  0 49 29.9990000  0  6 05 24 20 06 16 17
  20599278.026   -36759334.59746 -28605151.55948  20599277.6774   20599282.6274
       211.000
  22514430.363   -24552796.90046 -19117929.47048  22514430.2844   22514435.8384
       180.000
  20135631.534   -34149537.01646 -26323763.27248  20135631.4524   20135636.6194
       215.000
  21396710.485   -27880652.42946 -21705924.47548  21396710.4864   21396715.2024
       201.000
  20835342.147   -29860675.37446 -22598346.44248  20835341.8034   20835347.3404
       209.000
  23715731.576    -9737711.39146  -6723992.22747  23715731.0614   23715738.1694
       158.000
 96  4 20  0 49 59.9990000  0  6 05 24 20 06 16 17
  20606982.521   -36718847.29846 -28573603.03448  20606982.1534   20606987.1234
       211.000
  22525526.054   -24494488.61746 -19072494.45748  22525525.9734   22525531.5224
       180.000
  20131761.938   -34169871.85946 -26339608.60648  20131761.8514   20131767.0144
       215.000
  21382409.145   -27955806.36746 -21764485.97548  21382409.1564   21382413.8804
       201.000
  20828433.476   -29896980.63146 -22626636.23748  20828433.1364   20828438.6544
       209.000
  23695633.389    -9843327.99746  -6806290.80847  23695632.8944   23695639.8844
       158.000
 96  4 20  0 50 29.9990000  0  6 05 24 20 06 16 17
  20614772.066   -36677912.95846 -28541706.16648  20614771.6914   20614776.6594
       210.000
  22536635.779   -24436106.47946 -19027001.90448  22536635.7124   22536641.2264
       180.000
  20128005.162   -34189613.69846 -26354991.85648  20128005.0624   20128010.2404
       215.000
  21368124.605   -28030871.98846 -21822978.65648  21368124.6254   21368129.3704
       201.000
  20821635.161   -29932706.11646 -22654474.26348  20821634.8224   20821640.3234
       210.000
  23675574.353    -9948738.63946  -6888428.89447  23675573.8524   23675580.8174
       158.000
 96  4 20  0 50 59.9990000  0  6 05 24 20 06 16 17
  20622644.959   -36636540.65846 -28509468.03048  20622644.5904   20622649.5804
       210.000
  22547755.981   -24377669.45246 -18981466.57148  22547755.9134   22547761.4314
       180.000
  20124358.335   -34208777.92946 -26369925.02748  20124358.2474   20124363.4144
       215.000
  21353854.706   -28105860.79746 -21881411.48748  21353854.7244   21353859.4584
       201.000
  20814943.675   -29967869.96846 -22681874.65748  20814943.3354   20814948.8384
       210.000
  23655550.348   -10053965.19546  -6970423.54647  23655549.8834   23655556.7824
       159.000
 96  4 20  0 51 29.9990000  0  6 05 24 20 06 16 17
  20630600.117   -36594736.00246 -28476892.97948  20630599.7334   20630604.7494
       210.000
  22558885.856   -24319181.70346 -18935891.72048  22558885.7984   22558891.2614
       179.000
  20120819.693   -34227373.52746 -26384415.10648  20120819.5964   20120824.7834
       216.000
  21339598.491   -28180777.58046 -21939788.19448  21339598.4834   21339603.2194
       201.000
  20808355.819   -30002489.49846 -22708850.90048  20808355.4654   20808360.9694
       209.000
  23635559.359   -10159018.24346  -7052282.98047  23635558.9234   23635565.7884
       159.000
 96  4 20  0 51 59.9990000  0  6 05 24 20 06 16 17
  20638644.948   -36552460.02846 -28443950.66748  20638644.5844   20638649.5954
       210.000
  22570028.273   -24260627.73946 -18890265.26948  22570028.2344   22570033.7424
       180.000
  20117391.373   -34245389.65646 -26398453.65848  20117391.2904   20117396.4594
       216.000
  21325359.334   -28255604.67946 -21998095.01248  21325359.3614   21325364.1004
       201.000
  20801876.101   -30036540.67746 -22735384.27548  20801875.7614   20801881.2384
       209.000
  23615606.237   -10263872.51046  -7133987.53047  23615605.8064   23615612.6944
       159.000
 96  4 20  0 52 29.9990000  0  6 05 24 20 06 16 17
  20646785.364   -36509681.74046 -28410616.95448  20646785.0084   20646790.0274
       209.000
  22581181.867   -24202015.32346 -18844593.26948  22581181.8334   22581187.3184
       180.000
  20114073.564   -34262824.91946 -26412039.58448  20114073.4774   20114078.6314
       216.000
  21311139.006   -28330332.96446 -22056324.83348  21311139.0254   21311143.7844
       202.000
  20795504.546   -30070023.27846 -22761474.60448  20795504.1924   20795509.6684
       209.000
  23595691.613   -10368524.06846  -7215534.13747  23595691.2234   23595698.0254
       159.000
 96  4 20  0 52 59.9990000  0  6 05 24 20 06 16 17
  20655024.756   -36466383.64746 -28376878.19348  20655024.3944   20655029.4054
       209.000
  22592347.636   -24143338.84446 -18798871.35848  22592347.5834   22592353.0884
       180.000
  20110866.343   -34279679.05446 -26425172.67948  20110866.2674   20110871.4194
       216.000
  21296942.172   -28404937.77146 -22114458.43748  21296942.2044   21296946.9404
       202.000
  20789243.698   -30102924.20746 -22787111.67948  20789243.3564   20789248.8104
       209.000
  23575814.716   -10472977.13246  -7296926.06047  23575814.3334   23575821.1474
       158.000
 96  4 20  0 53 29.9990000  0  6 05 24 20 06 16 17
  20663359.840   -36422582.46246 -28342747.40648  20663359.4744   20663364.4954
       209.000
  22603524.711   -24084603.02746 -18753103.19648  22603524.6554   22603530.1644
       180.000
  20107769.726   -34295951.96546 -26437852.87448  20107769.6514   20107774.8164
       216.000
  21282768.230   -28479422.30446 -22172498.32448  21282768.2564   21282773.0134
       202.000
  20783094.140   -30135240.26946 -22812293.01548  20783093.7844   20783099.2474
       209.000
  23555974.231   -10577239.46846  -7378169.35647  23555973.8494   23555980.6254
       159.000
 96  4 20  0 53 59.9980000  0  6 05 24 20 06 16 17
  20671790.678   -36378278.13346 -28308224.57348  20671790.3174   20671795.3264
       209.000
  22614710.598   -24025821.01046 -18707299.04548  22614710.5524   22614716.0864
       181.000
  20104786.136   -34311630.74046 -26450070.10948  20104786.0664   20104791.2264
       216.000
  21268619.526   -28553774.41146 -22230435.02348  21268619.5514   21268624.3004
       202.000
  20777059.523   -30166952.23446 -22837003.62848  20777059.1814   20777064.6404
       208.000
  23536171.831   -10681301.36546  -7459256.47647  23536171.4284   23536178.2204
       158.000
 96  4 20  0 54 29.9980000  0  6 05 24 20 06 16 17
  20680311.361   -36333501.60646 -28273333.79848  20680311.0094   20680316.0224
       209.000
  22625902.301   -23967008.58746 -18661471.19048  22625902.2244   22625907.7984
       180.000
  20101917.549   -34326705.43546 -26461816.63448  20101917.4824   20101922.6484
       216.000
  21254492.588   -28628011.98446 -22288282.47748  21254492.6114   21254497.3504
       202.000
  20771138.585   -30198066.81846 -22861248.74948  20771138.2304   20771143.7174
       208.000
  23516402.407   -10785190.11446  -7540208.66647  23516401.9444   23516408.7914
       158.000
 96  4 20  0 54 59.9980000  0  6 05 24 20 06 16 17
  20688912.374   -36288303.20746 -28238114.28348  20688912.0244   20688917.0384
       208.000
  22637097.068   -23908179.73446 -18615630.54748  22637096.9944   22637102.5964
       180.000
  20099162.605   -34341182.88446 -26473097.77148  20099162.5294   20099167.7004
       216.000
  21240384.165   -28702152.19846 -22346054.06448  21240384.1984   21240388.9304
       203.000
  20765329.316   -30228594.79746 -22885036.77348  20765328.9724   20765334.4454
       208.000
  23496664.765   -10888911.65346  -7621030.56647  23496664.2984   23496671.1944
       157.000
 96  4 20  0 55 29.9980000  0  6 05 24 20 06 16 17
  20697598.406   -36242657.87346 -28202546.50148  20697598.0514   20697603.0554
       209.000
  22648302.093   -23849296.85146 -18569747.78848  22648302.0274   22648307.6334
       179.000
  20096528.422   -34355025.66446 -26483884.36148  20096528.3434   20096533.5054
       216.000
  21226298.622   -28776172.03046 -22403731.84748  21226298.6494   21226303.3764
       203.000
  20759635.718   -30258514.70546 -22908350.97948  20759635.3544   20759640.8344
       208.000
  23476968.468   -10992416.17546  -7701683.36847  23476968.0434   23476974.7534
       157.000
 96  4 20  0 55 59.9980000  0  6 05 24 20 06 16 17
  20706366.044   -36196583.65946 -28166644.52848  20706365.6914   20706370.6784
       209.000
  22659513.662   -23790379.45946 -18523838.15348  22659513.6554   22659519.2304
       179.000
  20094011.016   -34368254.74846 -26494192.74048  20094010.9264   20094016.1134
       216.000
  21212228.737   -28850109.76646 -22461345.65948  21212228.7504   21212233.4644
       203.000
  20754053.394   -30287850.04046 -22931209.67248  20754053.0284   20754058.5254
       208.000
  23457309.924   -11095722.39246  -7782181.65647  23457309.4334   23457316.1614
       157.000
 96  4 20  0 56 29.9980000  0  6 05 24 20 06 16 17
  20715217.119   -36150071.17446 -28130401.04348  20715216.7744   20715221.7314
       208.000
  22670736.758   -23731401.69846 -18477881.47148  22670736.7454   22670742.3694
       178.000
  20091609.672   -34380873.78746 -26504025.76048  20091609.5984   20091614.7904
       216.000
  21198176.693   -28923953.86546 -22518886.50948  21198176.6984   21198181.3924
       203.000
  20748584.457   -30316589.46446 -22953604.01948  20748584.1044   20748589.5774
       208.000
  23437690.865   -11198820.94646  -7862518.12247  23437690.4154   23437697.1014
       157.000
 96  4 20  0 56 59.9980000  0  6 05 24 20 06 16 17
  20724153.527   -36103110.15746 -28093808.04548  20724153.1674   20724158.1334
       208.000
  22681972.231   -23672359.01046 -18431874.20148  22681972.1984   22681977.8434
       178.000
  20089321.114   -34392900.22046 -26513397.00848  20089321.0424   20089326.2354
       216.000
  21184144.207   -28997694.90746 -22576347.05848  21184144.2124   21184148.9074
       204.000
  20743229.392   -30344730.30446 -22975531.93848  20743229.0514   20743234.5334
       208.000
  23418110.783   -11301714.49346  -7942694.85847  23418110.3294   23418117.0334
       156.000
 96  4 20  0 57 29.9980000  0  6 05 24 20 06 16 17
  20733180.983   -36055670.55046 -28056842.13348  20733180.6484   20733185.5854
       208.000
  22693221.726   -23613242.27646 -18385809.23048  22693221.7094   22693227.3584
       177.000
  20087147.225   -34404323.91446 -26522298.58948  20087147.1574   20087152.3534
       215.000
  21170133.485   -29071321.72946 -22633718.60648  21170133.5114   21170138.1824
       204.000
  20737990.732   -30372259.53846 -22996983.28448  20737990.3884   20737995.8984
       208.000
  23398569.132   -11404406.10946  -8022714.23747  23398568.6184   23398575.3944
       156.000
 96  4 20  0 57 59.9980000  0  6 05 24 20 06 16 17
  20742295.338   -36007774.39246 -28019520.46848  20742294.9884   20742299.9504
       208.000
  22704482.289   -23554067.62846 -18339699.13548  22704482.2944   22704487.9364
       176.000
  20085082.574   -34415173.66246 -26530752.93848  20085082.4974   20085087.7044
       215.000
  21156142.904   -29144842.76246 -22691007.71348  21156142.9174   21156147.6174
       204.000
  20732866.233   -30399188.75846 -23017967.08448  20732865.8964   20732871.4194
       208.000
  23379060.817   -11506922.59946  -8102597.14947  23379060.3534   23379067.0614
       156.000
 96  4 20  0 58 29.9980000  0  6 05 24 20 06 16 17
  20751494.305   -35959433.63146 -27981852.35448  20751493.9504   20751498.9184
       208.000
  22715751.535   -23494847.35246 -18293553.48748  22715751.5334   22715757.2004
       176.000
  20083125.335   -34425459.09446 -26538767.57048  20083125.2524   20083130.4494
       215.000
  21142175.114   -29218243.85446 -22748203.36048  21142175.1474   21142179.8284
       204.000
  20727855.333   -30425521.26546 -23038485.91348  20727855.0054   20727860.5144
       208.000
  23359585.205   -11609267.31546  -8182346.22047  23359584.7464   23359591.3844
       157.000
 96  4 20  0 58 59.9980000  0  6 05 24 20 06 16 17
  20760779.078   -35910641.80046 -27943832.75848  20760778.7324   20760783.6934
       208.000
  22727028.800   -23435584.91846 -18247374.98748  22727028.8054   22727034.4574
       176.000
  20081277.375   -34435170.17846 -26546334.65248  20081277.3014   20081282.5054
       215.000
  21128229.148   -29291530.47646 -22805309.81048  21128229.1714   21128233.8544
       204.000
  20722954.906   -30451273.21246 -23058552.35948  20722954.5674   20722960.0694
       208.000
  23340145.212   -11711425.00446  -8261949.57047  23340144.7144   23340151.3434
       157.000
 96  4 20  0 59 29.9980000  0  6 05 24 20 06 16 17
  20770143.673   -35861430.60646 -27905486.38948  20770143.3194   20770148.2824
       208.000
  22738309.920   -23376302.49546 -18201180.90748  22738309.9164   22738315.5604
       175.000
  20079532.739   -34444338.48546 -26553478.79248  20079532.6494   20079537.8634
       216.000
  21114300.346   -29364726.68746 -22862345.81048  21114300.3744   21114305.0674
       204.000
  20718158.739   -30476477.15146 -23078191.78848  20718158.4074   20718163.9034
       209.000
  23320738.779   -11813406.15946  -8341415.35147  23320738.2794   23320744.8854
       158.000
 96  4 20  0 59 59.9980000  0  6 05 24 20 06 16 17
  20779589.852   -35811790.56346 -27866805.85248  20779589.4804   20779594.4564
       207.000
  22749596.492   -23316991.14846 -18154964.29148  22749596.4924   22749602.1064
       175.000
  20077894.467   -34452947.70746 -26560187.28548  20077894.3734   20077899.5654
       216.000
  21100396.567   -29437791.52746 -22919279.45048  21100396.5894   21100401.2614
       205.000
  20713472.383   -30501104.18446 -23097381.67448  20713472.0624   20713477.5354
       209.000
  23301373.773   -11915169.64646  -8420711.52347  23301373.3954   23301379.8324
       158.000
 96  4 20  1  0 29.9980000  0  6 05 24 20 06 16 17
  20789119.093   -35761713.94846 -27827785.13748  20789118.7424   20789123.7324
       207.000
  22760885.335   -23257667.83046 -18108738.34748  22760885.3474   22760890.9484
       174.000
  20076366.232   -34460978.70446 -26566445.22048  20076366.1414   20076371.3244
       215.000
  21086518.399   -29510721.86346 -22976108.27748  21086518.4074   21086523.0714
       205.000
  20708896.176   -30525152.28646 -23116120.45348  20708895.8504   20708901.3054
       209.000
  23282049.963   -12016716.77046  -8499839.10647  23282049.5834   23282056.0224
       159.000
 96  4 20  1  0 59.9980000  0  6 05 24 20 06 16 17
  20798728.445   -35711216.52346 -27788436.51248  20798728.0904   20798733.1014
       207.000
  22772174.798   -23198341.31746 -18062509.91648  22772174.8014   22772180.4294
       173.000
  20074947.290   -34468435.30146 -26572255.56648  20074947.1934   20074952.3984
       215.000
  21072664.930   -29583522.44246 -23032835.99848  21072664.9484   21072669.5964
       205.000
  20704429.101   -30548627.03246 -23134412.45848  20704428.7624   20704434.2364
       209.000
  23262765.025   -12118059.82946  -8578807.66247  23262764.5844   23262771.0584
       159.000
 96  4 20  1  1 29.9980000  0  6 05 24 20 06 16 17
  20808416.274   -35660306.53546 -27748766.41648  20808415.9234   20808420.9714
       206.000
  22783466.598   -23139002.58446 -18016271.96748  22783466.6044   22783472.2194
       172.000
  20073639.191   -34475309.43646 -26577612.04948  20073639.0994   20073644.2874
       215.000
  21058839.978   -29656172.91646 -23089446.74748  21058839.9984   21058844.6394
       205.000
  20700078.621   -30571488.80446 -23152226.82448  20700078.2944   20700083.7424
       209.000
  23243519.225   -12219196.84746  -8657615.68247  23243518.8074   23243525.2244
       160.000
 96  4 20  1  1 59.9980000  0  6 05 24 20 06 16 17
  20818180.419   -35608995.65946 -27708783.92948  20818180.0644   20818185.1354
       206.000
  22794759.351   -23079658.93646 -17970030.17748  22794759.3564   22794764.8924
       172.000
  20072445.299   -34481583.29646 -26582500.78048  20072445.2254   20072450.4224
       215.000
  21045041.036   -29728686.75846 -23145951.02648  21045041.0614   21045045.7244
       205.000
  20695842.821   -30593748.24046 -23169571.83448  20695842.4764   20695847.9484
       209.000
  23224309.897   -12320142.52646  -8736274.60247  23224309.4754   23224315.9004
       160.000
 96  4 20  1  2 29.9980000  0  6 05 24 20 06 16 17
  20828024.495   -35557264.75546 -27668474.15048  20828024.1494   20828029.2314
       205.000
  22806060.910   -23020268.99546 -17923752.32348  22806060.8934   22806066.4254
       171.000
  20071370.632   -34487230.79646 -26586901.44248  20071370.5494   20071375.7354
       215.000
  21031268.470   -29801062.13046 -23202347.41548  21031268.5064   21031273.1604
       206.000
  20691722.466   -30615400.73646 -23186443.91048  20691722.1294   20691727.5874
       210.000
  23205139.280   -12420884.74246  -8814774.99748  23205138.8374   23205145.2594
       161.000
 96  4 20  1  2 59.9980000  0  6 05 24 20 06 16 17
  20837946.999   -35505121.64646 -27627843.17948  20837946.6404   20837951.7444
       205.000
  22817373.504   -22960820.92646 -17877429.16648  22817373.5114   22817379.0064
       171.000
  20070412.727   -34492264.58046 -26590823.88548  20070412.6424   20070417.8484
       215.000
  21017520.992   -29873305.59746 -23258641.01948  21017521.0134   21017525.6704
       206.000
  20687717.426   -30636447.35246 -23202843.86748  20687717.0924   20687722.5634
       210.000
  23186007.132   -12521424.65446  -8893117.74248  23186006.7224   23186013.1184
       162.000
 96  4 20  1  3 29.9980000  0  6 05 24 20 06 16 17
  20847952.410   -35452542.81846 -27586872.69148  20847952.0634   20847957.1684
       205.000
  22828697.003   -22901315.55846 -17831061.36148  22828697.0124   22828702.5084
       171.000
  20069572.562   -34496679.60946 -26594264.17648  20069572.4844   20069577.6894
       215.000
  21003797.960   -29945420.66146 -23314834.56548  21003797.9934   21003802.6234
       206.000
  20683825.415   -30656899.88746 -23218780.90248  20683825.0964   20683830.5414
       210.000
  23166915.733   -12621750.43246  -8971293.63248  23166915.3184   23166921.6894
       162.000
 96  4 20  1  3 59.9980000  0  6 05 24 20 06 16 17
  20858042.155   -35399520.86246 -27545556.89648  20858041.8084   20858046.9324
       204.000
  22840028.223   -22841769.81046 -17784662.09048  22840028.2484   22840033.6854
       171.000
  20068849.036   -34500481.97646 -26597227.06848  20068848.9554   20068854.1374
       215.000
  20990096.712   -30017421.24546 -23370938.91648  20990096.7384   20990101.3354
       206.000
  20680040.716   -30676788.59346 -23234278.59548  20680040.3864   20680045.8274
       210.000
  23147861.755   -12721879.61546  -9049316.32248  23147861.3894   23147867.7244
       163.000
 96  4 20  1  4 29.9980000  0  6 05 24 20 06 16 17
  20868221.267   -35346029.34046 -27503875.20948  20868220.9114   20868226.0464
       204.000
  22851368.514   -22782176.49346 -17738225.75748  22851368.4874   22851373.9594
       171.000
  20068240.443   -34503680.18046 -26599719.18948  20068240.3564   20068245.5404
       215.000
  20976420.084   -30089292.35046 -23426942.37048  20976420.1074   20976424.7034
       206.000
  20676370.368   -30696076.56546 -23249308.17948  20676370.0374   20676375.4714
       210.000
  23128848.433   -12821795.04846  -9127172.45648  23128848.1114   23128854.4584
       164.000
 96  4 20  1  4 59.9980000  0  6 05 24 20 06 16 17
  20878486.643   -35292084.53446 -27461840.30948  20878486.3054   20878491.4014
       204.000
  22862709.236   -22722580.34046 -17691787.20948  22862709.2064   22862714.7004
       170.000
  20067740.565   -34506307.16846 -26601766.20548  20067740.4924   20067745.6784
       215.000
  20962766.141   -30161044.16546 -23482852.87548  20962766.1594   20962770.7564
       206.000
  20672812.935   -30714771.19846 -23263875.42548  20672812.6094   20672818.0264
       210.000
  23109873.743   -12921507.62046  -9204870.51948  23109873.3884   23109879.7584
       165.000
 96  4 20  1  5 29.9980000  0  6 05 24 20 06 16 17
  20888839.013   -35237682.61346 -27419449.22548  20888838.6684   20888843.7634
       203.000
  22874052.428   -22662971.25146 -17645338.59148  22874052.4334   22874057.9414
       170.000
  20067351.241   -34508352.97246 -26603360.34648  20067351.1524   20067356.3344
       215.000
  20949137.967   -30232660.49946 -23538657.80448  20949137.9944   20949142.5914
       207.000
  20669371.451   -30732856.49346 -23277967.86048  20669371.1124   20669376.5544
       210.000
  23090941.292   -13020998.11546  -9282395.52748  23090940.9044   23090947.3134
       165.000
 96  4 20  1  5 59.9980000  0  6 05 24 20 06 16 17
  20899271.286   -35182860.75146 -27376730.91148  20899270.9164   20899276.0234
       203.000
  22885394.854   -22603366.59646 -17598893.42048  22885394.8114   22885400.4044
       170.000
  20067067.248   -34509845.39946 -26604523.28448  20067067.1784   20067072.3374
       215.000
  20935532.545   -30304157.43046 -23594369.68848  20935532.5824   20935537.1864
       207.000
  20666044.165   -30750341.41746 -23291592.47248  20666043.8164   20666049.2824
       210.000
  23072045.386   -13120296.39946  -9359770.76348  23072045.0464   23072051.4404
       166.000
 96  4 20  1  6 29.9980000  0  6 05 24 20 06 16 17
  20909779.027   -35127642.37346 -27333703.62948  20909778.6524   20909783.7774
       203.000
  22896735.292   -22543772.30246 -17552456.33048  22896735.2704   22896740.8744
       170.000
  20066885.655   -34510800.02446 -26605267.15748  20066885.5844   20066890.7104
       215.000
  20921950.564   -30375531.15746 -23649985.57248  20921950.5954   20921955.2084
       207.000
  20662831.124   -30767225.76946 -23304749.10648  20662830.7804   20662836.2564
       210.000
  23053185.751   -13219404.36846  -9436997.70148  23053185.3224   23053191.7144
       166.000
 96  4 20  1  6 59.9980000  0  6 05 24 20 06 16 17
  20920360.623   -35072035.69946 -27290373.77748  20920360.2664   20920365.3874
       202.000
  22908075.873   -22484177.10846 -17506018.53048  22908075.8094   22908081.4894
       170.000
  20066812.104   -34511186.54346 -26605568.35148  20066812.0254   20066817.1644
       215.000
  20908396.621   -30446757.50846 -23705486.61348  20908396.6384   20908401.2804
       207.000
  20659730.045   -30783521.98346 -23317447.44948  20659729.6974   20659735.1964
       210.000
  23034362.968   -13318318.52946  -9514073.62748  23034362.5424   23034368.9964
       166.000
 96  4 20  1  7 29.9980000  0  6 05 24 20 06 16 17
  20931018.937   -35016026.02146 -27246729.89548  20931018.5774   20931023.6964
       202.000
  22919423.105   -22424546.79746 -17459553.38348  22919423.0444   22919428.7244
       170.000
  20066853.066   -34510971.36246 -26605400.68948  20066852.9674   20066858.1144
       215.000
  20894872.122   -30517829.28646 -23760867.21448  20894872.1414   20894876.7734
       207.000
  20656743.113   -30799218.28746 -23329678.33248  20656742.7754   20656748.2854
       210.000
  23015580.426   -13417021.31346  -9590984.83448  23015579.9264   23015586.4494
       166.000
 96  4 20  1  7 59.9980000  0  6 05 24 20 06 16 17
  20941752.751   -34959619.35946 -27202776.66848  20941752.3864   20941757.5284
       202.000
  22930774.952   -22364892.43546 -17413069.48148  22930774.8754   22930780.5694
       170.000
  20067005.949   -34510167.78246 -26604774.53348  20067005.8814   20067011.0244
       215.000
  20881374.222   -30588761.10846 -23816138.75348  20881374.2364   20881378.8574
       207.000
  20653867.648   -30814329.00846 -23341452.91448  20653867.3054   20653872.8084
       210.000
  22996837.147   -13515517.49046  -9667735.05848  22996836.6724   22996843.1444
       166.000
 96  4 20  1  8 29.9980000  0  6 05 24 20 06 16 17
  20952557.396   -34902840.61746 -27158533.50648  20952557.0274   20952562.1644
       202.000
  22942127.819   -22305232.80946 -17366581.48648  22942127.7364   22942133.4644
       170.000
  20067267.780   -34508791.96246 -26603702.47348  20067267.7104   20067272.8544
       215.000
  20867899.233   -30659572.65446 -23871316.57148  20867899.2644   20867903.8864
       208.000
  20651100.470   -30828870.47346 -23352783.91848  20651100.1314   20651105.6234
       210.000
  22978132.210   -13613812.43246  -9744328.45548  22978131.7404   22978138.2034
       166.000
 96  4 20  1  8 59.9980000  0  6 05 24 20 06 16 17
  20963438.629   -34845659.48346 -27113976.79948  20963438.2444   20963443.3954
       201.000
  22953485.895   -22245545.66646 -17320072.04748  22953485.8424   22953491.5764
       170.000
  20067645.802   -34506805.57946 -26602154.65348  20067645.7384   20067650.8924
       215.000
  20854450.131   -30730248.26046 -23926388.46448  20854450.1354   20854454.7824
       208.000
  20648446.904   -30842815.08746 -23363649.84548  20648446.5484   20648452.0504
       210.000
  22959473.139   -13711866.46246  -9820734.14048  22959472.6784   22959479.1164
       166.000
 96  4 20  1  9 29.9980000  0  6 05 24 20 06 16 17
  20974395.240   -34788082.01646 -27069111.25248  20974394.8694   20974399.9954
       201.000
  22964846.626   -22185844.72346 -17273551.84548  22964846.5774   22964852.2774
       170.000
  20068134.656   -34504236.78946 -26600153.00848  20068134.5904   20068139.7364
       215.000
  20841024.793   -30800798.62046 -23981362.76248  20841024.8194   20841029.4464
       208.000
  20645907.294   -30856160.53846 -23374048.89148  20645906.9464   20645912.4524
       209.000
  22940860.008   -13809678.90446  -9896951.57348  22940859.5344   22940865.9944
       166.000
 96  4 20  1  9 59.9980000  0  6 05 24 20 06 16 17
  20985424.922   -34730120.87746 -27023946.75348  20985424.5534   20985429.6594
       201.000
  22976207.350   -22126143.84046 -17227031.70248  22976207.2834   22976213.0274
       169.000
  20068734.808   -34501083.07246 -26597695.57848  20068734.7244   20068739.9034
       215.000
  20827627.854   -30871200.00446 -24036220.97948  20827627.8934   20827632.4994
       208.000
  20643481.951   -30868905.70546 -23383980.18748  20643481.6154   20643487.1134
       209.000
  22922289.485   -13907267.21346  -9972994.36048  22922289.0204   22922295.4364
       166.000
 96  4 20  1 10 29.9980000  0  6 05 24 20 06 16 17
  20996524.657   -34671791.38546 -26978495.22448  20996524.2894   20996529.3914
       201.000
  22987564.938   -22066459.37846 -17180524.35048  22987564.8504   22987570.6524
       169.000
  20069447.044   -34497340.12046 -26594779.00848  20069446.9714   20069452.1544
       215.000
  20814260.114   -30941448.08046 -24090959.73648  20814260.1384   20814264.7654
       208.000
  20641169.219   -30881059.08646 -23393450.35048  20641168.8764   20641174.3894
       209.000
  22903757.120   -14004655.20946 -10048881.05048  22903756.5994   22903763.0804
       166.000
 96  4 20  1 10 59.9980000  0  6 05 24 20 06 16 17
  21007701.260   -34613058.16746 -26932729.10448  21007700.8914   21007705.9934
       200.000
  22998925.059   -22006761.70246 -17134006.70748  22998924.9754   22998930.7774
       169.000
  20070276.727   -34492980.26346 -26591381.72948  20070276.6374   20070281.8304
       215.000
  20800928.329   -31011506.87546 -24145550.99548  20800928.3674   20800933.0044
       208.000
  20638973.222   -30892599.12046 -23402442.58248  20638972.8764   20638978.4164
       209.000
  22885265.719   -14101827.87446 -10124599.95748  22885265.2514   22885271.6744
       167.000
 96  4 20  1 11 29.9980000  0  6 05 24 20 06 16 17
  21018950.470   -34553943.23946 -26886665.55648  21018950.0944   21018955.1854
       200.000
  23010286.412   -21947057.49046 -17087483.96448  23010286.3204   23010292.1794
       169.000
  20071217.296   -34488037.37746 -26587530.14448  20071217.2164   20071222.4354
       215.000
  20787630.819   -31081385.80846 -24200002.10848  20787630.8634   20787635.4984
       208.000
  20636889.110   -30903551.27546 -23410976.72248  20636888.7694   20636894.2834
       209.000
  22866808.210   -14198822.50246 -10200180.13248  22866807.7394   22866814.1894
       167.000
 96  4 20  1 11 59.9980000  0  6 05 24 20 06 16 17
  21030277.022   -34494421.83946 -26840285.26748  21030276.6524   21030281.7384
       200.000
  23021654.562   -21887317.70446 -17040933.48848  23021654.4704   23021660.3414
       169.000
  20072272.253   -34482493.47846 -26583210.23848  20072272.1854   20072277.3974
       215.000
  20774368.610   -31151078.99946 -24254308.48348  20774368.6444   20774373.3074
       208.000
  20634917.608   -30913911.63946 -23419049.72948  20634917.2544   20634922.7924
       209.000
  22848387.493   -14295623.91446 -10275609.74748  22848387.0214   22848393.4384
       168.000
 96  4 20  1 12 29.9980000  0  6 05 24 20 06 16 17
  21041681.242   -34434492.42946 -26793587.04948  21041680.8774   21041685.9754
       200.000
  23033029.479   -21827542.37446 -16994355.34048  23033029.4364   23033035.2674
       169.000
  20073434.836   -34476384.33646 -26578449.88348  20073434.7604   20073439.9654
       215.000
  20761138.267   -31220604.84846 -24308484.46248  20761138.3034   20761142.9834
       208.000
  20633056.843   -30923689.87246 -23426669.13048  20633056.5024   20633062.0104
       209.000
  22830005.131   -14392223.62046 -10350882.19448  22830004.6774   22830011.1314
       168.000
 96  4 20  1 12 59.9980000  0  6 05 24 20 06 16 17
  21053163.138   -34374154.91446 -26746570.82448  21053162.7794   21053167.8644
       199.000
  23044410.149   -21767736.56146 -16947753.41948  23044410.1074   23044415.9754
       168.000
  20074700.785   -34469731.63646 -26573265.96848  20074700.6944   20074705.9314
       215.000
  20747936.157   -31289982.31046 -24362544.81348  20747936.1934   20747940.8874
       209.000
  20631304.769   -30932897.15946 -23433843.63348  20631304.4254   20631309.9204
       209.000
  22811663.375   -14488609.79546 -10425988.24248  22811662.9154   22811669.3684
       168.000
 96  4 20  1 13 29.9980000  0  6 05 24 20 06 16 17
  21064718.702   -34313430.09346 -26699252.80848  21064718.3394   21064723.4754
       199.000
  23055792.471   -21707922.10446 -16901144.77948  23055792.4474   23055798.3164
       168.000
  20076068.964   -34462541.78546 -26567663.49948  20076068.8774   20076074.1184
       215.000
  20734757.859   -31359234.63446 -24416507.65848  20734757.8864   20734762.5974
       209.000
  20629659.353   -30941543.74446 -23440581.23248  20629659.0144   20629664.5014
       209.000
  22793363.142   -14584777.99346 -10500924.44248  22793362.6734   22793369.0494
       168.000
 96  4 20  1 13 59.9980000  0  6 05 24 20 06 16 17
  21076346.488   -34252325.53046 -26651638.89248  21076346.1394   21076351.2974
       199.000
  23067174.861   -21648107.24346 -16854535.81448  23067174.8374   23067180.7424
       166.000
  20077541.532   -34454803.47846 -26561633.66148  20077541.4474   20077546.6934
       215.000
  20721604.812   -31428354.29946 -24470367.13448  20721604.8514   20721609.5514
       209.000
  20628122.239   -30949621.26446 -23446875.40048  20628121.9084   20628127.3814
       209.000
  22775107.329   -14680712.62046 -10575678.65448  22775106.8324   22775113.1954
       168.000
 96  4 20  1 14 29.9980000  0  6 05 24 20 06 16 17
  21088040.530   -34190873.22946 -26603754.00448  21088040.1544   21088045.3284
       199.000
  23078551.244   -21588324.07746 -16807951.54348  23078551.2014   23078557.0444
       166.000
  20079118.804   -34446514.82846 -26555174.98748  20079118.7154   20079123.9764
       215.000
  20708475.413   -31497349.97746 -24524129.99248  20708475.4314   20708480.1084
       209.000
  20626693.712   -30957128.22546 -23452724.97448  20626693.3774   20626698.8334
       209.000
  22756894.564   -14776421.10246 -10650256.65548  22756894.0904   22756900.3894
       168.000
 96  4 20  1 14 59.9980000  0  6 05 24 20 06 16 17
  21099802.209   -34129065.06446 -26555591.83048  21099801.8414   21099807.0514
       199.000
  23089923.125   -21528564.76446 -16761385.85948  23089923.0294   23089928.8714
       166.000
  20080808.866   -34437633.52346 -26548254.50648  20080808.7954   20080814.0434
       215.000
  20695369.383   -31566222.64046 -24577797.00148  20695369.4044   20695374.0664
       209.000
  20625376.673   -30964049.48746 -23458118.16648  20625376.3194   20625381.7704
       209.000
  22738724.936   -14871902.99446 -10724658.09448  22738724.4594   22738730.7304
       168.000
 96  4 20  1 15 29.9980000  0  6 05 24 20 06 16 17
  21111628.794   -34066915.92046 -26507163.95348  21111628.4344   21111633.6664
       198.000
  23101290.462   -21468829.07346 -16714838.59048  23101290.3804   23101296.1454
       165.000
  20082612.031   -34428157.81946 -26540870.85448  20082611.9474   20082617.2004
       215.000
  20682286.885   -31634971.58746 -24631367.60748  20682286.9014   20682291.5514
       209.000
  20624172.015   -30970379.85046 -23463050.91348  20624171.6834   20624177.1024
       209.000
  22720594.495   -14967178.74246 -10798898.90448  22720594.0104   22720600.3214
       168.000
 96  4 20  1 15 59.9980000  0  6 05 24 20 06 16 17
  21123523.374   -34004409.63846 -26458457.78248  21123522.9994   21123528.2504
       198.000
  23112654.266   -21409111.96646 -16668305.79548  23112654.2024   23112659.8634
       164.000
  20084529.151   -34418083.29746 -26533020.59548  20084529.0704   20084534.3354
       215.000
  20669231.046   -31703580.40846 -24684829.02348  20669231.0494   20669235.7074
       209.000
  20623082.094   -30976107.55346 -23467514.05448  20623081.7484   20623087.1754
       209.000
  22702502.345   -15062253.62646 -10872983.18848  22702501.8054   22702508.1144
       169.000
 96  4 20  1 16 29.9980000  0  6 05 24 20 06 16 17
  21135493.671   -33941505.45246 -26409441.55248  21135493.3034   21135498.5574
       198.000
  23124017.607   -21349397.30246 -16621774.90748  23124017.5764   23124023.1774
       164.000
  20086563.945   -34407390.33246 -26524688.42748  20086563.8814   20086569.1564
       215.000
  20656204.625   -31772034.66346 -24738169.99748  20656204.6374   20656209.3014
       209.000
  20622109.516   -30981218.32846 -23471496.46848  20622109.1814   20622114.6034
       209.000
  22684450.195   -15157118.25946 -10946903.64048  22684449.7024   22684455.9644
       169.000
 96  4 20  1 16 59.9980000  0  6 05 24 20 06 16 17
  21147542.060   -33878190.62346 -26360105.34548  21147541.7014   21147546.9474
       197.000
  23135383.208   -21289670.63746 -16575234.67148  23135383.1174   23135388.7774
       163.000
  20088713.300   -34396095.48046 -26515887.25948  20088713.2234   20088718.5194
       215.000
  20643211.125   -31840315.83446 -24791376.10248  20643211.1424   20643215.8214
       210.000
  20621253.334   -30985717.56646 -23475002.36548  20621252.9944   20621258.4414
       209.000
  22666438.248   -15251771.49146 -11020659.37248  22666437.7514   22666443.9784
       169.000
 96  4 20  1 17 29.9980000  0  6 05 24 20 06 16 17
  21159667.739   -33814469.98646 -26310452.93048  21159667.3874   21159672.6174
       197.000
  23146752.605   -21229923.83746 -16528678.74448  23146752.5074   23146758.2044
       162.000
  20090975.928   -34384205.29746 -26506622.19248  20090975.8574   20090981.1564
       215.000
  20630256.245   -31908394.20746 -24844424.17948  20630256.2714   20630260.9294
       210.000
  20620512.722   -30989609.48246 -23478035.02548  20620512.3964   20620517.8384
       208.000
  22648470.119   -15346194.47846 -11094235.69248  22648469.6214   22648475.8394
       169.000
 96  4 20  1 17 59.9980000  0  6 05 24 20 06 16 17
  21171866.262   -33750366.43846 -26260502.13948  21171865.9024   21171871.1404
       197.000
  23158122.869   -21170172.76246 -16482119.49148  23158122.8454   23158128.4594
       162.000
  20093347.780   -34371741.13046 -26496909.86748  20093347.7154   20093353.0174
       214.000
  20617337.109   -31976284.79446 -24897325.93148  20617337.1444   20617341.7884
       210.000
  20619881.292   -30992927.42746 -23480620.43148  20619880.9734   20619886.4344
       208.000
  22630544.158   -15440395.78946 -11167639.28148  22630543.6514   22630549.8394
       170.000
 96  4 20  1 18 29.9980000  0  6 05 24 20 06 16 17
  21184130.886   -33685915.62446 -26210280.75748  21184130.5124   21184135.7714
       196.000
  23169493.705   -21110419.06246 -16435558.18648  23169493.6344   23169499.2854
       161.000
  20095822.616   -34358735.83246 -26486775.88548  20095822.5324   20095827.8534
       214.000
  20604450.638   -32044003.69246 -24950093.89648  20604450.6464   20604455.2884
       210.000
  20619354.399   -30995696.36046 -23482778.03848  20619354.0584   20619359.5454
       208.000
  22612659.299   -15534381.10146 -11240874.54748  22612658.8034   22612664.9554
       170.000
 96  4 20  1 18 59.9980000  0  6 05 24 20 06 16 17
  21196447.841   -33621189.50146 -26159844.84148  21196447.4654   21196452.7404
       196.000
  23180858.045   -21050699.07146 -16389023.14448  23180857.9764   23180863.5574
       161.000
  20098389.572   -34345246.45146 -26476264.69648  20098389.4954   20098394.8264
       214.000
  20591588.015   -32111597.06846 -25002764.05648  20591588.0404   20591592.6624
       210.000
  20618923.506   -30997960.75846 -23484542.49948  20618923.1574   20618928.6674
       208.000
  22594807.576   -15628192.54946 -11313974.34848  22594807.1504   22594813.2074
       170.000
 96  4 20  1 19 29.9980000  0  6 05 24 20 06 16 17
  21208826.558   -33556138.88046 -26109156.07348  21208826.2054   21208831.4864
       196.000
  23192223.276   -20990974.23146 -16342484.34148  23192223.1974   23192228.8454
       161.000
  20101059.752   -34331214.49546 -26465330.72148  20101059.6964   20101065.0314
       214.000
  20578757.947   -32179019.39446 -25055300.92848  20578757.9624   20578762.5904
       210.000
  20618598.783   -30999667.12046 -23485872.12848  20618598.4314   20618603.9364
       208.000
  22576996.577   -15721790.09846 -11386907.46548  22576996.1214   22577002.1444
       170.000
 96  4 20  1 19 59.9980000  0  6 05 24 20 06 16 17
  21221269.358   -33490751.48846 -26058204.88148  21221269.0014   21221274.3104
       195.000
  23203587.881   -20931252.56046 -16295947.99447  23203587.8314   23203593.5374
       160.000
  20103829.873   -34316657.53846 -26453987.65248  20103829.8084   20103835.1534
       214.000
  20565960.431   -32246270.68946 -25107704.53248  20565960.4524   20565965.0964
       211.000
  20618382.956   -31000801.19746 -23486755.82148  20618382.6114   20618388.1314
       208.000
  22559225.124   -15815179.50246 -11459678.39448  22559224.6544   22559230.6634
       171.000
 96  4 20  1 20 29.9980000  0  6 05 24 20 06 16 17
  21233779.160   -33425012.15746 -26006979.46748  21233778.7814   21233784.1144
       195.000
  23214948.835   -20871550.52646 -16249426.95447  23214948.8554   23214954.5054
       160.000
  20106700.219   -34301573.72646 -26442234.03648  20106700.1514   20106705.5174
       214.000
  20553197.877   -32313338.46646 -25159965.13748  20553197.9074   20553202.5174
       211.000
  20618278.167   -31001351.82146 -23487184.87848  20618277.8234   20618283.3414
       208.000
  22541493.146   -15908361.58946 -11532287.78048  22541492.7004   22541498.6424
       171.000
 96  4 20  1 20 59.9980000  0  6 05 24 20 06 16 17
  21246358.754   -33358906.12846 -25955468.31148  21246358.3724   21246363.6984
       194.000
  23226303.594   -20811881.11346 -16202931.33348  23226303.6144   23226309.3264
       161.000
  20109675.950   -34285936.24246 -26430048.99048  20109675.8714   20109681.2344
       214.000
  20540469.856   -32380224.60546 -25212084.20148  20540469.8994   20540474.5224
       211.000
  20618286.360   -31001308.92046 -23487151.44648  20618286.0184   20618291.5094
       208.000
  22523800.228   -16001338.19446 -11604737.04548  22523799.7684   22523805.7844
       172.000
 96  4 20  1 21 29.9980000  0  6 05 24 20 06 16 17
  21259011.710   -33292414.68746 -25903656.82648  21259011.3134   21259016.6424
       194.000
  23237651.422   -20752247.96946 -16156463.97148  23237651.3994   23237657.1144
       161.000
  20112763.037   -34269713.63846 -26417408.01448  20112762.9544   20112768.3224
       214.000
  20527779.083   -32446915.24046 -25264050.92248  20527779.1044   20527783.7164
       211.000
  20618411.888   -31000649.19646 -23486637.37348  20618411.5414   20618417.0314
       208.000
  22506151.195   -16094084.40246 -11677006.78448  22506150.7564   22506156.7724
       173.000
 96  4 20  1 21 59.9980000  0  6 05 24 20 06 16 17
  21271734.170   -33225557.85846 -25851560.63048  21271733.7754   21271739.0904
       193.000
  23248992.921   -20692648.04346 -16110022.50748  23248992.8974   23248998.6614
       161.000
  20115962.190   -34252902.01346 -26404308.06748  20115962.1094   20115967.4744
       214.000
  20515124.736   -32513414.43546 -25315868.47348  20515124.7454   20515129.3564
       211.000
  20618652.877   -30999382.93846 -23485650.67948  20618652.5344   20618658.0084
       208.000
  22488547.015   -16186594.80446 -11749092.76648  22488546.5734   22488552.6454
       173.000
 96  4 20  1 22 29.9980000  0  6 05 24 20 06 16 17
  21284522.882   -33158352.94446 -25799193.19848  21284522.4914   21284527.7864
       193.000
  23260328.638   -20633078.38346 -16063604.61248  23260328.5994   23260334.3494
       162.000
  20119277.107   -34235481.96646 -26390734.03048  20119277.0344   20119282.4054
       214.000
  20502504.613   -32579733.46446 -25367545.63548  20502504.6214   20502509.2534
       211.000
  20619007.680   -30997518.41146 -23484197.80248  20619007.3484   20619012.7934
       208.000
  22470987.707   -16278869.21446 -11820994.86648  22470987.2794   22470993.3844
       173.000
 96  4 20  1 22 59.9980000  0  6 05 24 20 06 16 17
  21297371.939   -33090830.91346 -25746578.65648  21297371.5464   21297376.8324
       193.000
  23271660.133   -20573531.20146 -16017204.23048  23271660.0954   23271665.8594
       162.000
  20122705.468   -34217465.77846 -26376695.46448  20122705.3914   20122710.7644
       214.000
  20489915.536   -32645889.44546 -25419095.74248  20489915.5474   20489920.1854
       212.000
  20619475.389   -30995060.69546 -23482282.69448  20619475.0444   20619480.5024
       208.000
  22453470.649   -16370921.81146 -11892724.12448  22453470.2164   22453476.3584
       173.000
 96  4 20  1 23 29.9980000  0  6 05 24 20 06 16 17
  21310281.205   -33022992.38046 -25693717.49448  21310280.8194   21310286.0724
       193.000
  23282991.677   -20513983.45046 -15970803.41648  23282991.6704   23282997.4304
       162.000
  20126245.136   -34198864.83246 -26362201.23348  20126245.0604   20126250.4414
       214.000
  20477364.478   -32711845.54946 -25470490.10748  20477364.5164   20477369.1464
       212.000
  20620055.396   -30992012.54546 -23479907.51548  20620055.0534   20620060.4994
       208.000
  22435998.053   -16462740.63346 -11964271.21648  22435997.6324   22436003.7504
       174.000
 96  4 20  1 23 59.9980000  0  6 05 24 20 06 16 17
  21323253.495   -32954822.58446 -25640598.20748  21323253.1094   21323258.3774
       192.000
  23294329.137   -20454405.15946 -15924378.79448  23294329.0714   23294334.8284
       162.000
  20129893.676   -34179691.73546 -26347261.16648  20129893.5954   20129898.9584
       214.000
  20464854.171   -32777587.81346 -25521717.83948  20464854.1964   20464858.8454
       212.000
  20620747.998   -30988372.98646 -23477071.49548  20620747.6634   20620753.1184
       208.000
  22418569.280   -16554329.29946 -12035638.98548  22418568.8584   22418574.9464
       174.000
 96  4 20  1 24 29.9980000  0  6 05 24 20 06 16 17
  21336289.506   -32886318.05446 -25587218.08248  21336289.1244   21336294.3934
       192.000
  23305671.906   -20394798.72446 -15877932.24248  23305671.8794   23305677.6584
       161.000
  20133646.281   -34159971.88446 -26331895.06648  20133646.1874   20133651.5394
       214.000
  20452381.052   -32843134.43946 -25572793.12548  20452381.0614   20452385.7084
       212.000
  20621553.483   -30984140.07346 -23473773.12048  20621553.1364   20621558.5824
       208.000
  22401185.091   -16645683.57346 -12106824.09148  22401184.6724   22401190.7924
       175.000
 96  4 20  1 24 59.9980000  0  6 05 24 20 06 16 17
  21349389.352   -32817478.03246 -25533576.54548  21349388.9854   21349394.2234
       192.000
  23317018.610   -20335171.51946 -15831469.50848  23317018.5844   23317024.3174
       161.000
  20137500.083   -34139720.02046 -26316114.41248  20137499.9994   20137505.3274
       214.000
  20439943.995   -32908491.53746 -25623720.72348  20439944.0214   20439948.6504
       212.000
  20622468.145   -30979333.51946 -23470027.75248  20622467.8034   20622473.2444
       208.000
  22383846.006   -16736801.06546 -12177824.69748  22383845.5764   22383851.6674
       175.000
 96  4 20  1 25 29.9980000  0  6 05 24 20 06 16 17
  21362552.810   -32748303.87846 -25479674.63748  21362552.4434   21362557.6724
       192.000
  23328363.744   -20275552.54946 -15785013.18848  23328363.7194   23328369.4284
       161.000
  20141452.883   -34118948.14146 -26299928.54548  20141452.7824   20141458.1394
       213.000
  20427539.925   -32973675.45346 -25674513.37848  20427539.9384   20427544.5794
       212.000
  20623487.677   -30973975.78246 -23465852.89148  20623487.3374   20623492.7614
       208.000
  22366550.554   -16827689.21546 -12248646.59348  22366550.1404   22366556.2084
       175.000
 96  4 20  1 25 59.9980000  0  6 05 24 20 06 16 17
  21375780.595   -32678791.63046 -25425509.28448  21375780.2054   21375785.4724
       192.000
  23339706.044   -20215948.29146 -15738568.33847  23339706.0484   23339711.7674
       160.000
  20145507.330   -34097641.84446 -26283326.25648  20145507.2364   20145512.5954
       213.000
  20415165.160   -33038705.25346 -25725185.94348  20415165.1754   20415169.8284
       212.000
  20624613.770   -30968058.24346 -23461241.82048  20624613.4274   20624618.8524
       208.000
  22349299.475   -16918344.19446 -12319286.79548  22349299.0524   22349305.0934
       176.000
 96  4 20  1 26 29.9980000  0  6 05 24 20 06 16 17
  21389070.672   -32608951.87446 -25371088.72248  21389070.2854   21389075.5874
       192.000
  23351044.359   -20156364.88146 -15692139.73447  23351044.3094   23351050.0814
       159.000
  20149665.376   -34075791.13946 -26266299.75148  20149665.2874   20149670.6524
       213.000
  20402822.684   -33103565.26246 -25775726.20348  20402822.7004   20402827.3744
       212.000
  20625844.385   -30961591.20346 -23456202.56748  20625844.0354   20625849.4494
       208.000
  22332094.681   -17008755.85246 -12389737.39248  22332094.2534   22332100.3064
       176.000
 96  4 20  1 26 59.9980000  0  6 05 24 20 06 16 17
  21402417.766   -32538812.65046 -25316434.82148  21402417.3754   21402422.6814
       192.000
  23362374.760   -20096823.05846 -15645743.52447  23362374.7454   23362380.5344
       159.000
  20153927.237   -34053395.08346 -26248848.29548  20153927.1274   20153932.5204
       213.000
  20390515.730   -33168238.60946 -25826121.01748  20390515.7604   20390520.4314
       212.000
  20627175.747   -30954594.75346 -23450750.78648  20627175.4144   20627180.8234
       208.000
  22314928.712   -17098963.35646 -12460028.92148  22314928.2674   22314934.3324
       176.000
 96  4 20  1 27 29.9980000  0  6 05 24 20 06 16 17
  21415819.547   -32468385.94046 -25261556.88748  21415819.1774   21415824.4704
       191.000
  23373695.913   -20037330.13946 -15599385.42247  23373695.9174   23373701.6904
       159.000
  20158291.537   -34030460.46546 -26230977.18348  20158291.4354   20158296.8284
       213.000
  20378247.121   -33232710.50346 -25876358.85648  20378247.1434   20378251.8074
       213.000
  20628610.643   -30947054.38046 -23444875.17348  20628610.3104   20628615.7064
       208.000
  22297798.291   -17188984.23146 -12530175.01548  22297797.8664   22297803.8984
       176.000
 96  4 20  1 27 59.9980000  0  6 05 24 20 06 16 17
  21429277.834   -32397662.38046 -25206447.64448  21429277.4504   21429282.7814
       191.000
  23385012.959   -19977859.12046 -15553044.38847  23385012.8934   23385018.7424
       158.000
  20162760.246   -34006977.30346 -26212678.62548  20162760.1424   20162765.5604
       213.000
  20366021.004   -33296959.15346 -25926422.72948  20366021.0174   20366025.7024
       213.000
  20630151.820   -30938955.27546 -23438564.18148  20630151.4734   20630156.8714
       208.000
  22280707.326   -17278797.63146 -12600159.45248  22280706.8984   22280712.9394
       176.000
 96  4 20  1 28 29.9980000  0  6 05 24 20 06 16 17
  21442793.584   -32326636.57546 -25151102.89248  21442793.2134   21442798.5654
       191.000
  23396327.330   -19918401.96846 -15506714.16747  23396327.2304   23396333.0564
       157.000
  20167333.641   -33982943.85946 -26193951.28148  20167333.5364   20167338.9454
       213.000
  20353840.768   -33360966.72946 -25976298.75548  20353840.7994   20353845.4614
       213.000
  20631803.410   -30930276.19246 -23431801.25648  20631803.0604   20631808.4554
       208.000
  22263658.435   -17368389.99746 -12669971.63748  22263658.0204   22263664.0234
       177.000
 96  4 20  1 28 59.9980000  0  6 05 24 20 06 16 17
  21456364.770   -32255319.52646 -25095531.19448  21456364.3984   21456369.7714
       190.000
  23407631.098   -19859000.09146 -15460427.01247  23407631.0054   23407636.7994
       156.000
  20172007.376   -33958383.43846 -26174813.30248  20172007.2604   20172012.6614
       213.000
  20341698.311   -33424775.56546 -26026019.91948  20341698.3554   20341703.0214
       213.000
  20633562.562   -30921031.78046 -23424597.81748  20633562.2224   20633567.5804
       208.000
  22246645.693   -17457792.51146 -12739635.89248  22246645.2684   22246651.2614
       177.000
 96  4 20  1 29 29.9980000  0  6 05 24 20 06 16 17
  21469995.365   -32183690.44446 -25039716.36848  21469995.0024   21470000.3674
       190.000
  23418926.073   -19799644.31046 -15414175.77447  23418926.0344   23418931.9184
       154.000
  20176781.608   -33933294.76646 -26155263.69948  20176781.5054   20176786.8954
       213.000
  20329590.558   -33488402.29046 -26075599.18348  20329590.5874   20329595.2694
       213.000
  20635429.776   -30911219.50146 -23416951.88348  20635429.4404   20635434.7944
       208.000
  22229674.103   -17546978.66746 -12809131.55948  22229673.6674   22229679.6554
       177.000
 96  4 20  1 29 59.9980000  0  6 05 24 20 06 16 17
  21483686.754   -32111741.66846 -24983652.42948  21483686.4134   21483691.7934
       189.000
  23430214.601   -19740322.37846 -15367950.91647  23430214.6004   23430220.4614
       154.000
  20181660.216   -33907657.50246 -26135286.62648  20181660.1174   20181665.5144
       213.000
  20317516.008   -33551854.43646 -26125042.40648  20317516.0364   20317520.6944
       213.000
  20637405.367   -30900837.65246 -23408862.12948  20637405.0224   20637410.3794
       208.000
  22212747.436   -17635928.83746 -12878443.33648  22212747.0154   22212752.9844
       178.000
 96  4 20  1 30 29.9980000  0  6 05 24 20 06 16 17
  21497438.609   -32039475.19146 -24927340.92548  21497438.2334   21497443.6814
       189.000
  23441494.388   -19681046.89546 -15321762.24947  23441494.3814   23441500.2274
       154.000
  20186645.545   -33881459.62146 -26114872.71348  20186645.4364   20186650.8364
       213.000
  20305475.382   -33615128.35546 -26174346.75148  20305475.4024   20305480.0764
       213.000
  20639490.359   -30889881.00046 -23400324.48048  20639490.0184   20639495.3514
       208.000
  22195864.059   -17724651.57246 -12947577.90748  22195863.6244   22195869.5434
       178.000
 96  4 20  1 30 59.9980000  0  6 05 24 20 06 16 17
  21511250.382   -31966893.92446 -24870784.13548  21511250.0414   21511255.4814
       188.000
  23452766.074   -19621814.18346 -15275606.90747  23452766.0884   23452771.8784
       153.000
  20191737.700   -33854700.15646 -26094021.20448  20191737.5814   20191742.9884
       213.000
  20293470.187   -33678216.03146 -26223505.98048  20293470.2134   20293474.8964
       213.000
  20641681.444   -30878366.63146 -23391352.24548  20641681.1114   20641686.4404
       207.000
  22179023.480   -17813149.20546 -13016537.07048  22179023.0524   22179028.9464
       179.000
 96  4 20  1 31 29.9980000  0  6 05 24 20 06 16 17
  21525117.835   -31894020.03646 -24813999.33048  21525117.4714   21525122.9644
       188.000
  23464034.227   -19562599.64246 -15229465.71747  23464034.2474   23464039.9774
       153.000
  20196936.522   -33827380.22046 -26072732.95448  20196936.4124   20196941.8064
       213.000
  20281502.988   -33741103.91746 -26272509.51548  20281503.0184   20281507.6964
       213.000
  20643980.565   -30866284.63346 -23381937.70148  20643980.2204   20643985.5524
       207.000
  22162227.835   -17901410.66846 -13085312.19548  22162227.4094   22162233.3094
       179.000
 96  4 20  1 31 59.9980000  0  6 05 24 20 06 16 17
  21539039.341   -31820862.23246 -24756993.29148  21539038.9544   21539044.4584
       187.000
  23475300.526   -19503395.05246 -15183332.29847  23475300.3984   23475306.2014
       153.000
  20202241.128   -33799504.38946 -26051011.54048  20202241.0194   20202246.4154
       213.000
  20269578.169   -33803769.37746 -26321339.73548  20269578.1934   20269582.8654
       213.000
  20646389.885   -30853623.57546 -23372071.94248  20646389.5624   20646394.8874
       207.000
  22145478.372   -17989429.57846 -13153898.32348  22145477.9454   22145483.8174
       179.000
 96  4 20  1 32 29.9980000  0  6 05 24 20 06 16 17
  21553013.547   -31747427.30446 -24699771.29748  21553013.1694   21553018.6954
       186.000
  23486565.234   -19444198.61746 -15137205.22447  23486565.0604   23486570.9094
       153.000
  20207646.151   -33771100.96146 -26028879.01948  20207646.0484   20207651.4434
       213.000
  20257696.516   -33866207.79546 -26369993.04348  20257696.5294   20257701.1874
       213.000
  20648907.981   -30840390.90646 -23361760.77148  20648907.6594   20648912.9574
       207.000
  22128773.112   -18077216.22946 -13222303.46848  22128772.6704   22128778.6124
       179.000
 96  4 20  1 32 59.9980000  0  6 05 24 20 06 16 17
  21567041.577   -31673709.53046 -24642328.90248  21567041.2184   21567046.7284
       185.000
  23497831.803   -19384992.56246 -15091070.65647  23497831.6594   23497837.4854
       153.000
  20213149.958   -33742178.19746 -26006341.82148  20213149.8684   20213155.2674
       212.000
  20245859.686   -33928410.50246 -26418462.68048  20245859.7134   20245864.3724
       213.000
  20651536.058   -30826580.27546 -23350999.24148  20651535.7294   20651541.0254
       207.000
  22112112.772   -18164766.56546 -13290524.47548  22112112.3534   22112118.2744
       179.000
 96  4 20  1 33 29.9980000  0  6 05 24 20 06 16 17
  21581121.445   -31599719.49446 -24584674.36148  21581121.0814   21581126.5974
       185.000
  23509097.917   -19325789.01146 -15044938.03447  23509097.8204   23509103.5914
       153.000
  20218749.197   -33712754.08246 -25983413.96048  20218749.0914   20218754.5014
       212.000
  20234065.959   -33990387.03346 -26466756.07148  20234065.9884   20234070.6424
       214.000
  20654272.224   -30812201.78846 -23339795.22548  20654271.8754   20654277.1984
       207.000
  22095493.641   -18252100.59946 -13358576.93248  22095493.2584   22095499.1224
       179.000
 96  4 20  1 33 59.9980000  0  6 05 24 20 06 16 17
  21595254.755   -31525448.54046 -24526800.92248  21595254.3664   21595259.9004
       184.000
  23520356.916   -19266622.70046 -14998834.42347  23520356.7964   23520362.5684
       153.000
  20224440.970   -33682843.71546 -25960107.19648  20224440.8614   20224446.2674
       212.000
  20222313.295   -34052147.60046 -26514881.18348  20222313.3344   20222317.9614
       214.000
  20657110.568   -30797286.13146 -23328172.63648  20657110.2204   20657115.5494
       207.000
  22078911.311   -18339241.37446 -13426478.78948  22078910.8484   22078916.7374
       180.000
 96  4 20  1 34 29.9970000  0  6 05 24 20 06 16 17
  21609443.553   -31450885.94346 -24468700.24548  21609443.1544   21609448.7334
       183.000
  23531607.589   -19207500.08746 -14952764.87947  23531607.4774   23531613.2784
       154.000
  20230228.441   -33652430.47846 -25936408.57448  20230228.3344   20230233.7464
       212.000
  20210603.506   -34113683.01446 -26562830.84948  20210603.5404   20210608.1794
       214.000
  20660050.063   -30781838.95446 -23316135.87348  20660049.7254   20660055.0374
       207.000
  22062365.517   -18426189.86446 -13494230.82948  22062365.0924   22062370.9064
       180.000
 96  4 20  1 34 59.9970000  0  7 05 23 24 20 06 16 17
  21623687.703   -31376032.62046 -24410373.01848  21623687.2934   21623692.8634
       183.000
  24084422.516    -5639072.74556  -4068239.24757  24084422.3024   24084430.5134
       139.000
  23542847.840   -19148432.12846 -14906737.91047  23542847.6974   23542853.5604
       154.000
  20236113.991   -33621501.68146 -25912308.22348  20236113.8904   20236119.2984
       212.000
  20198934.375   -34175004.87346 -26610614.11348  20198934.3994   20198939.0404
       214.000
  20663085.530   -30765887.41146 -23303706.10248  20663085.1844   20663090.5164
       207.000
  22045855.403   -18512951.10646 -13561836.94348  22045854.9424   22045860.7574
       180.000
 96  4 20  1 35 29.9970000  0  7 05 23 24 20 06 16 17
  21637990.856   -31300869.21146 -24351804.15748  21637990.4614   21637995.9994
       183.000
  24060344.906    -5765600.34246  -4166831.96047  24060344.5804   24060352.7814
       140.000
  23554081.073   -19089400.89146 -14860739.56347  23554080.9694   23554086.9094
       155.000
  20242104.062   -33590023.75346 -25887779.98348  20242103.9434   20242109.3684
       212.000
  20187309.051   -34236096.34346 -26658217.85048  20187309.0774   20187313.6944
       214.000
  20666219.565   -30749417.74046 -23290872.59148  20666219.2344   20666224.5724
       207.000
  22029389.290   -18599481.08446 -13629262.85748  22029388.8514   22029394.6134
       181.000
 96  4 20  1 35 59.9970000  0  7 05 23 24 20 06 16 17
  21652353.531   -31225392.86146 -24292991.45148  21652353.1184   21652358.6684
       183.000
  24036276.602    -5892079.16046  -4265386.66747  24036276.4224   24036284.4844
       142.000
  23565309.466   -19030395.33246 -14814761.22347  23565309.3964   23565315.2854
       156.000
  20248201.276   -33557982.54546 -25862812.82548  20248201.1724   20248206.6164
       211.000
  20175726.820   -34296961.22846 -26705645.02948  20175726.8654   20175731.4914
       214.000
  20669455.360   -30732413.54146 -23277622.56548  20669455.0244   20669460.3794
       207.000
  22012970.763   -18685760.86746 -13696493.81848  22012970.3084   22012976.0764
       181.000
 96  4 20  1 36 29.9970000  0  7 05 23 24 20 06 16 17
  21666767.130   -31149649.14246 -24233970.41748  21666766.7294   21666772.2764
       182.000
  24012218.077    -6018506.49246  -4363901.26847  24012217.8584   24012225.9314
       142.000
  23576532.763   -18971416.42846 -14768803.64947  23576532.6664   23576538.6254
       155.000
  20254403.218   -33525391.10946 -25837416.91848  20254403.1094   20254408.5524
       211.000
  20164184.389   -34357617.11646 -26752909.35048  20164184.4164   20164189.0444
       214.000
  20672792.676   -30714875.85546 -23263956.83648  20672792.3544   20672797.6974
       207.000
  21996598.809   -18771795.93446 -13763534.09948  21996598.3624   21996604.0944
       181.000
 96  4 20  1 36 59.9970000  0  7 05 23 24 20 06 16 17
  21681231.695   -31073637.45346 -24174740.55648  21681231.3264   21681236.8594
       183.000
  23988176.896    -6144842.88046  -4462345.01347  23988176.6414   23988184.7554
       142.000
  23587754.667   -18912445.13646 -14722852.00947  23587754.5574   23587760.6064
       156.000
  20260711.348   -33492241.70246 -25811586.22548  20260711.2514   20260716.7004
       211.000
  20152683.827   -34418053.01746 -26800002.24948  20152683.8474   20152688.4574
       215.000
  20676239.951   -30696760.40246 -23249840.89748  20676239.6274   20676244.9854
       207.000
  21980279.356   -18857554.93746 -13830359.26648  21980278.9404   21980284.6914
       181.000
 96  4 20  1 37 29.9970000  0  7 05 23 24 20 06 16 17
  21695738.151   -30997405.64146 -24115339.18748  21695737.7934   21695743.3244
       183.000
  23964146.364    -6271123.46246  -4560745.28847  23964145.9884   23964154.0644
       142.000
  23598967.390   -18853522.12446 -14676937.98847  23598967.2754   23598973.3224
       156.000
  20267115.340   -33458588.56146 -25785363.01648  20267115.2384   20267120.7074
       211.000
  20141220.486   -34478293.26346 -26846942.70348  20141220.5034   20141225.1104
       215.000
  20679797.580   -30678065.03146 -23235273.07448  20679797.2444   20679802.5974
       207.000
  21964004.892   -18943077.53346 -13897000.21948  21964004.4764   21964010.2364
       181.000
 96  4 20  1 37 59.9970000  0  7 05 23 24 20 06 16 17
  21710287.509   -30920948.38046 -24055762.12648  21710287.1614   21710292.7014
       183.000
  23940130.111    -6397328.74846  -4659086.90647  23940129.7344   23940137.8034
       143.000
  23610173.258   -18794635.12246 -14631052.02547  23610173.1664   23610179.2354
       156.000
  20273615.128   -33424431.92746 -25758747.47148  20273615.0384   20273620.5054
       210.000
  20129801.457   -34538300.75146 -26893701.77548  20129801.4784   20129806.0674
       215.000
  20683469.730   -30658767.82746 -23220236.29048  20683469.3824   20683474.7434
       206.000
  21947776.719   -19028356.93346 -13963451.66648  21947776.2914   21947782.0364
       181.000
 96  4 20  1 38 29.9970000  0  7 05 23 24 20 06 16 17
  21724878.216   -30844273.90846 -23996015.81948  21724877.8604   21724883.4244
       183.000
  23916126.667    -6523467.21546  -4757376.45747  23916126.2714   23916134.2644
       143.000
  23621367.879   -18735807.32246 -14585212.19347  23621367.7284   23621373.8304
       156.000
  20280206.694   -33389793.15046 -25731756.23648  20280206.5954   20280212.0964
       210.000
  20118427.334   -34598072.22646 -26940276.94348  20118427.3534   20118431.9604
       215.000
  20687250.562   -30638899.47246 -23204754.45748  20687250.2154   20687255.5724
       206.000
  21931592.997   -19113402.78246 -14029721.12148  21931592.5844   21931598.3204
       181.000
 96  4 20  1 38 59.9970000  0  7 05 23 24 20 06 16 17
  21739515.927   -30767352.38746 -23936077.00448  21739515.5674   21739521.1794
       183.000
  23892134.947    -6649543.99346  -4855617.97047  23892134.5204   23892142.3544
       143.000
  23632551.566   -18677036.77746 -14539416.97547  23632551.4354   23632557.4954
       156.000
  20286888.750   -33354678.77546 -25704394.40048  20286888.6494   20286894.1664
       210.000
  20107100.090   -34657597.27846 -26986660.09448  20107100.1044   20107104.7274
       215.000
  20691136.250   -30618479.96246 -23188843.15348  20691135.9054   20691141.2594
       206.000
  21915453.887   -19198214.25346 -14095807.94748  21915453.4184   21915459.1964
       181.000
 96  4 20  1 39 29.9970000  0  7 05 23 24 20 06 16 17
  21754204.257   -30690164.84846 -23875930.89248  21754203.8984   21754209.5204
       183.000
  23868152.634    -6775571.54946  -4953821.13347  23868152.1524   23868159.8074
       144.000
  23643726.084   -18618314.11946 -14493659.07647  23643725.9704   23643732.0464
       156.000
  20293662.536   -33319082.23646 -25676656.84748  20293662.4504   20293667.9714
       210.000
  20095821.606   -34716866.07946 -27032843.57648  20095821.6324   20095826.2254
       215.000
  20695120.975   -30597540.12846 -23172526.39848  20695120.6164   20695125.9924
       206.000
  21899356.623   -19282805.58346 -14161723.24048  21899356.1714   21899361.9204
       181.000
 96  4 20  1 39 59.9970000  0  7 05 23 24 20 06 16 17
  21768948.101   -30612685.47446 -23815557.38648  21768947.7414   21768953.3694
       183.000
  23844179.610    -6901550.13446  -5051986.14747  23844179.2384   23844186.8404
       145.000
  23654894.049   -18559625.90546 -14447928.00947  23654894.0074   23654900.0424
       155.000
  20300533.235   -33282976.33446 -25648522.39848  20300533.1334   20300538.6714
       209.000
  20084592.100   -34775877.53146 -27078826.52148  20084592.1164   20084596.7044
       215.000
  20699199.954   -30576104.92446 -23155823.64648  20699199.6124   20699204.9854
       206.000
  21883301.991   -19367172.99946 -14227464.06148  21883301.5864   21883307.3124
       182.000
 96  4 20  1 40 29.9970000  0  7 05 23 24 20 06 16 17
  21783744.682   -30534928.99646 -23754967.94548  21783744.3384   21783749.9564
       182.000
  23820211.033    -7027505.24746  -5150132.87847  23820210.6214   23820218.1464
       145.000
  23666051.642   -18500992.54946 -14402239.69547  23666051.5444   23666057.6844
       155.000
  20307498.313   -33246374.65446 -25620001.62048  20307498.2214   20307503.7354
       209.000
  20073404.194   -34834670.38446 -27124639.12648  20073404.2024   20073408.7854
       215.000
  20703367.281   -30554205.36146 -23138759.04948  20703366.9374   20703372.3264
       206.000
  21867286.755   -19451333.59546 -14293043.71348  21867286.3334   21867292.0504
       182.000
 96  4 20  1 40 59.9970000  0  7 05 23 24 20 06 16 17
  21798597.175   -30456878.74146 -23694149.58248  21798596.8354   21798602.4414
       182.000
  23796254.132    -7153398.97546  -5248231.78347  23796253.7074   23796261.1754
       146.000
  23677206.045   -18442375.63946 -14356564.18547  23677205.9724   23677212.2024
       154.000
  20314564.249   -33209243.15146 -25591067.99748  20314564.1504   20314569.6514
       209.000
  20062262.209   -34893221.87746 -27170263.66648  20062262.2154   20062266.8064
       215.000
  20707632.616   -30531790.84346 -23121293.19348  20707632.2654   20707637.6614
       206.000
  21851314.910   -19535266.19246 -14358445.71248  21851314.4704   21851320.1984
       182.000
 96  4 20  1 41 29.9970000  0  7 05 23 24 20 06 16 17
  21813498.519   -30378571.85246 -23633131.25148  21813498.1504   21813503.7764
       181.000
  23772309.016    -7279230.84146  -5346282.47747  23772308.5844   23772316.0364
       146.000
  23688353.791   -18383793.54946 -14310915.81947  23688353.7944   23688359.9334
       152.000
  20321729.025   -33171592.18446 -25561729.59848  20321728.9204   20321734.4034
       210.000
  20051162.764   -34951549.65746 -27215713.88348  20051162.7894   20051167.3594
       215.000
  20711997.268   -30508854.47946 -23103420.70348  20711996.9134   20712002.3604
       206.000
  21835385.337   -19618976.57646 -14423674.54548  21835384.8784   21835390.6434
       182.000
 96  4 20  1 41 59.9970000  0  8 05 26 23 24 20 06 16 17
  21828444.018   -30300032.88346 -23571932.07648  21828443.6334   21828449.2504
       180.000
  23844357.870    -3981864.47146  -2860612.79747  23844357.9154   23844364.6284
       138.000
  23748378.309    -7404986.88046  -5444274.09247  23748377.9404   23748385.3984
       146.000
  23699494.273   -18325249.80246 -14265297.32747  23699494.2414   23699500.5074
       151.000
  20328989.349   -33133439.01846 -25531999.87748  20328989.2444   20328994.7084
       210.000
  20040105.711   -35009654.99846 -27260990.76548  20040105.7444   20040110.3054
       216.000
  20716462.497   -30485389.55846 -23085136.34848  20716462.1424   20716467.5934
       206.000
  21819500.848   -19702450.06646 -14488718.79148  21819500.3844   21819506.1434
       182.000
 96  4 20  1 42 29.9970000  0  8 05 26 23 24 20 06 16 17
  21843434.086   -30221259.59546 -23510550.31548  21843433.7154   21843439.3444
       180.000
  23825728.332    -4079762.52446  -2936896.93447  23825728.4624   23825735.1784
       138.000
  23724469.090    -7530630.38446  -5542178.03147  23724468.6224   23724476.1304
       146.000
  23710633.404   -18266713.11146 -14219684.33147  23710633.3904   23710639.6474
       149.000
  20336346.430   -33094777.38046 -25501873.94448  20336346.3404   20336351.7924
       210.000
  20029096.652   -35067507.99846 -27306071.01548  20029096.6854   20029101.2364
       216.000
  20721035.603   -30461357.55646 -23066410.11348  20721035.2664   20721040.7294
       205.000
  21803667.243   -19785655.81246 -14553554.40348  21803666.7664   21803672.5294
       183.000
 96  4 20  1 42 59.9970000  0  8 05 26 23 24 20 06 16 17
  21858461.735   -30142288.85546 -23449014.69648  21858461.3514   21858466.9954
       179.000
  23807095.454    -4177678.69546  -3013195.18547  23807095.6114   23807102.1724
       139.000
  23700574.632    -7656196.25846  -5640021.46947  23700574.1144   23700581.5564
       146.000
  23721765.835   -18208211.77446 -14174098.89947  23721765.8034   23721772.2404
       149.000
  20343792.062   -33055650.42046 -25471385.42948  20343791.9564   20343797.4194
       209.000
  20018131.311   -35125131.20846 -27350972.21648  20018131.3364   20018135.8924
       216.000
  20725711.256   -30436786.76946 -23047264.05248  20725710.9194   20725716.4114
       205.000
  21787875.935   -19868639.44246 -14618216.94448  21787875.4584   21787881.2324
       183.000
 96  4 20  1 43 29.9970000  0  8 05 26 23 24 20 06 16 17
  21873530.909   -30063100.03246 -23387309.15248  21873530.5104   21873536.1694
       178.000
  23788461.543    -4275600.25346  -3089497.62947  23788461.6314   23788468.4434
       140.000
  23676694.270    -7781687.66846  -5737806.87847  23676693.8664   23676701.1844
       147.000
  23732894.937   -18149728.39946 -14128527.44447  23732894.7594   23732901.2134
       149.000
  20351329.179   -33016042.61546 -25440522.22548  20351329.0784   20351334.5454
       209.000
  20007214.098   -35182501.41046 -27395676.26248  20007214.1244   20007218.6864
       216.000
  20730488.832   -30411680.40246 -23027700.64648  20730488.4814   20730493.9844
       205.000
  21772129.144   -19951389.26746 -14682697.30048  21772128.6694   21772134.4244
       183.000
 96  4 20  1 43 59.9970000  0  8 05 26 23 24 20 06 16 17
  21888643.494   -29983682.84446 -23325425.66148  21888643.0884   21888648.7704
       177.000
  23769827.158    -4373524.12346  -3165801.86747  23769827.2724   23769834.1134
       141.000
  23652826.343    -7907114.43146  -5835541.92347  23652825.8604   23652833.2144
       147.000
  23744022.373   -18091253.29546 -14082962.44247  23744022.1654   23744028.6144
       147.000
  20358958.926   -32975948.33846 -25409279.94448  20358958.8364   20358964.3044
       209.000
  19996346.382   -35239611.58646 -27440177.69848  19996346.4084   19996350.9744
       216.000
  20735367.691   -30386041.84746 -23007722.54948  20735367.3644   20735372.8604
       205.000
  21756423.561   -20033922.45646 -14747008.84048  21756423.0824   21756428.8794
       184.000
 96  4 20  1 44 29.9970000  0  8 05 26 23 24 20 06 16 17
  21903795.413   -29904059.13346 -23263381.24548  21903795.0084   21903800.6914
       176.000
  23751188.411    -4471471.13946  -3242124.16147  23751188.4344   23751195.3294
       141.000
  23628964.603    -8032508.26746  -5933251.31647  23628964.2384   23628971.5274
       147.000
  23755141.245   -18032822.78046 -14037432.17247  23755141.2074   23755147.5104
       146.000
  20366677.886   -32935384.98846 -25377672.14148  20366677.7824   20366683.2374
       209.000
  19985522.309   -35296492.41546 -27484500.42448  19985522.3514   19985526.8914
       216.000
  20740343.138   -30359895.58446 -22987348.84148  20740342.8194   20740348.2984
       205.000
  21740751.833   -20116277.77346 -14811181.78648  21740751.3714   21740757.1304
       184.000
 96  4 20  1 44 59.9970000  0  8 05 26 23 24 20 06 16 17
  21918989.349   -29824214.40246 -23201164.60948  21918988.9994   21918994.6204
       176.000
  23732547.364    -4569430.63846  -3318456.16947  23732547.4294   23732554.1514
       142.000
  23605114.311    -8157842.00846  -6030913.88347  23605113.9104   23605121.1414
       147.000
  23766250.605   -17974442.69046 -13991941.20747  23766250.5674   23766256.8594
       144.000
  20374489.585   -32894334.29646 -25345684.59548  20374489.4944   20374494.9514
       209.000
  19974744.597   -35353129.69646 -27528633.36148  19974744.6324   19974749.1824
       216.000
  20745416.898   -30333232.94146 -22966572.75548  20745416.5674   20745422.0644
       205.000
  21725115.812   -20198445.55246 -14875208.60248  21725115.3464   21725121.0874
       185.000
 96  4 20  1 45 29.9970000  0  8 05 26 23 24 20 06 16 17
  21934226.039   -29744145.16946 -23138773.03048  21934225.6424   21934231.2894
       175.000
  23713907.230    -4667384.92746  -3394784.11947  23713907.4244   23713913.9434
       143.000
  23581280.707    -8283088.38446  -6128508.36847  23581280.2504   23581287.4884
       148.000
  23777351.466   -17916107.02746 -13946484.84347  23777351.4634   23777357.7804
       143.000
  20382396.738   -32852782.01446 -25313306.20648  20382396.6304   20382402.1114
       209.000
  19964014.432   -35409517.05746 -27572571.55748  19964014.4504   19964019.0034
       216.000
  20750591.656   -30306039.49946 -22945383.05848  20750591.3354   20750596.8254
       205.000
  21709520.259   -20280400.62646 -14939069.66948  21709519.8024   21709525.5394
       185.000
 96  4 20  1 45 59.9970000  0  8 05 26 23 24 20 06 16 17
  21949503.024   -29663864.09946 -23076216.38748  21949502.5954   21949508.3054
       175.000
  23695267.653    -4765336.33846  -3471109.83047  23695267.8174   23695274.3244
       145.000
  23557467.075    -8408229.25746  -6226020.64647  23557466.6554   23557473.9524
       149.000
  23788440.353   -17857834.71846 -13901077.85347  23788440.3754   23788446.6614
       143.000
  20390395.794   -32810746.55646 -25280551.32348  20390395.6934   20390401.1544
       209.000
  19953330.202   -35465663.01646 -27616321.65248  19953330.2274   19953334.7634
       216.000
  20755865.351   -30278326.05746 -22923788.17148  20755865.0144   20755870.5294
       204.000
  21693966.314   -20362137.00646 -15002760.32948  21693965.8804   21693971.5844
       185.000
 96  4 20  1 46 29.9970000  0  8 05 26 23 24 20 06 16 17
  21964823.545   -29583354.32146 -23013481.53048  21964823.1094   21964828.8534
       174.000
  23676632.966    -4863262.55346  -3547415.91647  23676633.2074   23676639.6754
       147.000
  23533678.140    -8533240.60646  -6323432.00047  23533677.7344   23533685.0864
       149.000
  23799517.629   -17799623.32146 -13855718.33247  23799517.6474   23799523.7744
       143.000
  20398488.457   -32768219.39546 -25247413.29348  20398488.3504   20398493.8134
       209.000
  19942696.930   -35521541.26146 -27659863.14048  19942696.9384   19942701.4874
       216.000
  20761239.833   -30250083.00646 -22901780.60048  20761239.4934   20761244.9934
       204.000
  21678460.389   -20443621.15446 -15066254.44348  21678459.9444   21678465.6604
       186.000
 96  4 20  1 46 59.9970000  0  8 05 26 23 24 20 06 16 17
  21980187.351   -29502616.91246 -22950569.29548  21980186.9534   21980192.7024
       174.000
  23658002.697    -4961165.24246  -3623703.65847  23658002.9254   23658009.4634
       148.000
  23509911.498    -8658134.55046  -6420751.86647  23509911.1174   23509918.4314
       149.000
  23810583.285   -17741472.90546 -13810406.31547  23810583.2864   23810589.4404
       143.000
  20406671.047   -32725219.56946 -25213906.95548  20406670.9264   20406676.4214
       209.000
  19932114.201   -35577153.86546 -27703197.63448  19932114.2144   19932118.7764
       216.000
  20766712.005   -30221326.56846 -22879372.98748  20766711.6754   20766717.1624
       204.000
  21663001.388   -20524858.62446 -15129556.36548  21663000.9174   21663006.6514
       186.000
 96  4 20  1 47 29.9970000  0  8 05 26 23 24 20 06 16 17
  21995593.169   -29421658.80346 -22887485.09348  21995592.7684   21995598.5214
       174.000
  23639373.912    -5059060.32946  -3699985.48347  23639374.1424   23639380.5934
       150.000
  23486162.181    -8782938.00746  -6518001.22247  23486161.7984   23486168.9954
       150.000
  23821637.315   -17683383.67846 -13765141.97747  23821637.3534   23821643.4794
       144.000
  20414941.496   -32681758.14446 -25180040.91648  20414941.3904   20414946.8874
       208.000
  19921581.736   -35632502.30746 -27746326.28248  19921581.7464   19921586.2914
       216.000
  20772277.566   -30192079.36346 -22856582.95348  20772277.2324   20772282.6924
       204.000
  21647588.205   -20605855.51946 -15192670.82148  21647587.7274   21647593.4734
       186.000
 96  4 20  1 47 59.9970000  0  8 05 26 23 24 20 06 16 17
  22011043.836   -29340465.17946 -22824217.37248  22011043.4314   22011049.1874
       174.000
  23620749.581    -5156931.68046  -3776248.82247  23620749.9354   23620756.2034
       151.000
  23462431.754    -8907641.91346  -6615173.02047  23462431.3374   23462438.5524
       150.000
  23832682.576   -17625340.63546 -13719913.63847  23832682.6174   23832688.6334
       144.000
  20423300.757   -32637829.92246 -25145811.13948  20423300.6434   20423306.1494
       208.000
  19911106.677   -35687548.92146 -27789219.74248  19911106.6884   19911111.2584
       216.000
  20777937.187   -30162337.86146 -22833407.76448  20777936.8344   20777942.3064
       203.000
  21632221.793   -20686606.43346 -15255593.60048  21632221.3354   21632227.0624
       187.000
 96  4 20  1 48 29.9970000  0  8 05 26 23 24 20 06 16 17
  22026535.089   -29259058.21546 -22760783.40948  22026534.6874   22026540.4224
       174.000
  23602128.425    -5254786.51446  -3852499.28347  23602128.7364   23602135.0304
       152.000
  23438716.922    -9032263.82946  -6712280.91847  23438716.4944   23438723.6214
       150.000
  23843717.559   -17567351.53646 -13674727.33347  23843717.6074   23843723.6414
       145.000
  20431747.358   -32593442.69246 -25111223.69548  20431747.2564   20431752.7514
       208.000
  19900687.505   -35742301.96346 -27831884.43748  19900687.5514   19900692.1034
       216.000
  20783688.636   -30132113.58246 -22809856.37648  20783688.3124   20783693.8094
       203.000
  21616898.879   -20767128.76746 -15318338.26248  21616898.4334   21616904.1554
       187.000
 96  4 20  1 48 59.9970000  0  8 05 26 23 24 20 06 16 17
  22042063.956   -29177453.65546 -22697195.47548  22042063.5574   22042069.3264
       174.000
  23583511.628    -5352618.25246  -3928731.75247  23583511.9254   23583518.1734
       152.000
  23415021.592    -9156783.08446  -6809308.83847  23415021.1194   23415028.3324
       150.000
  23854745.631   -17509398.50546 -13629569.13647  23854745.7634   23854751.8144
       145.000
  20440284.028   -32548582.05446 -25076267.37548  20440283.9364   20440289.4304
       208.000
  19890323.749   -35796763.99746 -27874322.38048  19890323.7764   19890328.3384
       216.000
  20789533.186   -30101400.15146 -22785923.83448  20789532.8464   20789538.3384
       203.000
  21601620.228   -20847418.55646 -15380901.71848  21601619.7804   21601625.4924
       187.000
 96  4 20  1 49 29.9970000  0  8 05 26 23 24 20 06 16 17
  22057629.627   -29095655.77946 -22633456.90848  22057629.2314   22057634.9654
       174.000
  23564904.477    -5450399.05346  -4004924.53547  23564904.7664   23564911.0434
       152.000
  23391350.804    -9281173.64946  -6906236.47647  23391350.3764   23391357.4824
       150.000
  23865770.801   -17451461.02446 -13584423.05447  23865770.8314   23865776.9134
       146.000
  20448913.806   -32503232.53646 -25040930.12048  20448913.7114   20448919.2034
       207.000
  19880018.894   -35850916.21846 -27916518.90748  19880018.9194   19880023.4854
       216.000
  20795475.002   -30070175.74446 -22761593.13348  20795474.6624   20795480.1234
       203.000
  21586389.127   -20927458.50146 -15443270.48948  21586388.7044   21586394.3824
       187.000
 96  4 20  1 49 59.9970000  0  8 05 26 23 24 20 06 16 17
  22073223.907   -29013707.48246 -22569601.13048  22073223.4954   22073229.2704
       174.000
  23546301.773    -5548156.67046  -4081099.24247  23546302.1244   23546308.3594
       151.000
  23367698.993    -9405464.48546  -7003086.40547  23367698.5994   23367705.6604
       150.000
  23876785.872   -17393576.25846 -13539318.04247  23876785.8754   23876792.0244
       146.000
  20457629.304   -32457432.34346 -25005241.67548  20457629.2084   20457634.6894
       207.000
  19869763.776   -35904807.15346 -27958511.84248  19869763.7894   19869768.3724
       216.000
  20801508.943   -30038467.14046 -22736885.13048  20801508.6154   20801514.0474
       203.000
  21571197.287   -21007292.07646 -15505478.45448  21571196.8514   21571202.5054
       188.000
 96  4 20  1 50 29.9970000  0  8 05 26 23 24 20 06 16 17
  22088847.649   -28931604.30646 -22505624.66648  22088847.2594   22088853.0484
       174.000
  23527704.282    -5645886.98446  -4157252.68847  23527704.6094   23527710.9154
       151.000
  23344067.111    -9529650.33946  -7099854.52947  23344066.8394   23344073.7344
       151.000
  23887790.733   -17335744.95646 -13494254.69247  23887790.8364   23887797.0214
       147.000
  20466433.150   -32411167.82746 -24969191.42248  20466433.0734   20466438.5674
       207.000
  19859555.523   -35958451.87046 -28000312.91548  19859555.5464   19859560.1264
       216.000
  20807636.121   -30006268.62646 -22711795.38248  20807635.7944   20807641.2234
       202.000
  21556047.464   -21086905.03646 -15567514.49948  21556047.0194   21556052.6784
       188.000
 96  4 20  1 50 59.9970000  0  8 05 26 23 24 20 06 16 17
  22104501.851   -28849341.05246 -22441523.47748  22104501.4914   22104507.2654
       174.000
  23509111.162    -5743594.23046  -4233388.15247  23509111.4914   23509117.6794
       150.000
  23320452.982    -9653743.15146  -7196550.14547  23320452.6174   23320459.5624
       150.000
  23898785.221   -17277968.90946 -13449234.38947  23898785.2254   23898791.4174
       148.000
  20475321.924   -32364457.26446 -24932793.60048  20475321.8204   20475327.3264
       206.000
  19849392.510   -36011858.72746 -28041928.63948  19849392.5324   19849397.1184
       216.000
  20813854.412   -29973591.40746 -22686332.61548  20813854.0794   20813859.5124
       202.000
  21540936.178   -21166315.24046 -15629392.55548  21540935.7104   21540941.3874
       188.000
 96  4 20  1 51 29.9970000  0  8 05 26 23 24 20 06 16 17
  22120195.314   -28766871.56646 -22377261.57548  22120194.9374   22120200.7284
       174.000
  23490527.281    -5841252.72046  -4309485.62447  23490527.6474   23490533.7784
       149.000
  23296859.932    -9777725.12846  -7293159.40447  23296859.4804   23296866.4824
       150.000
  23909772.519   -17220230.34746 -13404243.29847  23909772.5194   23909778.6694
       148.000
  20484297.463   -32317290.34346 -24896040.18048  20484297.3464   20484302.8714
       206.000
  19839278.769   -36065006.72246 -28083342.64748  19839278.7934   19839283.3814
       216.000
  20820167.731   -29940414.77046 -22660480.69248  20820167.3984   20820172.8214
       202.000
  21525866.814   -21245505.05846 -15691098.88048  21525866.3634   21525872.0314
       189.000
 96  4 20  1 51 59.9970000  0  8 05 26 23 24 20 06 16 17
  22135929.414   -28684188.29846 -22312833.10848  22135929.0154   22135934.8654
       174.000
  23471950.566    -5938873.85046  -4385553.98947  23471950.8274   23471957.0294
       148.000
  23273287.159    -9901600.62846  -7389685.69247  23273286.6894   23273293.7404
       150.000
  23920749.040   -17162548.82146 -13359296.65847  23920749.0204   23920755.1264
       149.000
  20493358.670   -32269673.55646 -24858936.21248  20493358.5634   20493364.0924
       206.000
  19829212.448   -36117905.63546 -28124562.57348  19829212.4724   19829217.0534
       216.000
  20826572.478   -29906757.44646 -22634254.20948  20826572.1544   20826577.5734
       202.000
  21510838.896   -21324477.21646 -15752635.60348  21510838.4364   21510844.1474
       189.000
 96  4 20  1 52 29.9970000  0  8 05 26 23 24 20 06 16 17
  22151701.089   -28601307.76346 -22248250.90948  22151700.7274   22151706.5544
       173.000
  23453380.812    -6036458.40846  -4461593.85247  23453381.0624   23453387.2684
       147.000
  23249733.933   -10025373.44746  -7486131.95847  23249733.5254   23249740.5894
       150.000
  23931711.860   -17104939.12446 -13314405.97947  23931711.7814   23931717.8924
       149.000
  20502500.730   -32221631.86646 -24821501.14448  20502500.6044   20502506.1554
       206.000
  19819191.528   -36170565.85546 -28165596.50348  19819191.5494   19819196.1324
       216.000
  20833064.417   -29872642.14146 -22607670.85548  20833064.0804   20833069.5114
       202.000
  21495851.365   -21403237.17046 -15814006.97048  21495850.9124   21495856.5994
       189.000
 96  4 20  1 52 59.9970000  0  8 05 26 23 24 20 06 16 17
  22167506.303   -28518250.95146 -22183531.36248  22167505.9354   22167511.7684
       173.000
  23434819.285    -6133999.58246  -4537599.91847  23434819.6024   23434825.7324
       147.000
  23226200.253   -10149043.03846  -7582497.79947  23226199.8574   23226207.0274
       151.000
  23942660.621   -17047403.27046 -13269572.86047  23942660.5814   23942666.6714
       148.000
  20511720.213   -32173183.03046 -24783748.81948  20511720.1024   20511725.6764
       205.000
  19809216.277   -36222985.92146 -28206443.30448  19809216.3154   19809220.8934
       216.000
  20839642.700   -29838073.01046 -22580733.87248  20839642.3664   20839647.7844
       201.000
  21480900.826   -21481802.84146 -15875226.95248  21480900.3524   21480906.0854
       190.000
 96  4 20  1 53 29.9970000  0  8 05 26 23 24 20 06 16 17
  22183348.941   -28434997.48246 -22118658.57148  22183348.5784   22183354.4114
       172.000
  23416274.167    -6231454.66846  -4613538.88747  23416274.4604   23416280.6014
       147.000
  23202694.471   -10272565.99246  -7678749.37347  23202694.2594   23202701.2684
       153.000
  23953599.723   -16989917.63046 -13224778.86047  23953599.6784   23953605.8614
       148.000
  20521023.894   -32124291.83446 -24745651.79948  20521023.7814   20521029.3784
       205.000
  19799292.268   -36275136.94446 -28247080.45748  19799292.2954   19799296.8994
       216.000
  20846315.271   -29803008.32246 -22553410.73848  20846314.9374   20846320.3564
       201.000
  21465997.406   -21560120.66146 -15936253.80448  21465996.9204   21466002.6584
       190.000
 96  4 20  1 53 59.9970000  0  8 05 26 23 24 20 06 16 17
  22199223.963   -28351573.84446 -22053653.18548  22199223.6074   22199229.4204
       172.000
  23397746.748    -6328816.62146  -4689405.30447  23397747.0274   23397753.2544
       146.000
  23179216.031   -10395945.91746  -7774889.49647  23179215.7434   23179222.7534
       154.000
  23964528.540   -16932485.98846 -13180026.93347  23964528.5624   23964534.7574
       147.000
  20530411.709   -32074958.40446 -24707210.18848  20530411.6124   20530417.2274
       205.000
  19789423.729   -36326996.56746 -28287490.54748  19789423.7374   19789428.3434
       216.000
  20853081.411   -29767452.18146 -22525704.65548  20853081.0924   20853086.4764
       201.000
  21451140.747   -21638193.00546 -15997089.37548  21451140.2754   21451145.9814
       190.000
 96  4 20  1 54 29.9970000  0  8 05 26 23 24 20 06 16 17
  22215127.933   -28267998.15246 -21988529.31548  22215127.5774   22215133.4114
       171.000
  23379238.461    -6426078.11146  -4765193.42547  23379238.6894   23379244.8814
       145.000
  23155763.140   -10519191.43946  -7870924.89347  23155762.8294   23155769.7664
       156.000
  23975447.313   -16875107.18446 -13135316.19747  23975447.3634   23975453.5524
       146.000
  20539883.557   -32025183.70346 -24668424.73148  20539883.4554   20539889.0854
       205.000
  19779613.195   -36378551.14847 -28327662.94048  19779613.2094   19779617.8304
       217.000
  20859942.277   -29731398.07346 -22497610.54348  20859941.9434   20859947.3494
       201.000
  21436328.602   -21716031.14746 -16057742.44748  21436328.1394   21436333.8354
       190.000
 96  4 20  1 54 59.9970000  0  8 05 26 23 24 20 06 16 17
  22231062.829   -28184259.72546 -21923278.62648  22231062.4264   22231068.2854
       170.000
  23360748.816    -6523241.88946  -4840905.41547  23360749.0304   23360755.2524
       144.000
  23132335.011   -10642306.82546  -7966858.88947  23132334.6884   23132341.5994
       158.000
  23986355.991   -16817781.31446 -13090646.67747  23986356.1914   23986362.2064
       145.000
  20549441.546   -31974956.12246 -24629286.38148  20549441.4484   20549447.1034
       205.000
  19769863.172   -36429787.86947 -28367587.65748  19769863.1994   19769867.7954
       217.000
  20866899.516   -29694837.58246 -22469121.85548  20866899.1864   20866904.5794
       201.000
  21421561.151   -21793634.75546 -16118212.76848  21421560.6824   21421566.3604
       190.000
 96  4 20  1 55 29.9970000  0  8 05 26 23 24 20 06 16 17
  22247031.205   -28100345.46146 -21857890.93548  22247030.8114   22247036.7014
       169.000
  23342276.408    -6620314.60646  -4916546.44247  23342276.7184   23342282.9274
       144.000
  23108930.564   -10765298.03946  -8062696.12847  23108930.1814   23108937.1104
       159.000
  23997255.136   -16760505.88746 -13046016.49047  23997255.2164   23997261.4134
       144.000
  20559086.525   -31924271.67446 -24589792.02748  20559086.4114   20559092.0794
       205.000
  19760174.162   -36480704.00547 -28407262.56348  19760174.1864   19760178.7904
       217.000
  20873951.209   -29657780.73846 -22440246.39248  20873950.8744   20873956.2994
       201.000
  21406838.591   -21871002.20946 -16178499.07748  21406838.1454   21406843.7824
       190.000
 96  4 20  1 55 59.9970000  0  8 05 26 23 24 20 06 16 17
  22263032.715   -28016257.05246 -21792367.53848  22263032.3734   22263038.2444
       169.000
  23323819.500    -6717306.11746  -4992124.16847  23323819.7754   23323825.8614
       144.000
  23085549.581   -10888165.89846  -8158437.24648  23085549.2074   23085556.0664
       161.000
  24008145.665   -16703275.70146 -13001421.54347  24008145.5974   24008151.9124
       145.000
  20568818.143   -31873131.80446 -24549942.79248  20568818.0444   20568823.6934
       205.000
  19750549.072   -36531284.15847 -28446675.66448  19750549.0994   19750553.6804
       217.000
  20881094.573   -29620242.19146 -22410995.57648  20881094.2294   20881099.6264
       200.000
  21392157.310   -21948152.79046 -16238616.38748  21392156.8384   21392162.4764
       190.000
 96  4 20  1 56 29.9970000  0  8 05 26 23 24 20 06 16 17
  22279068.541   -27931988.34546 -21726703.65048  22279068.2034   22279074.0974
       168.000
  23305375.321    -6814230.50946  -5067649.61747  23305375.5654   23305381.7584
       144.000
  23062192.559   -11010907.53046  -8254080.00148  23062192.2174   23062199.0664
       162.000
  24019027.837   -16646089.63746 -12956860.97447  24019027.8734   24019034.2004
       145.000
  20578634.690   -31821545.74446 -24509745.87448  20578634.5784   20578640.2404
       205.000
  19740981.690   -36581561.12347 -28485852.51748  19740981.7134   19740986.2674
       217.000
  20888327.320   -29582233.82346 -22381378.66648  20888326.9824   20888332.3704
       200.000
  21377517.031   -22025087.78046 -16298565.70348  21377516.5634   21377522.1694
       191.000
 96  4 20  1 56 59.9970000  0  8 05 26 23 24 20 06 16 17
  22295137.566   -27847545.17246 -21660903.81448  22295137.1984   22295143.1104
       167.000
  23286941.752    -6911099.08246  -5143131.56547  23286942.1154   23286948.1714
       144.000
  23038861.617   -11133512.40146  -8349616.19448  23038861.2784   23038868.1344
       163.000
  24029902.951   -16588940.90046 -12912329.50047  24029902.9244   24029909.2204
       145.000
  20588534.135   -31769523.86746 -24469209.35048  20588534.0344   20588539.6744
       205.000
  19731466.974   -36631561.21847 -28524813.62848  19731467.0104   19731471.5674
       217.000
  20895645.800   -29543775.06146 -22351410.79648  20895645.4464   20895650.8234
       200.000
  21362916.055   -22101816.25146 -16358354.09248  21362915.5914   21362921.1824
       191.000
 96  4 20  1 57 29.9970000  0  8 05 26 23 24 20 06 16 17
  22311235.701   -27762949.07846 -21594984.82648  22311235.3544   22311241.2964
       166.000
  23268519.272    -7007909.27646  -5218568.02147  23268519.6794   23268525.6964
       146.000
  23015558.293   -11255971.96646  -8445039.16848  23015557.9514   23015564.8444
       163.000
  24040771.578   -16531825.59846 -12867824.06547  24040771.7104   24040777.8834
       142.000
  20598515.947   -31717069.35746 -24428335.72348  20598515.8244   20598521.4704
       205.000
  19722003.129   -36681294.10547 -28563566.52748  19722003.1514   19722007.7494
       217.000
  20903049.962   -29504865.84146 -22321091.92948  20903049.6204   20903055.0104
       200.000
  21348353.710   -22178341.81246 -16417984.37548  21348353.2534   21348358.8344
       191.000
 96  4 20  1 57 59.9970000  0  7 05 26 23 20 06 16 17
  22327357.092   -27678230.73546 -21528970.56948  22327356.7224   22327362.6684
       165.000
  23250105.821    -7104672.50846  -5293967.88847  23250106.1074   23250112.2304
       146.000
  22992281.151   -11378294.03646  -8540354.99848  22992280.7764   22992287.6764
       163.000
  20608575.719   -31664204.80946 -24387142.59448  20608575.6304   20608581.2524
       205.000
  19712586.431   -36730779.03447 -28602126.21248  19712586.4704   19712591.0484
       217.000
  20910537.703   -29465517.29346 -22290430.72148  20910537.3564   20910542.7734
       199.000
  21333829.552   -22254666.59946 -16477458.21548  21333829.0984   21333834.6624
       191.000
 96  4 20  1 58 29.9970000  0  7 05 26 23 20 06 16 17
  22343502.072   -27593388.40746 -21462859.70148  22343501.7454   22343507.6824
       164.000
  23231704.285    -7201373.23246  -5369319.04947  23231704.4464   23231710.6704
       146.000
  22969031.683   -11500470.29546  -8635557.20448  22969031.3314   22969038.2604
       162.000
  20618712.111   -31610937.95046 -24345635.97548  20618712.0134   20618717.6164
       205.000
  19703215.977   -36780021.06347 -28640496.61548  19703215.9974   19703220.6034
       217.000
  20918111.741   -29425715.39646 -22259416.25948  20918111.3934   20918116.8364
       199.000
  21319346.628   -22330774.70346 -16536763.19748  21319346.1644   21319351.7374
       191.000
 96  4 20  1 58 59.9970000  0  7 05 26 23 20 06 16 17
  22359671.984   -27508415.25546 -21396646.90548  22359671.5924   22359677.5494
       164.000
  23213320.951    -7297978.52746  -5444595.84347  23213321.1024   23213327.2434
       147.000
  22945813.686   -11622481.23746  -8730630.59447  22945813.3544   22945820.2424
       160.000
  20628926.848   -31557259.03546 -24303808.27348  20628926.7614   20628932.3464
       205.000
  19693897.495   -36828990.17847 -28678654.36348  19693897.5084   19693902.0994
       217.000
  20925777.220   -29385433.02746 -22228027.40148  20925776.8664   20925782.3214
       199.000
  21304909.415   -22406642.68646 -16595881.07748  21304908.9594   21304914.5334
       191.000
 96  4 20  1 59 29.9970000  0  7 05 26 23 20 06 16 17
  22375866.886   -27423310.52846 -21330331.57948  22375866.4804   22375872.4434
       164.000
  23194956.664    -7394483.18946  -5519794.22247  23194956.8254   23194962.9244
       148.000
  22922626.913   -11744328.06046  -8825576.10047  22922626.5774   22922633.4594
       158.000
  20639219.528   -31503170.71446 -24261661.54748  20639219.4364   20639225.0224
       205.000
  19684634.702   -36877666.41147 -28716583.89148  19684634.7314   19684639.3004
       217.000
  20933535.304   -29344664.16646 -22196259.45748  20933534.9454   20933540.4064
       199.000
  21290520.925   -22482254.52146 -16654799.36548  21290520.4704   21290526.0254
       191.000
 96  4 20  1 59 59.9970000  0  7 05 26 23 20 06 16 17
  22392088.759   -27338064.03646 -21263905.78048  22392088.3504   22392094.3104
       163.000
  23176613.150    -7490878.48646  -5594907.37847  23176613.3354   23176619.4644
       150.000
  22899470.291   -11866016.27046  -8920398.00447  22899469.9674   22899476.8674
       156.000
  20649589.386   -31448676.72846 -24219198.72548  20649589.2974   20649594.9034
       204.000
  19675431.611   -36926029.00947 -28754269.03448  19675431.6324   19675436.1934
       218.000
  20941383.089   -29303423.66846 -22164124.00848  20941382.7424   20941388.2164
       199.000
  21276180.572   -22557613.34946 -16713520.51348  21276180.1174   21276185.6694
       191.000
 96  4 20  2  0 29.9970000  0  7 05 26 23 20 06 16 17
  22408335.883   -27252685.09846 -21197376.78648  22408335.5024   22408341.4764
       163.000
  23158288.861    -7587172.97846  -5669941.99147  23158289.0504   23158295.1844
       152.000
  22876342.062   -11987555.47646  -9015103.80847  22876341.7984   22876348.6104
       155.000
  20660035.416   -31393782.54946 -24176424.05348  20660035.3354   20660040.9504
       204.000
  19666288.067   -36974078.70047 -28791710.35148  19666288.0924   19666292.6534
       218.000
  20949317.075   -29261730.20146 -22131635.59548  20949316.7304   20949322.1874
       198.000
  21261882.962   -22632747.60246 -16772066.65848  21261882.4754   21261888.0684
       191.000
 96  4 20  2  0 59.9970000  0  7 05 26 23 20 06 16 17
  22424609.222   -27167168.21846 -21130740.30248  22424608.8364   22424614.8334
       163.000
  23139983.868    -7683366.08646  -5744897.59547  23139984.0624   23139990.1504
       154.000
  22853241.214   -12108950.89946  -9109697.56847  22853240.8714   22853247.7314
       154.000
  20670560.649   -31338472.28846 -24133325.16348  20670560.5594   20670566.1834
       204.000
  19657207.713   -37021796.18047 -28828892.79948  19657207.7384   19657212.3104
       218.000
  20957335.125   -29219595.20546 -22098803.13148  20957334.7794   20957340.2184
       198.000
  21247627.418   -22707660.82746 -16830440.57148  21247626.9444   21247632.5414
       191.000
 96  4 20  2  1 29.9970000  0  7 05 26 23 20 06 16 17
  22440911.549   -27081498.98846 -21063985.10448  22440911.1714   22440917.1574
       162.000
  23121699.576    -7779450.57146  -5819768.56347  23121699.7714   23121705.7984
       155.000
  22830167.904   -12230201.62146  -9204178.57847  22830167.5044   22830174.3914
       154.000
  20681168.319   -31282728.73946 -24089888.65748  20681168.2354   20681173.8764
       203.000
  19648195.752   -37069154.35647 -28865795.27148  19648195.7774   19648200.3394
       218.000
  20965438.013   -29177014.26246 -22065623.18148  20965437.6504   20965443.0764
       198.000
  21233414.388   -22782350.70146 -16888640.44648  21233413.9134   21233419.5114
       191.000
 96  4 20  2  1 59.9970000  0  7 05 26 23 20 06 16 17
  22457238.656   -26995699.60346 -20997128.48448  22457238.3174   22457244.3114
       163.000
  23103432.985    -7875442.04346  -5894567.04747  23103433.2764   23103439.1644
       157.000
  22807118.569   -12351326.11346  -9298561.23247  22807118.1714   22807124.9894
       154.000
  20691852.702   -31226581.78046 -24046137.78248  20691852.5994   20691858.2854
       202.000
  19639246.893   -37116180.89847 -28902439.32748  19639246.9224   19639251.5004
       218.000
  20973620.498   -29134015.20846 -22032117.42748  20973620.1354   20973625.5394
       198.000
  21219238.356   -22856846.19346 -16946688.85948  21219237.8874   21219243.4914
       192.000
 96  4 20  2  2 29.9970000  0  7 05 26 23 20 06 16 17
  22473591.964   -26909762.84846 -20930164.83448  22473591.6264   22473597.6384
       163.000
  23085187.613    -7971322.20346  -5969278.79847  23085187.9174   23085193.7944
       157.000
  22784098.743   -12472295.80046  -9392823.26647  22784098.3274   22784105.0724
       155.000
  20702614.034   -31170030.45746 -24002071.82348  20702613.9294   20702619.6324
       201.000
  19630360.706   -37162877.95647 -28938826.64248  19630360.7544   19630365.3314
       218.000
  20981886.950   -29090574.67246 -21998267.66548  20981886.6124   20981892.0014
       198.000
  21205103.401   -22931125.58046 -17004568.88048  21205102.9434   21205108.5144
       192.000
 96  4 20  2  2 59.9970000  0  7 05 26 23 20 06 16 17
  22489969.759   -26823697.24946 -20863100.77948  22489969.3784   22489975.4084
       163.000
  23066965.015    -8067082.36146  -6043897.04547  23066965.3324   23066971.1434
       157.000
  22761108.140   -12593112.09046  -9486965.77047  22761107.6834   22761114.4474
       157.000
  20713449.933   -31113087.36746 -23957700.61548  20713449.8174   20713455.5674
       200.000
  19621535.864   -37209252.97147 -28974963.01648  19621535.9034   19621540.4714
       218.000
  20990236.766   -29046696.13146 -21964076.60048  20990236.4324   20990241.8114
       197.000
  21191011.146   -23005180.65046 -17062274.11148  21191010.6994   21191016.2744
       192.000
 96  4 20  2  3 29.9970000  0  7 05 26 23 20 06 16 17
  22506370.243   -26737512.40746 -20795943.81548  22506369.8644   22506375.8994
       163.000
  23048768.034    -8162708.15146  -6118410.58547  23048768.3804   23048774.1394
       157.000
  22738151.672   -12713749.11446  -9580968.59147  22738151.2364   22738157.9304
       159.000
  20724356.808   -31055771.39646 -23913038.85248  20724356.7164   20724362.4664
       200.000
  19612769.305   -37255321.60247 -29010860.64648  19612769.3524   19612773.9174
       218.000
  20998670.935   -29002374.24546 -21929540.06748  20998670.5834   20998675.9624
       197.000
  21176963.223   -23079002.94846 -17119797.95548  21176962.7644   21176968.3484
       192.000
 96  4 20  2  3 59.9970000  0  7 05 26 23 20 06 16 17
  22522794.224   -26651204.00546 -20728690.56348  22522793.8754   22522799.8934
       163.000
  23030599.728    -8258183.17346  -6192806.63747  23030600.0574   23030605.8994
       157.000
  22715233.924   -12834182.69646  -9674812.88248  22715233.4714   22715240.1394
       162.000
  20735334.258   -30998084.38246 -23868087.95548  20735334.1574   20735339.9254
       199.000
  19604059.685   -37301090.85147 -29046524.98948  19604059.7124   19604064.2914
       218.000
  21007189.039   -28957611.28046 -21894659.84148  21007188.6964   21007194.0804
       197.000
  21162960.663   -23152586.58046 -17177135.82448  21162960.2084   21162965.7934
       192.000
 96  4 20  2  4 29.9970000  0  7 05 26 23 20 06 16 17
  22539240.097   -26564780.60946 -20661347.70548  22539239.7494   22539245.7644
       164.000
  23012458.362    -8353516.35946  -6267092.18347  23012458.6764   23012464.6234
       158.000
  22692353.088   -12954422.03146  -9768505.81048  22692352.7114   22692359.2584
       163.000
  20746381.439   -30940030.99046 -23822851.56848  20746381.3394   20746387.1294
       199.000
  19595406.406   -37346564.11647 -29081958.70148  19595406.4324   19595410.9974
       218.000
  21015789.084   -28912417.54646 -21859443.95148  21015788.7524   21015794.1404
       197.000
  21149001.600   -23225941.96646 -17234295.85248  21149001.1514   21149006.7234
       193.000
 96  4 20  2  4 59.9970000  0  7 05 26 23 20 06 16 17
  22555705.351   -26478255.44346 -20593925.54548  22555704.9514   22555711.0374
       163.000
  22994340.841    -8448724.16446  -6341280.02747  22994341.1194   22994347.0614
       159.000
  22669506.726   -13074480.39846  -9862057.72848  22669506.3584   22669512.8924
       165.000
  20757496.252   -30881622.29146 -23777338.32648  20757496.1744   20757501.9764
       198.000
  19586807.593   -37391751.21847 -29117169.43148  19586807.6254   19586812.1824
       218.000
  21024468.206   -28866808.47546 -21823904.42048  21024467.8844   21024473.2804
       196.000
  21135082.838   -23299085.53646 -17291290.81948  21135082.3774   21135087.9334
       193.000
 96  4 20  2  5 29.9970000  0  7 05 26 23 20 06 16 17
  22572191.347   -26391621.08946 -20526418.29748  22572190.9584   22572197.1214
       163.000
  22976246.710    -8543809.42746  -6415372.37847  22976246.9754   22976252.8864
       159.000
  22646696.050   -13194351.16846  -9955463.46548  22646695.6794   22646702.1984
       166.000
  20768681.065   -30822845.65946 -23731538.38148  20768680.9714   20768686.7904
       198.000
  19578263.873   -37436648.73047 -29152154.50348  19578263.8904   19578268.4524
       218.000
  21033228.348   -28820773.54146 -21788033.04948  21033228.0094   21033233.4114
       196.000
  21121203.119   -23372023.92246 -17348125.90248  21121202.6564   21121208.2184
       194.000
 96  4 20  2  5 59.9970000  0  7 05 26 23 20 06 16 17
  22588699.678   -26304869.31546 -20458819.56948  22588699.2894   22588705.4594
       162.000
  22958174.746    -8638778.16446  -6489373.93547  22958175.0564   22958180.8224
       159.000
  22623917.280   -13314054.07846 -10048738.40348  22623916.9784   22623923.4844
       168.000
  20779940.779   -30763675.50346 -23685431.79348  20779940.7064   20779946.5164
       198.000
  19569781.148   -37481225.88147 -29186889.94548  19569781.1624   19569785.7364
       218.000
  21042069.379   -28774313.47946 -21751830.40748  21042069.0594   21042074.4714
       196.000
  21107361.922   -23444759.89946 -17404803.26948  21107361.4684   21107367.0254
       194.000
 96  4 20  2  6 29.9970000  0  7 05 26 23 20 06 16 17
  22605228.514   -26218009.82146 -20391136.89548  22605228.1264   22605234.3404
       162.000
  22940124.497    -8733632.49646  -6563286.34247  22940124.7624   22940130.5314
       158.000
  22601170.683   -13433587.97746 -10141881.64648  22601170.3754   22601176.8964
       168.000
  20791276.719   -30704104.76646 -23639013.05848  20791276.6494   20791282.4664
       198.000
  19561359.932   -37525479.53447 -29221373.31348  19561359.9524   19561364.5364
       218.000
  21050993.610   -28727416.23546 -21715287.10948  21050993.2814   21050998.7094
       195.000
  21093562.230   -23517277.71946 -17461310.63948  21093561.7814   21093567.3194
       194.000
 96  4 20  2  6 59.9970000  0  7 05 26 23 20 06 16 17
  22621777.366   -26131045.15746 -20323372.26448  22621777.0304   22621783.2034
       161.000
  22922099.821    -8828352.50046  -6637094.08847  22922100.1104   22922105.8384
       157.000
  22578456.465   -13552951.69646 -10234892.28648  22578456.1404   22578462.7054
       168.000
  20802690.874   -30644122.96046 -23592273.99948  20802690.7974   20802696.6014
       198.000
  19553002.833   -37569396.25047 -29255594.12748  19553002.8584   19553007.4454
       218.000
  21060000.870   -28680082.78946 -21678403.90748  21060000.5354   21060005.9794
       195.000
  21079805.145   -23589571.78646 -17517643.65948  21079804.6954   21079810.2384
       195.000
 96  4 20  2  7 29.9970000  0  7 05 26 23 20 06 16 17
  22638344.462   -26043984.69846 -20255533.00548  22638344.1504   22638350.3084
       161.000
  22904102.024    -8922931.19646  -6710791.71247  22904102.2814   22904108.0914
       156.000
  22555773.732   -13672149.64446 -10327773.75048  22555773.4634   22555780.0344
       168.000
  20814183.734   -30583727.74946 -23545212.80748  20814183.6504   20814189.4564
       198.000
  19544713.672   -37612956.20147 -29289536.94648  19544713.7164   19544718.2994
       218.000
  21069087.202   -28632333.67446 -21641196.80848  21069086.8654   21069092.2944
       195.000
  21066089.993   -23661645.28946 -17573804.80148  21066089.5594   21066095.0874
       195.000
 96  4 20  2  7 59.9970000  0  7 05 26 23 20 06 16 17
  22654927.729   -25956839.16546 -20187627.43947  22654927.4004   22654933.5894
       160.000
  22886132.951    -9017359.09246  -6784371.84447  22886133.2704   22886138.9974
       156.000
  22533125.671   -13791165.90346 -10420513.63648  22533125.3824   22533131.9874
       168.000
  20825752.610   -30522933.10646 -23497840.37448  20825752.5214   20825758.3044
       198.000
  19536495.231   -37656144.33647 -29323190.03448  19536495.2664   19536499.8474
       218.000
  21078251.295   -28584175.78646 -21603671.17848  21078250.9614   21078256.4604
       194.000
  21052419.002   -23733486.67246 -17629785.07148  21052418.5544   21052424.0644
       195.000
 96  4 20  2  8 29.9970000  0  7 05 26 23 20 06 16 17
  22671522.613   -25869632.63346 -20119674.35947  22671522.2624   22671528.4464
       159.000
  22868192.192    -9111638.15746  -6857836.01347  22868192.5004   22868198.2154
       155.000
  22510514.406   -13909988.57146 -10513102.67548  22510514.1254   22510520.7454
       167.000
  20837391.497   -30461770.61546 -23450181.31948  20837391.3844   20837397.1714
       198.000
  19528340.969   -37698995.21847 -29356580.33248  19528340.9914   19528345.5824
       218.000
  21087489.817   -28535626.94546 -21565840.91948  21087489.5154   21087494.9944
       194.000
  21038788.598   -23805114.78846 -17685599.15248  21038788.1504   21038793.6684
       195.000
 96  4 20  2  8 59.9970000  0  7 05 26 23 20 06 16 17
  22688132.265   -25782348.50546 -20051660.80347  22688131.8934   22688138.0694
       157.000
  22850281.064    -9205761.50846  -6931178.82447  22850281.3094   22850287.0014
       155.000
  22487940.298   -14028615.96346 -10605539.54848  22487940.0034   22487946.6704
       167.000
  20849099.357   -30400245.58946 -23402239.76048  20849099.2494   20849104.9984
       198.000
  19520254.099   -37741491.90347 -29389694.63048  19520254.1394   19520258.7364
       218.000
  21096802.612   -28486687.86246 -21527706.56548  21096802.3084   21096807.7984
       194.000
  21025199.200   -23876527.42446 -17741245.33948  21025198.7484   21025204.2514
       196.000
 96  4 20  2  9 29.9970000  0  7 05 26 23 20 06 16 17
  22704759.100   -25694974.04946 -19983576.85047  22704758.7234   22704764.8764
       156.000
  22832397.829    -9299738.21646  -7004407.38147  22832398.0504   22832403.7844
       155.000
  22465407.683   -14147025.24246 -10697806.47048  22465407.3824   22465414.0374
       166.000
  20860875.122   -30338363.73446 -23354020.15048  20860875.0274   20860880.7554
       199.000
  19512234.548   -37783634.96647 -29422533.37948  19512234.5714   19512239.1684
       218.000
  21106193.884   -28437336.55846 -21489251.00648  21106193.5864   21106199.0434
       194.000
  21011654.132   -23947707.06746 -17796709.98048  21011653.6854   21011659.1664
       196.000
 96  4 20  2  9 59.9970000  0  7 05 26 23 20 06 16 17
  22721401.505   -25607518.01246 -19915429.33947  22721401.1214   22721407.1974
       156.000
  22814540.131    -9393580.84646  -7077531.44747  22814540.3524   22814546.0444
       154.000
  22442913.050   -14265234.95746 -10789917.88248  22442912.7254   22442919.3754
       166.000
  20872714.459   -30276147.77146 -23305540.20948  20872714.3704   20872720.0924
       199.000
  19504275.236   -37825461.46447 -29455125.45348  19504275.2614   19504279.8484
       218.000
  21115663.092   -28387575.75846 -21450476.35048  21115662.7814   21115668.2514
       194.000
  20998151.431   -24018664.22746 -17852001.25148  20998150.9734   20998156.4654
       196.000
 96  4 20  2 10 29.9970000  0  7 05 26 23 20 06 16 17
  22738061.507   -25519969.57146 -19847209.81747  22738061.1484   22738067.2084
       155.000
  22796708.173    -9487287.97446  -7150549.94247  22796708.3974   22796714.1934
       154.000
  22420452.359   -14383266.58646 -10881890.53348  22420452.0044   22420458.6524
       166.000
  20884615.426   -30213608.15546 -23256808.06048  20884615.3324   20884621.0314
       199.000
  19496373.468   -37866985.52747 -29487481.86948  19496373.4914   19496378.1034
       218.000
  21125209.230   -28337410.41546 -21411386.47948  21125208.9224   21125214.3894
       194.000
  20984690.812   -24089400.14846 -17907120.13548  20984690.3714   20984695.8624
       196.000
 96  4 20  2 10 59.9970000  0  7 05 26 23 20 06 16 17
  22754740.922   -25432318.73446 -19778910.51347  22754740.5614   22754746.6954
       154.000
  22778903.649    -9580851.11346  -7223456.23147  22778903.8734   22778909.6674
       154.000
  22398024.414   -14501126.35746 -10973729.26448  22398024.0214   22398030.6834
       166.000
  20896577.838   -30150745.51146 -23207824.20648  20896577.7504   20896583.4174
       199.000
  19488531.947   -37908192.81847 -29519591.44448  19488531.9904   19488536.6074
       218.000
  21134833.853   -28286832.64846 -21371975.22948  21134833.5494   21134838.9944
       193.000
  20971274.084   -24159905.43346 -17962059.30448  20971273.6594   20971279.1404
       196.000
 96  4 20  2 11 29.9970000  0  7 05 26 23 20 06 16 17
  22771436.466   -25344583.21946 -19710545.22147  22771436.1734   22771442.3034
       154.000
  22761131.134    -9674246.02446  -7296231.43147  22761131.3474   22761137.0524
       154.000
  22375630.832   -14618805.03546 -11065426.88548  22375630.4734   22375637.0884
       166.000
  20908602.613   -30087555.21446 -23158585.03448  20908602.5064   20908608.1904
       199.000
  19480749.175   -37949091.59447 -29551460.61948  19480749.2184   19480753.8254
       218.000
  21144536.016   -28235847.41646 -21332246.47548  21144535.6934   21144541.1644
       193.000
  20957898.673   -24230193.53846 -18016829.23048  20957898.2394   20957903.7474
       196.000
 96  4 20  2 11 59.9970000  0  7 05 26 23 20 06 16 17
  22788149.490   -25256755.83846 -19642108.35647  22788149.1924   22788155.3214
       154.000
  22743397.370    -9767437.60246  -7368848.20747  22743397.5144   22743403.2574
       154.000
  22353274.242   -14736289.61146 -11156973.25848  22353273.9004   22353280.4094
       167.000
  20920692.854   -30024020.42946 -23109077.44248  20920692.7764   20920698.4584
       199.000
  19473030.099   -37989655.48047 -29583068.84348  19473030.1424   19473034.7484
       218.000
  21154316.522   -28184450.60946 -21292197.01448  21154316.2014   21154321.6424
       193.000
  20944566.809   -24300252.96146 -18071420.97048  20944566.3694   20944571.8684
       197.000
 96  4 20  2 12 29.9970000  0  7 05 26 23 20 06 16 17
  22804878.410   -25168845.01546 -19573606.45947  22804878.0624   22804884.2494
       154.000
  22725703.132    -9860421.24346  -7441302.94347  22725703.2634   22725709.0284
       155.000
  22330957.411   -14853565.27746 -11248356.85048  22330957.0414   22330963.5344
       168.000
  20932849.828   -29960135.36546 -23059296.90248  20932849.7304   20932855.4174
       199.000
  19465377.393   -38029870.81047 -29614405.45848  19465377.4304   19465382.0454
       218.000
  21164175.008   -28132643.99046 -21251828.22048  21164174.7074   21164180.1214
       192.000
  20931279.074   -24370080.43346 -18125831.96548  20931278.6174   20931284.1314
       197.000
 96  4 20  2 12 59.9970000  0  7 05 26 23 20 06 16 17
  22821620.628   -25080864.13046 -19505049.97547  22821620.2514   22821626.4554
       155.000
  22708049.996    -9953188.95746  -7513589.41947  22708050.0944   22708055.9524
       155.000
  22308684.382   -14970610.82246 -11339561.12248  22308684.0294   22308690.4334
       169.000
  20945076.502   -29895883.81346 -23009230.77748  20945076.4054   20945082.1034
       198.000
  19457793.692   -38069723.51047 -29645459.50648  19457793.7204   19457798.3404
       219.000
  21174111.436   -28080427.74546 -21211140.23948  21174111.1384   21174116.5604
       192.000
  20918034.721   -24439679.82046 -18180065.22748  20918034.2664   20918039.7954
       197.000
 96  4 20  2 13 29.9970000  0  7 05 26 23 20 06 16 17
  22838373.000   -24992830.13646 -19436452.11147  22838372.6144   22838378.8304
       155.000
  22690433.318   -10045765.17746  -7585726.68847  22690433.5204   22690439.2224
       156.000
  22286452.387   -15087440.64646 -11430597.30348  22286452.0304   22286458.3474
       169.000
  20957371.705   -29831272.09746 -22958884.00148  20957371.5944   20957377.3224
       197.000
  19450276.605   -38109226.10447 -29676240.74748  19450276.6544   19450281.2494
       219.000
  21184122.410   -28027819.82546 -21170147.05548  21184122.1074   21184127.5424
       192.000
  20904831.864   -24509061.01246 -18234128.47548  20904831.4174   20904836.9624
       197.000
 96  4 20  2 13 59.9960000  0  7 05 26 23 20 06 16 17
  22855137.624   -24904731.58346 -19367803.94247  22855137.2284   22855143.5054
       156.000
  22672850.205   -10138164.65146  -7657726.22447  22672850.4624   22672856.1274
       156.000
  22264262.263   -15204050.31246 -11521461.92848  22264261.9124   22264268.1854
       170.000
  20969735.191   -29766301.57146 -22908257.63048  20969735.0954   20969740.8364
       197.000
  19442827.674   -38148370.54847 -29706742.91048  19442827.7204   19442832.3344
       219.000
  21194207.241   -27974823.63446 -21128851.32448  21194206.9164   21194212.3404
       192.000
  20891672.786   -24578212.34146 -18288012.60948  20891672.3464   20891677.8724
       198.000
 96  4 20  2 14 29.9960000  0  7 05 26 23 20 06 16 17
  22871914.451   -24816568.80546 -19299105.73147  22871914.0844   22871920.3304
       156.000
  22655299.489   -10230393.93946  -7729593.15147  22655299.7434   22655305.3904
       157.000
  22242111.677   -15320452.11646 -11612164.58248  22242111.3374   22242117.6124
       171.000
  20982165.934   -29700977.42146 -22857355.70248  20982165.8294   20982171.6184
       196.000
  19435446.141   -38187160.85847 -29736969.12248  19435446.1914   19435450.7794
       218.000
  21204366.326   -27921437.15046 -21087251.46648  21204365.9934   21204371.4594
       191.000
  20878554.557   -24647149.10946 -18341729.55548  20878554.0984   20878559.6344
       198.000
 96  4 20  2 14 59.9960000  0  7 05 26 23 20 06 16 17
  22888699.187   -24728364.76946 -19230375.36847  22888698.8144   22888705.1374
       156.000
  22637779.032   -10322464.45846  -7801336.36247  22637779.2224   22637784.9154
       158.000
  22219996.912   -15436666.01946 -11702720.82748  22219996.5674   22220002.8344
       172.000
  20994659.472   -29635323.39746 -22806196.74548  20994659.3604   20994665.2024
       195.000
  19428128.773   -38225613.82847 -29766932.47448  19428128.8164   19428133.4134
       219.000
  21214596.252   -27867678.49746 -21045361.61248  21214595.9214   21214601.3874
       191.000
  20865472.831   -24715893.86946 -18395296.89048  20865472.3744   20865477.9204
       198.000
 96  4 20  2 15 29.9960000  0  7 05 26 23 20 06 16 17
  22905495.592   -24640099.35646 -19161597.17647  22905495.2264   22905501.5854
       157.000
  22620292.607   -10414355.94346  -7872940.05947  22620292.7484   22620298.5204
       158.000
  22197921.404   -15552673.26546 -11793116.03548  22197921.0694   22197927.3484
       172.000
  21007216.301   -29569336.74946 -22754778.60048  21007216.1774   21007222.0394
       195.000
  19420878.869   -38263712.24847 -29796619.55248  19420878.9054   19420883.5104
       218.000
  21224899.553   -27813534.19446 -21003171.24748  21224899.2384   21224904.6994
       191.000
  20852431.827   -24784424.66146 -18448697.49048  20852431.3924   20852436.9264
       198.000
 96  4 20  2 15 59.9960000  0  7 05 26 23 20 06 16 17
  22922299.136   -24551795.93746 -19092789.37647  22922298.8724   22922305.2034
       157.000
  22602841.907   -10506059.53146  -7944397.35247  22602842.0784   22602847.8074
       160.000
  22175885.107   -15668474.32846 -11883350.57948  22175884.8154   22175891.0814
       173.000
  21019830.071   -29503051.00346 -22703127.39048  21019829.9644   21019835.8164
       194.000
  19413693.422   -38301472.02347 -29826042.75248  19413693.4704   19413698.0674
       218.000
  21235272.451   -27759024.06046 -20960695.82548  21235272.1474   21235277.6424
       190.000
  20839427.078   -24852765.21446 -18501949.85448  20839426.6054   20839432.1574
       199.000
 96  4 20  2 16 29.9960000  0  7 05 26 23 20 06 16 17
  22939109.285   -24463458.15246 -19023954.78947  22939109.0054   22939115.3924
       157.000
  22585430.699   -10597555.94846  -8015693.21048  22585430.9424   22585436.6424
       161.000
  22153891.308   -15784052.45346 -11973411.40948  22153890.9804   22153897.2794
       173.000
  21032500.292   -29436468.57546 -22651244.99548  21032500.1634   21032506.0374
       194.000
  19406575.909   -38338874.76147 -29855187.74248  19406575.9374   19406580.5644
       218.000
  21245714.516   -27704150.58446 -20917937.27448  21245714.2184   21245719.7004
       190.000
  20826459.463   -24920910.38046 -18555049.95948  20826458.9924   20826464.5524
       199.000
 96  4 20  2 16 59.9960000  0  7 05 26 23 20 06 16 17
  22955928.593   -24375072.35946 -18955082.80247  22955928.3014   22955934.6894
       156.000
  22568061.555   -10688831.25246  -8086816.77748  22568061.8654   22568067.5354
       161.000
  22131944.193   -15899385.11046 -12063280.95948  22131943.8344   22131950.1794
       174.000
  21045227.573   -29369586.20946 -22599128.88048  21045227.4824   21045233.3374
       193.000
  19399527.068   -38375916.71747 -29884051.60148  19399527.1174   19399531.7224
       218.000
  21256225.353   -27648915.84246 -20874897.21348  21256225.0314   21256230.5594
       190.000
  20813531.955   -24988844.85646 -18607985.89548  20813531.5024   20813537.0184
       199.000
 96  4 20  2 17 29.9960000  0  8 05 26 23 22 20 06 16 17
  22972756.271   -24286642.68546 -18886176.63047  22972755.9724   22972762.3374
       154.000
  22550734.281   -10779886.62746  -8157768.96948  22550734.5914   22550740.1854
       161.000
  22110046.150   -16014459.92346 -12152949.60348  22110045.7744   22110052.1664
       175.000
  23685713.481    -5993963.26246  -4373614.22447  23685712.9924   23685718.6244
       143.000
  21058009.405   -29302417.23146 -22546789.43848  21058009.3044   21058015.1684
       192.000
  19392546.049   -38412602.15747 -29912637.65448  19392546.0804   19392550.6804
       218.000
  21266802.478   -27593332.85846 -20831585.80648  21266802.1694   21266807.6784
       190.000
  20800644.851   -25056567.08746 -18660756.44948  20800644.3744   20800649.8894
       199.000
 96  4 20  2 17 59.9960000  0  8 05 26 23 22 20 06 16 17
  22989592.607   -24198167.42946 -18817234.92247  22989592.2864   22989598.6344
       153.000
  22533450.335   -10870714.32746  -8228543.75348  22533450.6474   22533456.2024
       162.000
  22088197.307   -16129276.43346 -12242416.95548  22088196.9094   22088203.2924
       175.000
  23667050.975    -6092035.13846  -4450033.83847  23667050.5024   23667056.0244
       143.000
  21070848.777   -29234945.86146 -22494214.37448  21070848.7054   21070854.5674
       192.000
  19385633.383   -38448928.43247 -29940943.84148  19385633.4154   19385638.0164
       218.000
  21277448.509   -27537387.55946 -20787992.07148  21277448.1994   21277453.7444
       190.000
  20787798.214   -25124076.48346 -18713361.16448  20787797.7474   20787803.2454
       199.000
 96  4 20  2 18 29.9960000  0  8 05 26 23 22 20 06 16 17
  23006438.380   -24109642.58946 -18748254.58547  23006438.0154   23006444.4674
       152.000
  22516208.627   -10961319.64246  -8299145.24848  22516208.9534   22516214.5164
       162.000
  22066396.763   -16243838.98946 -12331686.42748  22066396.3724   22066402.7164
       175.000
  23648448.783    -6189789.98946  -4526206.42147  23648448.2114   23648453.9014
       143.000
  21083746.232   -29167169.28446 -22441401.48148  21083746.1564   21083752.0424
       191.000
  19378789.921   -38484890.86647 -29968966.51548  19378789.9534   19378794.5594
       218.000
  21288164.204   -27481076.15846 -20744113.05648  21288163.8814   21288169.4354
       189.000
  20774993.761   -25191364.28446 -18765793.20748  20774993.2924   20774998.7924
       199.000
 96  4 20  2 18 59.9960000  0  8 05 26 23 22 20 06 16 17
  23023290.423   -24021084.72946 -18679248.53247  23023290.0384   23023296.5244
       151.000
  22499005.464   -11051722.74346  -8369589.16848  22499005.7924   22499011.3254
       163.000
  22044639.761   -16358172.59146 -12420777.49648  22044639.4044   22044645.6994
       176.000
  23629905.282    -6287236.59046  -4602138.81547  23629904.6274   23629910.3964
       142.000
  21096697.538   -29099109.60746 -22388367.98848  21096697.4504   21096703.3764
       191.000
  19372009.562   -38520521.77147 -29996730.85648  19372009.6074   19372014.2264
       218.000
  21298947.868   -27424407.55246 -20699955.70748  21298947.5264   21298953.1094
       189.000
  20762228.207   -25258447.63546 -18818065.93748  20762227.7494   20762233.2654
       199.000
 96  4 20  2 19 29.9960000  0  8 05 26 23 22 20 06 16 17
  23040148.658   -23932494.11546 -18610216.94247  23040148.3284   23040154.7914
       150.000
  22481842.664   -11141913.86346  -8439867.91548  22481842.9644   22481848.4794
       164.000
  22022927.102   -16472273.44246 -12509687.20348  22022926.7354   22022933.0084
       177.000
  23611426.020    -6384345.94846  -4677808.42447  23611425.4604   23611431.0284
       143.000
  21109705.884   -29030750.38246 -22335101.08748  21109705.8054   21109711.7124
       190.000
  19365297.561   -38555793.60347 -30024215.40048  19365297.6034   19365302.2254
       218.000
  21309800.634   -27367375.74846 -20655515.34348  21309800.3124   21309805.9094
       188.000
  20749502.924   -25325319.47246 -18870173.84148  20749502.4784   20749507.9564
       200.000
 96  4 20  2 19 59.9960000  0  8 05 26 23 22 20 06 16 17
  23057014.850   -23843861.79546 -18541152.85847  23057014.5314   23057020.9514
       149.000
  22464723.239   -11231876.75846  -8509968.81948  22464723.5264   22464729.0264
       164.000
  22001257.593   -16586147.34846 -12598420.06348  22001257.2374   22001263.4444
       177.000
  23593012.126    -6481111.63546  -4753210.23147  23593011.5284   23593017.0734
       144.000
  21122773.044   -28962082.11746 -22281593.37048  21122772.9394   21122778.8524
       190.000
  19358658.578   -38590681.68347 -30051400.91248  19358658.6104   19358663.2424
       218.000
  21320724.307   -27309971.24946 -20610784.57048  21320723.9904   21320729.6084
       188.000
  20736817.956   -25391979.30046 -18922116.54848  20736817.5104   20736822.9754
       200.000
 96  4 20  2 20 29.9960000  0  8 05 26 23 22 20 06 16 17
  23073888.847   -23755188.44646 -18472056.80147  23073888.5294   23073895.0294
       148.000
  22447646.404   -11321616.06546  -8579895.50148  22447646.7084   22447652.2164
       164.000
  21979632.204   -16699789.32146 -12686972.20648  21979631.8674   21979638.0284
       178.000
  23574662.801    -6577538.11746  -4828347.72847  23574662.1224   23574667.8014
       144.000
  21135895.681   -28893122.38346 -22227858.53648  21135895.6044   21135901.4984
       190.000
  19352094.190   -38625177.60347 -30078280.84948  19352094.2344   19352098.8534
       218.000
  21331714.140   -27252219.20146 -20565782.97648  21331713.8224   21331719.4514
       187.000
  20724174.780   -25458419.47546 -18973888.09848  20724174.3434   20724179.7824
       200.000
 96  4 20  2 20 59.9960000  0  8 05 26 23 22 20 06 16 17
  23090768.495   -23666485.59846 -18402937.75547  23090768.1144   23090774.4764
       146.000
  22430612.603   -11411129.23446  -8649645.97448  22430612.8904   22430618.3704
       164.000
  21958051.650   -16813195.77646 -12775340.82848  21958051.2884   21958057.4254
       178.000
  23556381.068    -6673609.13346  -4903208.23447  23556380.3674   23556385.9414
       145.000
  21149076.735   -28823855.60446 -22173884.44348  21149076.6594   21149082.5454
       191.000
  19345605.891   -38659273.78447 -30104849.29748  19345605.9364   19345610.5514
       219.000
  21342768.081   -27194130.27446 -20520518.88748  21342767.7594   21342773.3734
       187.000
  20711574.418   -25524634.79946 -19025484.44248  20711573.9964   20711579.4164
       200.000
 96  4 20  2 21 29.9960000  0  8 05 26 23 22 20 06 16 17
  23107651.449   -23577765.30246 -18333805.10047  23107651.0764   23107657.3884
       145.000
  22413621.302   -11500418.95546  -8719222.33148  22413621.5534   22413627.0854
       164.000
  21936514.722   -16926372.80646 -12863530.68748  21936514.3684   21936520.4964
       178.000
  23538166.742    -6769325.88946  -4977792.69247  23538165.9474   23538171.6794
       145.000
  21162315.500   -28754285.69746 -22119674.14848  21162315.4044   21162321.2894
       191.000
  19339194.336   -38692966.81847 -30131103.61048  19339194.3844   19339199.0054
       219.000
  21353885.385   -27135708.51946 -20474995.44248  21353885.0334   21353890.6744
       187.000
  20699016.368   -25590627.73846 -19076907.48748  20699015.9404   20699021.3594
       200.000
 96  4 20  2 21 59.9960000  0  8 05 26 23 22 20 06 16 17
  23124537.953   -23489026.57846 -18264658.10447  23124537.6064   23124543.9284
       144.000
  22396672.222   -11589486.87346  -8788625.85148  22396672.4964   22396677.9854
       165.000
  21915022.368   -17039315.60046 -12951538.01148  21915022.0064   21915028.1454
       178.000
  23520020.179    -6864686.40046  -5052099.56447  23520019.4594   23520025.1814
       145.000
  21175611.425   -28684415.20146 -22065229.62848  21175611.3294   21175617.2014
       191.000
  19332854.973   -38726280.30847 -30157062.17648  19332855.0134   19332859.6444
       219.000
  21365066.906   -27076949.39046 -20429209.11148  21365066.5424   21365072.1744
       187.000
  20686502.376   -25656389.09146 -19128150.08148  20686501.9434   20686507.3754
       200.000
 96  4 20  2 22 29.9960000  0  8 05 26 23 22 20 06 16 17
  23141428.448   -23400266.38346 -18195494.35147  23141428.1224   23141434.5284
       143.000
  22379767.569   -11678321.33746  -8857847.45648  22379767.8294   22379773.3004
       165.000
  21893578.793   -17152002.04546 -13039345.58648  21893578.4614   21893584.5634
       178.000
  23501945.365    -6959669.93146  -5126112.67547  23501944.7424   23501950.3764
       146.000
  21188968.238   -28614225.05446 -22010536.02748  21188968.1234   21188973.9884
       191.000
  19326587.405   -38759216.76047 -30182726.93948  19326587.4524   19326592.0684
       219.000
  21376315.589   -27017837.14946 -20383147.62648  21376315.2454   21376320.8654
       187.000
  20674036.407   -25721897.98746 -19179195.96248  20674035.9734   20674041.4164
       200.000
 96  4 20  2 22 59.9960000  0  8 05 26 23 22 20 06 16 17
  23158315.247   -23311526.12446 -18126346.14847  23158314.8524   23158321.3074
       142.000
  22362903.296   -11766943.35246  -8926903.52248  22362903.5644   22362909.0394
       165.000
  21872179.073   -17264457.97346 -13126973.54148  21872178.7564   21872184.8444
       177.000
  23483939.117    -7054293.58246  -5199845.36547  23483938.4984   23483944.1364
       146.000
  21202381.151   -28543739.72746 -21955612.42148  21202381.0474   21202386.9034
       191.000
  19320385.712   -38791806.88547 -30208121.84648  19320385.7554   19320390.3654
       219.000
  21387630.193   -26958378.51746 -20336816.22748  21387629.8424   21387635.4674
       187.000
  20661609.223   -25787203.31546 -19230083.21648  20661608.7864   20661614.1984
       200.000
 96  4 20  2 23 29.9960000  0  8 05 26 23 22 20 06 16 17
  23175200.685   -23222792.63746 -18057203.21847  23175200.3624   23175206.7154
       143.000
  22346084.253   -11855327.72846  -8995774.41848  22346084.5284   22346089.9354
       164.000
  21850825.762   -17376670.17646 -13214411.57648  21850825.4194   21850831.5204
       177.000
  23466002.285    -7148552.20346  -5273293.60747  23466001.5854   23466007.3094
       147.000
  21215849.866   -28472961.37046 -21900460.47948  21215849.7434   21215855.5844
       190.000
  19314251.137   -38824044.49947 -30233242.06848  19314251.1824   19314255.7844
       219.000
  21399015.609   -26898547.86546 -20290194.94148  21399015.2804   21399020.8724
       187.000
  20649220.614   -25852305.74946 -19280812.37548  20649220.1724   20649225.5944
       200.000
 96  4 20  2 23 59.9960000  0  8 05 26 23 22 20 06 16 17
  23192084.745   -23134066.40746 -17988065.93647  23192084.4944   23192090.7344
       144.000
  22329310.846   -11943472.07146  -9064458.26948  22329311.1694   22329316.5494
       164.000
  21829520.373   -17488630.37846 -13301653.25048  21829520.0584   21829526.1464
       177.000
  23448134.227    -7242449.35246  -5346460.18847  23448133.5744   23448139.1104
       147.000
  21229372.372   -28401900.24146 -21845088.18748  21229372.2614   21229378.1134
       190.000
  19308184.548   -38855924.68247 -30258083.76448  19308184.5824   19308189.1904
       219.000
  21410467.886   -26838365.75546 -20243299.79348  21410467.5714   21410473.1794
       186.000
  20636868.954   -25917214.16846 -19331390.35248  20636868.4934   20636873.9214
       200.000
 96  4 20  2 24 29.9960000  0  8 05 26 23 22 20 06 16 17
  23208970.435   -23045331.64746 -17918922.02447  23208970.1054   23208976.4674
       145.000
  22312588.831   -12031346.62946  -9132931.91348  22312589.0974   22312594.5164
       165.000
  21808266.942   -17600317.64046 -13388682.24948  21808266.6224   21808272.7034
       177.000
  23430337.034    -7335974.14746  -5419336.61847  23430336.5264   23430342.0304
       148.000
  21242951.201   -28330543.03446 -21789485.17748  21242951.0814   21242956.9404
       189.000
  19302193.876   -38887405.73847 -30282614.45448  19302193.8994   19302198.5224
       219.000
  21421990.364   -26777814.77146 -20196117.21548  21421990.0654   21421995.6734
       186.000
  20624554.865   -25981925.04146 -19381814.39848  20624554.3884   20624559.8414
       200.000
 96  4 20  2 24 59.9960000  0  8 05 26 23 22 20 06 16 17
  23225854.046   -22956608.11546 -17849786.84147  23225853.7064   23225860.1434
       147.000
  22295915.657   -12118964.62846  -9201205.64148  22295915.9194   22295921.3454
       165.000
  21787061.067   -17711755.10946 -13475516.59448  21787060.7324   21787066.8474
       178.000
  23412605.344    -7429154.69346  -5491944.81447  23412604.7414   23412610.3364
       148.000
  21256578.637   -28258930.49646 -21733683.22348  21256578.5174   21256584.3764
       189.000
  19296278.601   -38918490.75147 -30306836.54748  19296278.6344   19296283.2464
       219.000
  21433577.338   -26716924.82046 -20148670.50248  21433577.0234   21433582.6534
       186.000
  20612273.650   -26046463.16346 -19432103.82848  20612273.1804   20612278.6324
       201.000
 96  4 20  2 25 29.9960000  0  8 05 26 23 22 20 06 16 17
  23242741.335   -22867865.11746 -17780636.50547  23242740.9454   23242747.4004
       148.000
  22279293.121   -12206316.20946  -9269271.76748  22279293.3864   22279298.8504
       165.000
  21765903.711   -17822937.36946 -13562152.08948  21765903.3894   21765909.5224
       178.000
  23394937.680    -7521998.71546  -5564290.77147  23394937.0224   23394942.6374
       149.000
  21270253.001   -28187071.31746 -21677689.08448  21270252.8904   21270258.7544
       188.000
  19290439.143   -38949177.31747 -30330748.15548  19290439.1674   19290443.7934
       219.000
  21445225.037   -26655715.70346 -20100975.08948  21445224.7204   21445230.3264
       186.000
  20600030.593   -26110800.87546 -19482237.09548  20600030.1164   20600035.5714
       201.000
 96  4 20  2 25 59.9960000  0  8 05 26 23 22 20 06 16 17
  23259634.847   -22779089.21846 -17711460.53547  23259634.5304   23259640.9354
       150.000
  22262721.440   -12293400.71946  -9337129.79248  22262721.6694   22262727.1404
       165.000
  21744796.803   -17933854.77046 -13648581.18648  21744796.4614   21744802.5814
       178.000
  23377335.850    -7614496.74546  -5636367.13547  23377335.2184   23377340.7364
       150.000
  21283975.773   -28114957.78146 -21621496.74048  21283975.6604   21283981.5104
       188.000
  19284677.431   -38979455.29147 -30354341.38048  19284677.4564   19284682.0724
       219.000
  21456930.189   -26594204.83346 -20053044.54248  21456929.8574   21456935.4794
       186.000
  20587829.139   -26174919.80646 -19532199.88048  20587828.6734   20587834.1424
       201.000
 96  4 20  2 26 29.9960000  0  8 05 26 23 22 20 06 16 17
  23276531.802   -22690295.50646 -17642270.67747  23276531.5024   23276537.8454
       151.000
  22246200.695   -12380217.69246  -9404779.34648  22246200.9664   22246206.3724
       165.000
  21723738.891   -18044514.60946 -13734809.59248  21723738.5994   21723744.6704
       179.000
  23359799.706    -7706649.65746  -5708174.57547  23359799.1284   23359804.7614
       150.000
  21297745.982   -28042595.07446 -21565110.23948  21297745.8574   21297751.7344
       188.000
  19278990.518   -39009340.17147 -30377628.30248  19278990.5634   19278995.1784
       219.000
  21468692.488   -26532393.54046 -20004879.89948  21468692.1644   21468697.7614
       185.000
  20575668.830   -26238822.57346 -19581994.22548  20575668.3614   20575673.8144
       201.000
 96  4 20  2 26 59.9960000  0  8 05 26 23 22 20 06 16 17
  23293434.100   -22601473.35746 -17573058.67947  23293433.8114   23293440.3044
       151.000
  22229731.542   -12466763.65446  -9472217.71648  22229731.7574   22229737.1614
       165.000
  21702731.052   -18154911.39146 -13820833.01448  21702730.7524   21702736.8284
       179.000
  23342332.369    -7798441.11146  -5779700.35147  23342331.7804   23342337.4454
       150.000
  21311563.221   -27969984.88446 -21508530.89848  21311563.1124   21311568.9964
       187.000
  19273376.410   -39038842.46047 -30400617.09648  19273376.4494   19273381.0444
       219.000
  21480510.977   -26470287.11446 -19956485.28748  21480510.6424   21480516.2184
       184.000
  20563554.053   -26302486.23846 -19631602.25648  20563553.5784   20563559.0304
       201.000
 96  4 20  2 27 29.9960000  0  8 05 26 23 22 20 06 16 17
  23310336.628   -22512650.40046 -17503846.05347  23310336.2404   23310342.8214
       151.000
  22213308.372   -12553067.74146  -9539467.61648  22213308.5864   22213314.0104
       165.000
  21681768.353   -18265070.77546 -13906671.44948  21681768.0344   21681774.1264
       180.000
  23324932.449    -7889878.13946  -5850949.95747  23324931.9264   23324937.6534
       150.000
  21325426.678   -27897132.28646 -21451762.66148  21325426.5554   21325432.4594
       187.000
  19267827.113   -39068004.33047 -30423340.62848  19267827.1614   19267831.7574
       219.000
  21492379.497   -26407917.73446 -19907885.76848  21492379.1464   21492384.7104
       184.000
  20551480.024   -26365935.58946 -19681043.29148  20551479.5474   20551485.0174
       201.000
 96  4 20  2 27 59.9960000  0  8 05 26 23 22 20 06 16 17
  23327235.817   -22423845.01446 -17434647.11347  23327235.3614   23327241.9384
       150.000
  22196934.331   -12639113.76946  -9606516.42848  22196934.5124   22196939.9284
       165.000
  21660852.924   -18374981.86946 -13992316.42248  21660852.6044   21660858.7294
       181.000
  23307604.443    -7980937.10746  -5921904.96947  23307603.9924   23307609.5514
       150.000
  21339340.471   -27824014.82646 -21394788.03348  21339340.3524   21339346.2884
       186.000
  19262346.151   -39096807.00747 -30445784.26948  19262346.1854   19262350.7894
       219.000
  21504302.732   -26345260.61746 -19859062.04348  21504302.3924   21504307.9204
       184.000
  20539446.072   -26429174.21846 -19730320.13548  20539445.5984   20539451.0534
       202.000
 96  4 20  2 28 29.9960000  0  8 05 26 23 22 20 06 16 17
  23344130.367   -22335063.35446 -17365466.67047  23344130.0254   23344136.6424
       149.000
  22180610.865   -12724894.30646  -9673358.35948  22180611.0234   22180616.4234
       165.000
  21639985.220   -18484642.22046 -14077766.00048  21639984.9014   21639991.0244
       181.000
  23290349.393    -8071612.64446  -5992561.19947  23290348.9274   23290354.5274
       151.000
  21353302.189   -27750645.04746 -21337616.79348  21353302.0974   21353308.0824
       186.000
  19256935.801   -39125238.42547 -30467938.62248  19256935.8514   19256940.4514
       219.000
  21516284.308   -26282297.08346 -19809999.54648  21516283.9774   21516289.4934
       184.000
  20527450.504   -26492211.25546 -19779439.88448  20527450.0324   20527455.4784
       202.000
 96  4 20  2 28 59.9960000  0  8 05 26 23 22 20 06 16 17
  23361025.141   -22246281.03746 -17296285.70747  23361024.8194   23361031.4174
       147.000
  22164341.926   -12810388.16746  -9739976.91948  22164342.0864   22164347.4014
       166.000
  21619168.944   -18594032.28546 -14163004.97048  21619168.6024   21619174.7624
       181.000
  23273173.284    -8161873.78846  -6062894.52247  23273172.7484   23273178.4754
       151.000
  21367316.523   -27676999.34146 -21280230.55048  21367316.4254   21367322.4424
       186.000
  19251601.751   -39153269.11647 -30489780.71448  19251601.7934   19251606.3934
       219.000
  21528329.377   -26218999.84546 -19760677.02148  21528329.0584   21528334.5564
       184.000
  20515497.821   -26555022.99546 -19828384.07048  20515497.3474   20515502.8134
       202.000
 96  4 20  2 29 29.9960000  0  8 05 26 23 22 20 06 16 17
  23377913.643   -22157531.67046 -17227130.42847  23377913.2574   23377919.9664
       145.000
  22148124.543   -12895610.92846  -9806384.21448  22148124.6734   22148129.9824
       166.000
  21598401.691   -18703164.91946 -14248043.34348  21598401.3484   21598407.5124
       182.000
  23256070.409    -8251749.68646  -6132927.66047  23256069.8584   23256075.5834
       151.000
  21381379.812   -27603096.21646 -21222643.72548  21381379.6794   21381385.7374
       186.000
  19246343.527   -39180901.22247 -30511312.22548  19246343.5744   19246348.1704
       219.000
  21540435.873   -26155379.83946 -19711103.00148  21540435.5274   21540441.0604
       184.000
  20503582.332   -26617639.06346 -19877175.79148  20503581.8664   20503587.3314
       202.000
 96  4 20  2 29 59.9960000  0  8 05 26 23 22 20 06 16 17
  23394796.367   -22068812.42046 -17157998.61747  23394796.0594   23394802.7944
       143.000
  22131962.553   -12980542.77246  -9872564.83748  22131962.7114   22131967.9904
       167.000
  21577689.024   -18812010.43746 -14332857.99048  21577688.6674   21577694.8424
       182.000
  23239040.869    -8341240.18646  -6202660.48047  23239040.3474   23239046.0404
       151.000
  21395488.754   -27528953.28946 -21164870.04248  21395488.6714   21395494.7104
       185.000
  19241166.179   -39208108.37347 -30532512.59848  19241166.2284   19241170.8034
       219.000
  21552607.311   -26091418.45746 -19661262.96648  21552606.9604   21552612.5274
       183.000
  20491706.134   -26680048.57146 -19925806.55248  20491705.6674   20491711.1414
       202.000
 96  4 20  2 30 29.9960000  0  8 05 26 23 22 20 06 16 17
  23411668.294   -21980149.69646 -17088910.86547  23411668.0604   23411674.6664
       141.000
  22115850.276   -13065213.13646  -9938541.69848  22115850.4164   22115855.6394
       167.000
  21557025.982   -18920595.34446 -14417469.56448  21557025.6524   21557031.8034
       183.000
  23222079.658    -8430371.74746  -6272113.61747  23222079.1694   23222084.8734
       152.000
  21409637.116   -27454603.13346 -21106934.87948  21409637.0364   21409643.0744
       185.000
  19236063.520   -39234922.99147 -30553407.10448  19236063.5504   19236068.1274
       219.000
  21564836.972   -26027151.18446 -19611184.58048  21564836.6044   21564842.1934
       183.000
  20479865.257   -26742272.69246 -19974292.85948  20479864.7754   20479870.2474
       202.000
 96  4 20  2 30 59.9960000  0  8 05 26 23 22 20 06 16 17
  23428531.743   -21891532.03246 -17019858.20347  23428531.4354   23428538.2314
       141.000
  22099792.417   -13149597.54746 -10004295.73848  22099792.6224   22099797.7574
       167.000
  21536417.305   -19028894.62246 -14501858.55748  21536416.9594   21536423.0794
       183.000
  23205190.232    -8519126.21846  -6341272.92547  23205189.6724   23205195.3704
       152.000
  21423830.147   -27380018.31046 -21048816.86348  21423830.0414   21423836.1254
       185.000
  19231038.172   -39261331.20047 -30573984.92648  19231038.2094   19231042.8134
       219.000
  21577124.084   -25962581.90446 -19560870.85448  21577123.7384   21577129.3114
       183.000
  20468065.668   -26804279.71646 -20022610.00148  20468065.2234   20468070.6904
       202.000
 96  4 20  2 31 29.9960000  0  8 05 26 23 22 20 06 16 17
  23445386.429   -21802960.03346 -16950841.13347  23445386.1374   23445392.9034
       140.000
  22083791.484   -13233682.86346 -10069816.72048  22083791.7094   22083796.8344
       167.000
  21515868.252   -19136880.39146 -14586003.26848  21515867.8854   21515873.9764
       184.000
  23188374.078    -8607495.63946  -6410132.18047  23188373.5234   23188379.1754
       153.000
  21438066.911   -27305203.72646 -20990519.81748  21438066.8154   21438072.8944
       185.000
  19226091.648   -39287325.27847 -30594240.05248  19226091.6844   19226096.2804
       219.000
  21589467.930   -25897714.59746 -19510324.91348  21589467.5734   21589473.1524
       182.000
  20456307.537   -26866069.16946 -20070757.60948  20456307.0934   20456312.5504
       203.000
 96  4 20  2 31 59.9960000  0  8 05 26 23 22 20 06 16 17
  23462233.247   -21714429.43146 -16881856.30847  23462232.8954   23462239.6534
       139.000
  22067849.245   -13317459.47246 -10135097.14548  22067849.4964   22067854.6434
       168.000
  21495379.913   -19244547.31746 -14669899.53148  21495379.5384   21495385.6094
       184.000
  23171636.276    -8695453.34046  -6478670.62647  23171635.7004   23171641.3664
       154.000
  21452346.943   -27230161.89646 -20932045.69448  21452346.8694   21452352.9384
       185.000
  19221223.093   -39312909.78247 -30614176.02548  19221223.1144   19221227.7274
       219.000
  21601867.400   -25832555.06246 -19459551.25448  21601867.0594   21601872.6324
       182.000
  20444590.444   -26927642.93246 -20118737.14348  20444589.9854   20444595.4384
       203.000
 96  4 20  2 32 29.9960000  0  8 05 26 23 22 20 06 16 17
  23479069.240   -21625956.33446 -16812916.29947  23479068.8094   23479075.6314
       139.000
  22051964.136   -13400936.19046 -10200143.89848  22051964.3534   22051969.5104
       168.000
  21474947.960   -19351917.89446 -14753564.86748  21474947.5834   21474953.6294
       185.000
  23154974.819    -8783009.96146  -6546896.53347  23154974.2054   23154979.7984
       155.000
  21466669.531   -27154896.26446 -20873397.17448  21466669.4344   21466675.5364
       185.000
  19216428.172   -39338107.08147 -30633810.28848  19216428.2044   19216432.8144
       219.000
  21614317.989   -25767126.89646 -19408568.27348  21614317.6694   21614323.1964
       182.000
  20432910.791   -26989020.11146 -20166563.49748  20432910.3314   20432915.7834
       203.000
 96  4 20  2 32 59.9960000  0  8 05 26 23 22 20 06 16 17
  23495895.032   -21537536.24946 -16744017.58847  23495894.6004   23495901.4844
       139.000
  22036136.944   -13484108.50346 -10264953.45048  22036137.1704   22036142.3014
       169.000
  21454574.723   -19458979.89146 -14836989.75848  21454574.3374   21454580.3674
       185.000
  23138389.188    -8870168.06746  -6614811.91647  23138388.5974   23138394.1734
       156.000
  21481030.613   -27079428.08146 -20814590.82348  21481030.5124   21481036.6364
       184.000
  19211709.010   -39362906.51847 -30653134.52248  19211709.0414   19211713.6574
       219.000
  21626819.057   -25701433.24546 -19357378.42248  21626818.7454   21626824.2944
       182.000
  20421266.974   -27050208.46346 -20214242.71648  20421266.5314   20421272.0034
       203.000
 96  4 20  2 33 29.9960000  0  8 05 26 23 22 20 06 16 17
  23512711.843   -21449163.94646 -16675156.10447  23512711.3694   23512718.3394
       139.000
  22020369.087   -13566969.01346 -10329520.03748  22020369.2964   22020374.4814
       169.000
  21434258.623   -19565741.64246 -14920180.69648  21434258.2524   21434264.2474
       186.000
  23121880.248    -8956923.31046  -6682413.37947  23121879.6064   23121885.1414
       157.000
  21495428.975   -27003764.37846 -20755632.11548  21495428.8644   21495435.0124
       183.000
  19207066.833   -39387301.28147 -30672143.42448  19207066.8744   19207071.4734
       219.000
  21639373.581   -25635458.90046 -19305969.84348  21639373.2544   21639378.8344
       182.000
  20409657.273   -27111218.06846 -20261782.64448  20409656.8194   20409662.2644
       203.000
 96  4 20  2 33 59.9960000  0  8 05 26 23 22 20 06 16 17
  23529521.961   -21360826.51746 -16606321.80447  23529521.5914   23529528.2804
       139.000
  22004663.809   -13649500.55246 -10393830.29548  22004664.0784   22004669.2394
       170.000
  21413995.538   -19672224.61846 -15003154.40648  21413995.1604   21414001.1484
       186.000
  23105447.826    -9043276.08446  -6749701.22547  23105447.2124   23105452.7664
       157.000
  21509867.863   -26927887.59846 -20696507.38048  21509867.7584   21509873.8924
       182.000
  19202505.782   -39411269.80347 -30690820.19748  19202505.8224   19202510.4444
       219.000
  21651982.889   -25569196.54646 -19254336.85048  21651982.5644   21651988.1324
       182.000
  20398085.091   -27172030.10746 -20309168.62648  20398084.6404   20398090.0754
       203.000
 96  4 20  2 34 29.9960000  0  8 05 26 23 22 20 06 16 17
  23546323.016   -21272536.73146 -16537524.61147  23546322.6204   23546329.3824
       139.000
  21989016.116   -13731729.49146 -10457904.76048  21989016.4104   21989021.5684
       170.000
  21393782.100   -19778446.69846 -15085924.81848  21393781.7434   21393787.7324
       187.000
  23089086.650    -9129254.53546  -6816697.40247  23089086.0284   23089091.6424
       157.000
  21524344.386   -26851813.14846 -20637228.62448  21524344.2674   21524350.4104
       182.000
  19198023.493   -39434824.38847 -30709174.41648  19198023.5254   19198028.1524
       219.000
  21664643.493   -25502664.65246 -19202493.81548  21664643.1304   21664648.7044
       182.000
  20386550.411   -27232645.28646 -20356401.20948  20386549.9554   20386555.3954
       204.000
 96  4 20  2 34 59.9960000  0  8 05 26 23 22 20 06 16 17
  23563121.427   -21184261.04546 -16468738.41647  23563121.0014   23563127.6774
       138.000
  21973428.627   -13813642.24346 -10521732.83248  21973428.9324   21973434.0164
       170.000
  21373621.548   -19884390.87746 -15168478.68948  21373621.2104   21373627.1514
       187.000
  23072804.358    -9214818.25546  -6883370.40847  23072803.7614   23072809.3984
       157.000
  21538862.791   -26775518.47046 -20577778.26048  21538862.7054   21538868.8064
       181.000
  19193624.206   -39457942.84747 -30727188.79648  19193624.2404   19193628.8644
       219.000
  21677359.293   -25435842.96646 -19150424.98548  21677358.9174   21677364.5034
       182.000
  20375059.778   -27293028.84646 -20403453.31648  20375059.3404   20375064.7464
       204.000
 96  4 20  2 35 29.9960000  0  8 05 26 23 22 20 06 16 17
  23579918.784   -21095990.67246 -16399956.35147  23579918.6224   23579924.9474
       138.000
  21957903.327   -13895228.19646 -10585306.26248  21957903.6304   21957908.6944
       170.000
  21353514.676   -19990053.13746 -15250812.87948  21353514.3304   21353520.2694
       187.000
  23056605.580    -9299943.45446  -6949701.70447  23056604.9554   23056610.6394
       157.000
  21553428.937   -26698973.03246 -20518132.49248  21553428.8614   21553434.9424
       181.000
  19189307.512   -39480627.04147 -30744864.78848  19189307.5694   19189312.1684
       219.000
  21690133.045   -25368716.55846 -19098118.69648  21690132.6744   21690138.2614
       182.000
  20363617.744   -27353157.08046 -20450306.46648  20363617.3014   20363622.6934
       204.000
 96  4 20  2 35 59.9960000  0  7 26 23 22 20 06 16 17
  21942430.119   -13976540.29946 -10648666.29548  21942430.4214   21942435.4754
       171.000
  21333455.389   -20095465.14846 -15332952.07948  21333455.0374   21333460.9724
       188.000
  23040481.567    -9384675.60246  -7015726.74047  23040480.9974   23040486.5804
       156.000
  21568032.975   -26622228.22346 -20458331.36748  21568032.9024   21568038.9834
       180.000
  19185063.385   -39502930.20947 -30762243.87748  19185063.4374   19185068.0344
       219.000
  21702954.588   -25301338.90146 -19045616.63048  21702954.1984   21702959.7914
       182.000
  20352215.471   -27413076.42446 -20496996.84348  20352215.0254   20352220.4044
       204.000
 96  4 20  2 36 29.9960000  0  7 26 23 22 20 06 16 17
  21927011.731   -14057564.31146 -10711801.85948  21927012.0364   21927017.1014
       170.000
  21313452.458   -20200581.17246 -15414860.63048  21313452.1044   21313458.0384
       188.000
  23024435.976    -9468995.64546  -7081430.64647  23024435.3964   23024440.9854
       155.000
  21582674.907   -26545284.16546 -20398374.98448  21582674.8454   21582680.9394
       179.000
  19180892.599   -39524847.81347 -30779322.52848  19180892.6544   19180897.2544
       219.000
  21715825.496   -25233701.82846 -18992912.43348  21715825.1074   21715830.6964
       181.000
  20340855.061   -27472775.48846 -20543515.57648  20340854.6194   20340859.9954
       204.000
 96  4 20  2 36 59.9960000  0  7 26 23 22 20 06 16 17
  21911653.165   -14138273.95646 -10774692.45748  21911653.4284   21911658.5094
       171.000
  21293506.273   -20305399.13746 -15496536.93548  21293505.9234   21293511.8484
       188.000
  23008468.225    -9552906.61846  -7146815.80247  23008467.6194   23008473.2184
       154.000
  21597354.521   -26468142.15546 -20338264.34348  21597354.4624   21597360.5884
       178.000
  19176796.961   -39546370.50647 -30796093.45748  19176797.0104   19176801.6104
       219.000
  21728745.470   -25165806.89146 -18940007.29348  21728745.0834   21728750.6764
       181.000
  20329533.667   -27532269.77546 -20589874.74748  20329533.2374   20329538.6144
       204.000
 96  4 20  2 37 29.9960000  0  7 26 23 22 20 06 16 17
  21896360.108   -14218639.16646 -10837314.66648  21896360.3454   21896365.4074
       171.000
  21273619.388   -20409905.21646 -15577970.21148  21273619.0604   21273624.9834
       188.000
  22992575.635    -9636422.43346  -7211893.03147  22992575.0824   22992580.5844
       153.000
  21612071.640   -26390803.11246 -20278000.18548  21612071.5644   21612077.7064
       178.000
  19172781.345   -39567472.85347 -30812536.84548  19172781.3804   19172785.9674
       219.000
  21741715.725   -25097647.80246 -18886896.32148  21741715.3644   21741720.9224
       181.000
  20318249.353   -27591569.34146 -20636082.18648  20318248.8994   20318254.2684
       205.000
 96  4 20  2 37 59.9960000  0  7 26 23 22 20 06 16 17
  21881134.843   -14298648.12146 -10899659.27548  21881135.0864   21881140.1464
       171.000
  21253792.971   -20514093.54346 -15659155.89348  21253792.6364   21253798.5534
       188.000
  22976757.560    -9719546.94346  -7276665.37247  22976756.8724   22976762.4604
       151.000
  21626825.698   -26313270.38546 -20217585.09648  21626825.6104   21626831.7504
       178.000
  19168848.957   -39588137.52847 -30828639.18548  19168849.0024   19168853.6034
       219.000
  21754735.338   -25029229.20946 -18833583.14248  21754734.9504   21754740.5894
       180.000
  20307000.005   -27650684.98146 -20682146.30248  20306999.5674   20307004.9074
       205.000
 96  4 20  2 38 29.9960000  0  7 26 23 22 20 06 16 17
  21865979.453   -14378290.11246 -10961717.92848  21865979.6874   21865984.7524
       171.000
  21234027.627   -20617960.99546 -15740091.53448  21234027.2894   21234033.1754
       188.000
  22961017.491    -9802261.32146  -7341118.10847  22961016.8194   22961022.3724
       150.000
  21641618.183   -26235535.83346 -20157012.74248  21641618.0704   21641624.1534
       178.000
  19165001.145   -39608357.82547 -30844395.26248  19165001.1964   19165005.7784
       219.000
  21767807.064   -24960536.72346 -18780056.53648  21767806.7014   21767812.3624
       180.000
  20295786.921   -27709610.17646 -20728062.01748  20295786.4494   20295791.7824
       205.000
 96  4 20  2 38 59.9960000  0  7 26 23 22 20 06 16 17
  21850892.367   -14457573.01346 -11023496.78348  21850892.5824   21850897.6594
       171.000
  21214319.321   -20721528.54846 -15820793.49748  21214318.9834   21214324.8594
       188.000
  22945356.242    -9884561.30746  -7405247.95247  22945355.6014   22945361.1184
       149.000
  21656446.594   -26157612.37446 -20096293.21248  21656446.4944   21656452.4984
       177.000
  19161235.312   -39628147.30247 -30859815.63748  19161235.3634   19161239.9434
       219.000
  21780930.962   -24891570.16046 -18726316.37048  21780930.6064   21780936.2874
       180.000
  20284606.543   -27768363.31746 -20773843.66848  20284606.0794   20284611.4094
       205.000
 96  4 20  2 39 29.9960000  0  7 26 23 22 20 06 16 17
  21835864.848   -14536543.04546 -11085031.84148  21835865.0654   21835870.1594
       172.000
  21194666.266   -20824805.94646 -15901269.36348  21194665.9384   21194671.7894
       189.000
  22929771.402    -9966460.05646  -7469065.13547  22929770.8004   22929776.3244
       148.000
  21671305.087   -26079530.65546 -20035450.35448  21671304.9884   21671310.9574
       177.000
  19157545.204   -39647538.96847 -30874926.02348  19157545.2674   19157549.8434
       219.000
  21794103.280   -24822349.20346 -18672377.96548  21794102.9274   21794108.5784
       179.000
  20273456.583   -27826956.62446 -20819500.76948  20273456.1184   20273461.4554
       205.000
 96  4 20  2 39 59.9960000  0  7 26 23 22 20 06 16 17
  21820895.896   -14615205.26946 -11146327.05248  21820896.1284   21820901.2614
       172.000
  21175072.932   -20927769.74546 -15981500.86548  21175072.5824   21175078.4054
       190.000
  22914267.326   -10047934.51546  -7532551.71347  22914266.7034   22914272.2564
       148.000
  21686194.031   -26001289.07746 -19974482.91748  21686193.9304   21686199.8684
       177.000
  19153930.269   -39666535.73947 -30889728.70148  19153930.3004   19153934.8734
       218.000
  21807325.037   -24752868.36546 -18618237.07148  21807324.6634   21807330.3584
       178.000
  20262342.117   -27885363.33946 -20865012.47748  20262341.6534   20262347.0024
       205.000
 96  4 20  2 40 29.9960000  0  7 26 23 22 20 06 16 17
  21805991.981   -14693525.68446 -11207355.90948  21805992.2164   21805997.3074
       172.000
  21155544.660   -21030391.71546 -16061466.00248  21155544.3214   21155550.1024
       190.000
  22898847.664   -10128965.42746  -7595692.66247  22898847.0984   22898852.6064
       149.000
  21701117.208   -25922867.39146 -19913375.13148  21701117.1194   21701123.0424
       177.000
  19150394.545   -39685116.01047 -30904206.83548  19150394.5784   19150399.1454
       218.000
  21820599.800   -24683108.87046 -18563879.02748  21820599.4434   21820605.1344
       177.000
  20251270.029   -27943547.32446 -20910350.62648  20251269.5784   20251274.9394
       205.000
 96  4 20  2 40 59.9960000  0  7 26 23 22 20 06 16 17
  21791151.755   -14771511.54646 -11268124.08348  21791151.9894   21791157.0924
       173.000
  21136080.514   -21132676.30446 -16141168.25248  21136080.1964   21136085.9474
       191.000
  22883506.536   -10209583.12946  -7658511.63347  22883505.9884   22883511.5344
       149.000
  21716072.152   -25844278.88346 -19852137.36648  21716072.0364   21716078.0034
       177.000
  19146939.679   -39703271.45447 -30918353.93848  19146939.7194   19146944.3054
       218.000
  21833922.098   -24613099.63346 -18509326.38048  21833921.7414   21833927.4674
       176.000
  20240239.622   -28001512.44646 -20955518.24448  20240239.1644   20240244.5224
       205.000
 96  4 20  2 41 29.9960000  0  7 26 23 22 20 06 16 17
  21776375.205   -14849162.62446 -11328631.39148  21776375.4494   21776380.5424
       173.000
  21116680.529   -21234623.92546 -16220607.93448  21116680.1864   21116685.9224
       191.000
  22868243.479   -10289790.85946  -7721011.14447  22868242.9054   22868248.4714
       150.000
  21731061.159   -25765511.41146 -19790760.14148  21731061.0104   21731067.0034
       177.000
  19143568.344   -39720988.01347 -30932159.05848  19143568.3934   19143572.9614
       218.000
  21847288.891   -24542856.68146 -18454591.61848  21847288.5474   21847294.2404
       175.000
  20229251.105   -28059257.29546 -21000514.21648  20229250.6614   20229256.0204
       205.000
 96  4 20  2 41 59.9960000  0  7 26 23 22 20 06 16 17
  21761664.915   -14926465.34246 -11388867.24048  21761665.1734   21761670.2454
       173.000
  21097339.923   -21336259.30846 -16299804.31348  21097339.5764   21097345.3114
       191.000
  22853056.875   -10369596.64546  -7783197.45847  22853056.2984   22853061.9914
       150.000
  21746083.189   -25686570.01546 -19729247.39848  21746083.0404   21746089.0394
       177.000
  19140278.684   -39738275.27747 -30945629.65748  19140278.7214   19140283.2964
       218.000
  21860698.377   -24472389.25146 -18399681.93448  21860698.0434   21860703.7504
       174.000
  20218301.449   -28116798.09746 -21045351.18848  20218301.0114   20218306.3694
       206.000
 96  4 20  2 42 29.9960000  0  7 26 23 22 20 06 16 17
  21747022.467   -15003411.85646 -11448825.53248  21747022.7194   21747027.7924
       173.000
  21078057.566   -21437588.54746 -16378762.13348  21078057.2354   21078062.9424
       192.000
  22837950.218   -10448982.80646  -7845056.78647  22837949.6464   22837955.2524
       151.000
  21761140.847   -25607441.61346 -19667588.93048  21761140.7054   21761146.7124
       177.000
  19137072.546   -39755123.64247 -30958758.25948  19137072.6004   19137077.1814
       218.000
  21874151.882   -24401690.47846 -18344591.99048  21874151.5204   21874157.2014
       174.000
  20207390.825   -28174133.83746 -21090028.37348  20207390.3654   20207395.7274
       206.000
 96  4 20  2 42 59.9960000  0  7 26 23 22 20 06 16 17
  21732446.106   -15080011.02846 -11508513.16148  21732446.4214   21732451.4514
       173.000
  21058832.306   -21538617.74246 -16457486.15948  21058831.9944   21058837.6884
       192.000
  22822927.340   -10527928.62946  -7906572.99147  22822926.7464   22822932.3554
       153.000
  21776230.638   -25528144.18346 -19605798.75148  21776230.5294   21776236.5974
       177.000
  19133949.105   -39771537.44847 -30971548.23748  19133949.1534   19133953.7234
       218.000
  21887648.092   -24330767.52346 -18289327.35048  21887647.7274   21887653.3674
       174.000
  20196517.069   -28231275.57346 -21134554.38448  20196516.6034   20196521.9534
       206.000
 96  4 20  2 43 29.9960000  0  7 26 23 22 20 06 16 17
  21717936.327   -15156260.36246 -11567928.20048  21717936.6254   21717941.6644
       174.000
  21039662.574   -21639355.28646 -16535982.92248  21039662.2454   21039667.9344
       192.000
  22807990.132   -10606424.24046  -7967738.38747  22807989.5474   22807995.0804
       153.000
  21791350.768   -25448687.59046 -19543884.55848  21791350.6524   21791356.7484
       177.000
  19130903.251   -39787543.35247 -30984020.37748  19130903.2914   19130907.8544
       218.000
  21901187.411   -24259618.00346 -18233886.17048  21901187.0834   21901192.6894
       174.000
  20185680.243   -28288223.34246 -21178929.25248  20185679.7954   20185685.1274
       206.000
 96  4 20  2 43 59.9960000  0  7 26 23 22 20 06 16 17
  21703492.365   -15232163.62346 -11627073.56448  21703492.6554   21703497.6784
       174.000
  21020547.130   -21739807.40446 -16614257.27448  21020546.8184   21020552.4884
       193.000
  22793135.418   -10684486.45146  -8028566.07847  22793134.8214   22793140.3054
       154.000
  21806495.793   -25369099.99546 -19481868.26648  21806495.6874   21806501.8114
       177.000
  19127931.993   -39803157.46247 -30996187.22748  19127932.0484   19127936.5934
       218.000
  21914768.229   -24188250.52546 -18178275.15148  21914767.8824   21914773.4394
       173.000
  20174881.494   -28344971.28846 -21223148.41848  20174881.0504   20174886.3734
       206.000
 96  4 20  2 44 29.9960000  0  7 26 23 22 20 06 16 17
  21689123.777   -15307670.90046 -11685910.37848  21689124.0814   21689129.0884
       174.000
  21001495.336   -21839925.38546 -16692271.26448  21001495.0084   21001500.6944
       193.000
  22778370.936   -10762074.28946  -8089024.10947  22778370.3524   22778375.7394
       155.000
  21821671.162   -25289352.76946 -19419727.62148  21821671.0924   21821677.2654
       176.000
  19125047.209   -39818317.18647 -31007999.99848  19125047.2554   19125051.8104
       218.000
  21928395.188   -24116640.54646 -18122475.16648  21928394.8784   21928400.3674
       173.000
  20164128.324   -28401479.67746 -21267180.92348  20164127.8654   20164133.1824
       207.000
 96  4 20  2 44 59.9960000  0  7 26 23 22 20 06 16 17
  21674831.974   -15382774.91746 -11744432.95248  21674832.2464   21674837.2244
       174.000
  20982506.115   -21939714.15346 -16770028.72348  20982505.7944   20982511.4554
       193.000
  22763690.102   -10839222.36746  -8149139.48547  22763689.5264   22763694.9674
       156.000
  21836873.980   -25209461.56346 -19357474.77148  21836873.9074   21836880.1164
       176.000
  19122248.403   -39833025.08347 -31019460.70148  19122248.4534   19122253.0204
       218.000
  21942065.696   -24044801.51946 -18066496.71248  21942065.3944   21942070.9244
       173.000
  20153417.962   -28457763.08746 -21311038.12248  20153417.4894   20153422.7934
       207.000
 96  4 20  2 45 29.9960000  0  7 26 23 22 20 06 16 17
  21660609.143   -15457516.38446 -11802673.03748  21660609.4624   21660614.4204
       175.000
  20963573.044   -22039207.95846 -16847556.34248  20963572.7214   20963578.3834
       193.000
  22749081.640   -10915990.46346  -8208958.77447  22749081.0594   22749086.4904
       157.000
  21852097.621   -25129460.64646 -19295136.41848  21852097.5584   21852103.8194
       176.000
  19119529.486   -39847313.15247 -31030594.26648  19119529.5354   19119534.0994
       218.000
  21955774.022   -23972763.92646 -18010363.52748  21955773.7044   21955779.2244
       173.000
  20142742.641   -28513862.14746 -21354751.67248  20142742.1704   20142747.4684
       207.000
 96  4 20  2 45 59.9960000  0  7 26 23 22 20 06 16 17
  21646465.181   -15531843.25146 -11860590.04148  21646465.5044   21646470.4694
       175.000
  20944705.409   -22138357.67346 -16924815.83748  20944705.1024   20944710.7774
       193.000
  22734557.422   -10992315.44546  -8268432.77047  22734556.8844   22734562.3234
       157.000
  21867351.031   -25049303.65246 -19232676.45348  21867350.9684   21867357.2674
       176.000
  19116902.471   -39861118.21947 -31041351.46448  19116902.5244   19116907.0994
       218.000
  21969527.252   -23900490.46646 -17954046.53748  21969526.9234   21969532.4214
       174.000
  20132108.441   -28569745.13046 -21398296.85148  20132107.9924   20132113.2754
       207.000
 96  4 20  2 46 29.9960000  0  7 26 23 22 20 06 16 17
  21632392.745   -15605794.18046 -11918214.11648  21632393.0364   21632398.0214
       175.000
  20925896.655   -22237198.24346 -17001834.44048  20925896.3444   20925902.0374
       193.000
  22720110.829   -11068232.81946  -8327589.15047  22720110.2554   22720115.7874
       158.000
  21882627.997   -24969022.65746 -19170119.86748  21882627.9524   21882634.2424
       175.000
  19114359.031   -39874484.04647 -31051766.38948  19114359.0754   19114363.6574
       218.000
  21983316.615   -23828026.86546 -17897581.39448  21983316.2974   21983321.8034
       174.000
  20121503.542   -28625474.32146 -21441722.19248  20121503.0734   20121508.3614
       207.000
 96  4 20  2 46 59.9960000  0  7 26 23 22 20 06 16 17
  21618393.103   -15679362.56046 -11975540.09148  21618393.4084   21618398.3634
       175.000
  20907152.387   -22335699.92046 -17078588.97248  20907152.0704   20907157.7684
       193.000
  22705748.802   -11143705.75546  -8386399.21447  22705748.1784   22705753.7634
       158.000
  21897934.199   -24888588.23846 -19107443.72948  21897934.1354   21897940.4114
       175.000
  19111900.233   -39887405.26847 -31061834.87948  19111900.2674   19111904.8334
       218.000
  21997148.542   -23755339.38846 -17840941.80848  21997148.2414   21997153.7654
       174.000
  20110935.444   -28681010.01946 -21484996.75648  20110935.0094   20110940.2644
       207.000
 96  4 20  2 47 29.9960000  0  7 26 23 22 20 06 16 17
  21604468.665   -15752536.06646 -12032558.38948  21604468.9384   21604473.9114
       175.000
  20888475.676   -22433846.52446 -17155066.82648  20888475.3304   20888481.0864
       193.000
  22691479.164   -11218693.24646  -8444831.00947  22691478.5274   22691484.1494
       159.000
  21913272.186   -24807986.76746 -19044637.41648  21913272.1274   21913278.3944
       174.000
  19109527.769   -39899872.47347 -31071549.58948  19109527.8194   19109532.3754
       218.000
  22011024.246   -23682422.13746 -17784123.17648  22011023.9454   22011029.5034
       174.000
  20100406.395   -28736340.52846 -21528111.43548  20100405.9394   20100411.2194
       207.000
 96  4 20  2 47 59.9960000  0  7 26 23 22 20 06 16 17
  21590617.405   -15825324.81646 -12089276.86348  21590617.6874   21590622.6314
       175.000
  20869863.001   -22531656.47746 -17231282.35248  20869862.6754   20869868.4304
       193.000
  22677299.515   -11293207.85446  -8502894.31747  22677298.9124   22677304.4574
       160.000
  21928638.540   -24727236.24946 -18981714.97048  21928638.4604   21928644.7124
       173.000
  19107235.456   -39911918.81347 -31080936.34748  19107235.4964   19107240.0584
       218.000
  22024937.043   -23609309.89646 -17727152.60648  22024936.7334   22024942.3214
       174.000
  20089911.127   -28791493.56046 -21571087.81948  20089910.6744   20089915.9414
       208.000
 96  4 20  2 48 29.9960000  0  7 26 23 22 20 06 16 17
  21576839.020   -15897730.60046 -12145696.92948  21576839.2954   21576844.2774
       176.000
  20851317.869   -22629111.70446 -17307221.46648  20851317.5434   20851323.3214
       194.000
  22663206.606   -11367266.38546  -8560602.24747  22663206.0994   22663211.5964
       160.000
  21944032.758   -24646339.30246 -18918678.41948  21944032.6824   21944038.9264
       172.000
  19105024.487   -39923537.42247 -31089989.81348  19105024.5374   19105029.1014
       218.000
  22038889.731   -23535988.06246 -17670018.72248  22038889.4144   22038895.0234
       173.000
  20079452.281   -28846455.19046 -21613915.06348  20079451.8154   20079457.1024
       208.000
 96  4 20  2 48 59.9960000  0  7 26 23 22 20 06 16 17
  21563135.461   -15969743.37646 -12201810.75748  21563135.7324   21563140.6944
       176.000
  20832840.981   -22726208.15546 -17382881.01248  20832840.6554   20832846.4444
       194.000
  22649203.764   -11440852.03946  -8617941.68647  22649203.1934   22649208.6974
       160.000
  21959453.588   -24565302.27546 -18855532.71448  21959453.4674   21959459.7164
       171.000
  19102899.084   -39934706.69847 -31098693.13948  19102899.1184   19102903.6954
       218.000
  22052884.537   -23462444.61746 -17612712.14748  22052884.2064   22052889.8544
       172.000
  20069031.495   -28901216.82446 -21656586.47048  20069031.0194   20069036.2944
       208.000
 96  4 20  2 49 29.9960000  0  7 26 23 22 20 06 16 17
  21549510.624   -16041342.25146 -12257602.05648  21549510.8844   21549515.7834
       176.000
  20814432.647   -22822944.41846 -17458259.88548  20814432.3384   20814438.1504
       195.000
  22635287.918   -11513980.22746  -8674924.67147  22635287.3374   22635292.7704
       160.000
  21974900.190   -24484129.99546 -18792281.61148  21974900.0844   21974906.2594
       170.000
  19100860.837   -39945417.69747 -31107039.37048  19100860.8694   19100865.4424
       218.000
  22066920.648   -23388684.26446 -17555236.56048  22066920.2994   22066926.0094
       171.000
  20058645.635   -28955794.81546 -21699114.77148  20058645.1594   20058650.4424
       208.000
 96  4 20  2 49 59.9960000  0  7 26 23 22 20 06 16 17
  21535961.486   -16112543.18146 -12313083.27248  21535961.7744   21535966.6784
       176.000
  20796090.270   -22919333.97046 -17533368.60248  20796089.9774   20796095.7924
       196.000
  22621453.716   -11586679.42946  -8731573.37947  22621453.1044   22621458.4934
       160.000
  21990367.872   -24402846.78746 -18728944.08148  21990367.8054   21990373.9204
       169.000
  19098908.349   -39955678.08247 -31115034.48348  19098908.3914   19098912.9454
       218.000
  22080997.479   -23314709.79246 -17497594.13548  22080997.1444   22081002.8694
       170.000
  20048295.155   -29010186.98446 -21741498.27148  20048294.6944   20048299.9624
       208.000
 96  4 20  2 50 29.9960000  0  7 26 23 22 20 06 16 17
  21522482.874   -16183373.79246 -12368275.93848  21522483.1354   21522488.0254
       176.000
  20777808.893   -23015403.22746 -17608227.73448  20777808.5824   20777814.3894
       196.000
  22607697.882   -11658966.93246  -8787901.27347  22607697.2774   22607702.6964
       160.000
  22005851.084   -24321482.18146 -18665543.12248  22005850.9864   22005857.0944
       168.000
  19097039.071   -39965501.30447 -31122688.94448  19097039.1054   19097043.6504
       218.000
  22095110.338   -23240546.23846 -17439804.34048  22095109.9944   22095115.7544
       170.000
  20037978.515   -29064401.24946 -21783743.13548  20037978.0464   20037983.3284
       208.000
 96  4 20  2 50 59.9960000  0  7 26 23 22 20 06 16 17
  21509082.780   -16253791.62246 -12423146.94648  21509083.0324   21509087.8994
       176.000
  20759591.279   -23111137.54546 -17682825.87348  20759590.9644   20759596.7614
       197.000
  22594027.957   -11730802.57646  -8843877.08048  22594027.3804   22594032.7794
       161.000
  22021355.528   -24240005.90346 -18602055.13348  22021355.4634   22021361.5694
       167.000
  19095257.541   -39974863.11747 -31129983.86748  19095257.5784   19095262.1334
       218.000
  22109262.133   -23166178.19246 -17381855.22948  22109261.8174   22109267.5764
       169.000
  20027699.313   -29118418.67046 -21825834.61748  20027698.8534   20027704.1154
       208.000
 96  4 20  2 51 29.9960000  0  7 26 23 22 20 06 16 17
  21495758.569   -16323810.54446 -12477707.10748  21495758.8264   21495763.7254
       176.000
  20741436.286   -23206542.62246 -17757167.45948  20741435.9734   20741441.7434
       198.000
  22580441.449   -11802199.94046  -8899511.37347  22580440.9074   22580446.3044
       160.000
  22036880.252   -24158423.05246 -18538484.10948  22036880.1764   22036886.3054
       167.000
  19093558.159   -39983793.51547 -31136942.62048  19093558.1954   19093562.7634
       218.000
  22123451.220   -23091613.96646 -17323753.24048  22123450.9334   22123456.6954
       168.000
  20017457.902   -29172237.64646 -21867771.47248  20017457.4334   20017462.7244
       208.000
 96  4 20  2 51 59.9960000  0  7 26 23 22 20 06 16 17
  21482505.733   -16393454.42946 -12531975.03648  21482506.0114   21482510.9524
       176.000
  20723341.895   -23301629.33846 -17831260.97048  20723341.5794   20723347.3154
       199.000
  22566939.631   -11873152.35246  -8954798.94047  22566939.1234   22566944.5114
       160.000
  22052423.508   -24076742.67246 -18474837.07948  22052423.4454   22052429.5784
       166.000
  19091938.411   -39992305.34447 -31143575.21448  19091938.4764   19091943.0014
       218.000
  22137674.137   -23016871.92446 -17265512.69048  22137673.8174   22137679.6274
       168.000
  20007251.917   -29225870.47546 -21909563.27748  20007251.4684   20007256.7334
       208.000
 96  4 20  2 52 29.9960000  0  7 26 23 22 20 06 16 17
  21469330.018   -16462693.08046 -12585927.21848  21469330.2824   21469335.2584
       176.000
  20705314.894   -23396361.94446 -17905078.56548  20705314.5694   20705320.2754
       199.000
  22553529.931   -11943620.60546  -9009709.25148  22553529.4074   22553534.7844
       161.000
  22067989.433   -23994943.39646 -18411097.41048  22067989.3394   22067995.4684
       166.000
  19090403.435   -40000371.66447 -31149860.66548  19090403.4894   19090408.0124
       218.000
  22151932.485   -22941943.88946 -17207127.21548  22151932.1564   22151937.9114
       169.000
  19997083.993   -29279303.17646 -21951199.14648  19997083.5474   19997088.7754
       208.000
 96  4 20  2 52 59.9950000  0  7 26 23 22 20 06 16 17
  21456237.509   -16531494.25846 -12639538.49348  21456237.7764   21456242.7684
       176.000
  20687360.726   -23490711.80146 -17978597.90848  20687360.3984   20687366.0944
       200.000
  22540216.423   -12013583.48446  -9064225.76747  22540215.9134   22540221.2344
       160.000
  22083580.275   -23913013.08046 -18347255.64248  22083580.1764   22083586.3524
       166.000
  19088956.906   -40007973.34447 -31155784.05948  19088956.9604   19088961.4694
       218.000
  22166229.443   -22866813.10946 -17148583.75348  22166229.0594   22166234.8614
       169.000
  19986958.043   -29332515.50846 -21992663.29748  19986957.5874   19986962.8324
       208.000
 96  4 20  2 53 29.9950000  0  7 26 23 22 20 06 16 17
  21443222.218   -16599889.99546 -12692833.84948  21443222.4964   21443227.4814
       177.000
  20669474.871   -23584702.78246 -18051837.61248  20669474.5404   20669480.2214
       200.000
  22526993.599   -12083069.84746  -9118370.96947  22526993.1274   22526998.4014
       160.000
  22099191.272   -23830976.76446 -18283331.27148  22099191.1784   22099197.3734
       165.000
  19087592.780   -40015141.92547 -31161369.96848  19087592.8244   19087597.3564
       218.000
  22180559.704   -22791507.13446 -17089903.77548  22180559.3284   22180565.1314
       169.000
  19976870.633   -29385525.14746 -22033969.50348  19976870.1914   19976875.4184
       209.000
 96  4 20  2 53 59.9950000  0  7 26 23 22 20 06 16 17
  21430284.738   -16667876.70346 -12745810.47948  21430285.0624   21430290.0154
       177.000
  20651657.382   -23678334.29946 -18124797.22148  20651657.0354   20651662.7094
       201.000
  22513860.693   -12152083.71246  -9172147.98247  22513860.2294   22513865.5244
       160.000
  22114818.783   -23748853.61346 -18219339.25148  22114818.7004   22114824.9004
       165.000
  19086313.462   -40021864.70447 -31166608.49748  19086313.5204   19086318.0394
       218.000
  22194918.432   -22716051.39446 -17031107.09548  22194918.0584   22194923.8344
       168.000
  19966820.831   -29438337.18346 -22075121.73148  19966820.3884   19966825.5924
       209.000
 96  4 20  2 54 29.9950000  0  7 26 23 22 20 06 16 17
  21417428.468   -16735437.08046 -12798454.89948  21417428.7624   21417433.6744
       177.000
  20633908.389   -23771605.78246 -18197476.27548  20633908.0434   20633913.7094
       201.000
  22500816.702   -12220630.02746  -9225560.68647  22500816.1894   22500821.5294
       159.000
  22130462.053   -23666647.68646 -18155282.72648  22130461.9804   22130468.2534
       166.000
  19085119.005   -40028141.54847 -31171499.54748  19085119.0674   19085123.5714
       218.000
  22209306.611   -22640441.20046 -16972190.06248  22209306.2574   22209311.9624
       168.000
  19956810.272   -29490943.12546 -22116113.37248  19956809.8184   19956815.0184
       209.000
 96  4 20  2 54 59.9950000  0  7 26 23 22 20 06 16 17
  21404654.227   -16802566.13346 -12850763.22748  21404654.4864   21404659.4534
       177.000
  20616224.929   -23864532.83746 -18269886.94448  20616224.5754   20616230.2204
       201.000
  22487859.885   -12288718.16146  -9278616.36147  22487859.4194   22487864.7614
       159.000
  22146121.763   -23584355.15946 -18091158.71648  22146121.7194   22146128.0084
       166.000
  19084008.736   -40033976.24447 -31176046.06248  19084008.7864   19084013.2794
       218.000
  22223725.478   -22564669.47346 -16913147.15548  22223725.1454   22223730.7904
       168.000
  19946837.892   -29543348.34246 -22156948.59748  19946837.4424   19946842.6244
       209.000
 96  4 20  2 55 29.9950000  0  7 26 23 22 20 06 16 17
  21391962.874   -16869259.52146 -12902732.07248  21391963.1724   21391968.0414
       177.000
  20598608.367   -23957108.25746 -18342023.62248  20598608.0314   20598613.6784
       201.000
  22474992.325   -12356337.75946  -9331306.94047  22474991.8274   22474997.1844
       160.000
  22161799.124   -23501970.31546 -18026962.77148  22161799.0464   22161805.3634
       166.000
  19082985.403   -40039353.81547 -31180236.37748  19082985.4644   19082989.9654
       218.000
  22238177.088   -22488725.85046 -16853970.30448  22238176.7504   22238182.4294
       167.000
  19936904.116   -29595550.69746 -22197625.76248  19936903.6594   19936908.8264
       209.000
 96  4 20  2 55 59.9950000  0  7 26 23 22 20 06 16 17
  21379358.999   -16935493.07946 -12954342.61248  21379359.2774   21379364.1064
       178.000
  20581062.474   -24049312.35446 -18413870.94448  20581062.1374   20581067.7974
       201.000
  22462218.390   -12423465.33346  -9383614.13047  22462217.8404   22462223.1714
       160.000
  22177497.116   -23419477.04746 -17962682.34048  22177497.0494   22177503.3644
       166.000
  19082056.856   -40044233.41847 -31184038.66048  19082056.9074   19082061.4134
       218.000
  22252666.810   -22412582.04246 -16794637.46548  22252666.4504   22252672.1494
       167.000
  19927012.988   -29647528.80446 -22238128.17348  19927012.5264   19927017.7264
       209.000
 96  4 20  2 56 29.9950000  0  7 26 23 22 20 06 16 17
  21366837.960   -17001291.48846 -13005614.06648  21366838.2164   21366843.0444
       178.000
  20563578.753   -24141189.88546 -18485463.79548  20563578.4014   20563584.0334
       201.000
  22449530.379   -12490141.09046  -9435569.24948  22449529.8944   22449535.2044
       161.000
  22193207.810   -23336916.84546 -17898349.76948  22193207.7424   22193214.0994
       166.000
  19081215.212   -40048656.37147 -31187485.11548  19081215.2604   19081219.7774
       218.000
  22267188.120   -22336272.11146 -16735175.18248  22267187.7374   22267193.4314
       165.000
  19917156.345   -29699325.55346 -22278489.27348  19917155.9004   19917161.0864
       209.000
 96  4 20  2 56 59.9950000  0  7 26 23 22 20 06 16 17
  21354397.713   -17066665.16046 -13056554.56548  21354397.9984   21354402.8284
       178.000
  20546157.973   -24232736.43846 -18556798.74048  20546157.6314   20546163.2624
       201.000
  22436927.039   -12556372.25246  -9487177.93448  22436926.4994   22436931.8204
       161.000
  22208928.208   -23254305.90246 -17833977.64448  22208928.1494   22208934.4954
       166.000
  19080461.148   -40052618.92847 -31190572.81948  19080461.1924   19080465.7194
       218.000
  22281740.731   -22259797.45846 -16675584.53948  22281740.3824   22281746.1034
       164.000
  19907333.326   -29750945.89346 -22318712.90848  19907332.8804   19907338.0824
       209.000
 96  4 20  2 57 29.9950000  0  7 26 23 22 20 06 16 17
  21342042.734   -17131591.11746 -13107146.19348  21342042.9814   21342047.8014
       178.000
  20528807.877   -24323911.71646 -18627844.37748  20528807.5324   20528813.1604
       201.000
  22424415.411   -12622121.10546  -9538410.80248  22424414.8814   22424420.2014
       162.000
  22224660.676   -23171631.40046 -17769555.99448  22224660.5674   22224667.0004
       167.000
  19079799.868   -40056093.93547 -31193280.61548  19079799.9294   19079804.4434
       218.000
  22296329.036   -22183135.53446 -16615847.96948  22296328.6724   22296334.3764
       164.000
  19897550.020   -29802357.44846 -22358773.85848  19897549.5734   19897554.7934
       209.000
 96  4 20  2 57 59.9950000  0  7 26 23 22 20 06 16 17
  21329773.331   -17196066.85646 -13157387.00448  21329773.6054   21329778.4454
       178.000
  20511528.670   -24414714.33446 -18698599.63548  20511528.3544   20511533.9804
       200.000
  22411994.883   -12687391.43946  -9589270.79548  22411994.2994   22411999.6414
       163.000
  22240404.166   -23088899.15346 -17705089.34548  22240404.0484   22240410.4584
       167.000
  19079229.340   -40059092.12247 -31195616.86848  19079229.3944   19079233.9184
       218.000
  22310951.809   -22106292.23146 -16555970.07648  22310951.4304   22310957.1504
       163.000
  19887805.491   -29853565.29946 -22398676.06948  19887805.0294   19887810.2564
       209.000
 96  4 20  2 58 29.9950000  0  7 26 23 22 20 06 16 17
  21317588.974   -17260096.00146 -13207279.82648  21317589.2804   21317594.0974
       179.000
  20494321.340   -24505139.20346 -18769060.55048  20494320.9874   20494326.6494
       200.000
  22399664.115   -12752189.97346  -9639763.15348  22399663.5554   22399668.9044
       163.000
  22256158.372   -23006110.71646 -17640578.90748  22256158.2224   22256164.6784
       167.000
  19078745.752   -40061633.38447 -31197597.07848  19078745.8094   19078750.3254
       217.000
  22325607.772   -22029274.43246 -16495956.20348  22325607.3934   22325613.1044
       163.000
  19878096.779   -29904584.73646 -22438431.47248  19878096.3204   19878101.5704
       209.000
 96  4 20  2 58 59.9950000  0  7 26 23 22 20 06 16 17
  21305485.000   -17323702.67446 -13256843.43248  21305485.3004   21305490.1124
       179.000
  20477186.496   -24595183.21446 -18839224.69348  20477186.1594   20477191.8104
       200.000
  22387424.582   -12816509.32946  -9689882.12448  22387424.0694   22387429.3844
       163.000
  22271923.848   -22923262.63446 -17576021.99948  22271923.7184   22271930.1774
       166.000
  19078346.417   -40063731.93947 -31199232.32348  19078346.4564   19078350.9954
       217.000
  22340295.305   -21952090.89946 -16435813.19448  22340294.9564   22340300.6404
       163.000
  19868422.029   -29955425.83746 -22478047.90748  19868421.5784   19868426.8394
       209.000
 96  4 20  2 59 29.9950000  0  7 26 23 22 20 06 16 17
  21293458.787   -17386901.15046 -13306088.97848  21293459.0454   21293463.8504
       179.000
  20460119.356   -24684871.46146 -18909111.61548  20460119.0144   20460124.6824
       200.000
  22375275.414   -12880353.95346  -9739631.18248  22375274.8604   22375280.2094
       163.000
  22287699.406   -22840361.72346 -17511423.91748  22287699.2974   22287705.7074
       166.000
  19078027.333   -40065408.61347 -31200538.82648  19078027.3864   19078031.9144
       217.000
  22355007.428   -21874778.20146 -16375569.53548  22355007.0414   22355012.7584
       162.000
  19858778.610   -30006102.34746 -22517536.08648  19858778.1544   19858783.4254
       209.000
 96  4 20  2 59 59.9950000  0  7 26 23 22 20 06 16 17
  21281513.056   -17449676.24846 -13355004.61048  21281513.3454   21281518.0944
       179.000
  20443123.907   -24774183.09446 -18978705.06548  20443123.5504   20443129.2284
       200.000
  22363217.338   -12943719.46746  -9789006.89648  22363216.7874   22363222.1074
       163.000
  22303489.450   -22757384.75546 -17446766.57648  22303489.3264   22303495.7814
       165.000
  19077791.395   -40066648.41947 -31201504.91548  19077791.4304   19077795.9834
       217.000
  22369745.175   -21797330.74746 -16315220.87448  22369744.7884   22369750.5034
       163.000
  19849167.918   -30056606.80546 -22556890.20948  19849167.4674   19849172.7204
       209.000
 96  4 20  3  0 29.9950000  0  7 26 23 22 20 06 16 17
  21269649.023   -17512022.19946 -13403585.84948  21269649.3084   21269654.0204
       180.000
  20426201.804   -24863109.16346 -19047998.07948  20426201.4554   20426207.1214
       200.000
  22351254.033   -13006586.73446  -9837994.37248  22351253.5194   22351258.8324
       163.000
  22319295.940   -22674321.08746 -17382041.68348  22319295.8134   22319302.2914
       164.000
  19077642.889   -40067428.87847 -31202113.07148  19077642.9334   19077647.5164
       217.000
  22384509.254   -21719745.09646 -16254764.53048  22384508.9064   22384514.5744
       163.000
  19839591.882   -30106929.19146 -22596102.45348  19839591.4274   19839596.6884
       209.000
 96  4 20  3  0 59.9950000  0  7 26 23 22 20 06 16 17
  21257866.513   -17573939.61446 -13451833.15148  21257866.7854   21257871.5484
       180.000
  20409350.762   -24951661.73446 -19117000.05548  20409350.4314   20409356.0854
       201.000
  22339385.219   -13068957.76046  -9886595.16348  22339384.7164   22339390.0194
       163.000
  22335115.781   -22591187.16846 -17317262.04748  22335115.6614   22335122.1224
       163.000
  19077583.355   -40067741.79047 -31202356.90448  19077583.4044   19077587.9854
       217.000
  22399297.919   -21642029.96946 -16194207.29848  22399297.5594   22399303.3054
       162.000
  19830053.134   -30157055.76346 -22635162.11948  19830052.6704   19830057.9354
       210.000
 96  4 20  3  1 29.9950000  0  7 26 23 22 20 06 16 17
  21246168.419   -17635413.04346 -13499734.50048  21246168.6834   21246173.4734
       180.000
  20392569.998   -25039845.07646 -19185714.32648  20392569.6784   20392575.3204
       201.000
  22327606.250   -13130856.64546  -9934828.05248  22327605.6804   22327610.9574
       164.000
  22350944.568   -22508006.28646 -17252445.80748  22350944.4434   22350950.8944
       162.000
  19077615.303   -40067573.93747 -31202226.12148  19077615.3424   19077619.9294
       217.000
  22414109.694   -21564193.59546 -16133555.58948  22414109.3454   22414115.1294
       163.000
  19820551.074   -30206989.22546 -22674071.30448  19820550.6284   19820555.8994
       210.000
 96  4 20  3  1 59.9950000  0  8 26 23 22 21 20 06 16 17
  21234557.588   -17696428.41746 -13547278.91948  21234557.8714   21234562.6624
       181.000
  20375861.449   -25127648.90446 -19254132.86248  20375861.1354   20375866.7764
       202.000
  22315915.841   -13192290.26346  -9982698.39948  22315915.2834   22315920.5204
       164.000
  23722650.131    -3647329.07846  -2811895.52547  23722649.9614   23722657.1204
       138.000
  22366781.923   -22424780.47846 -17187594.55448  22366781.7694   22366788.2484
       161.000
  19077741.188   -40066912.33847 -31201710.60048  19077741.2354   19077745.8244
       217.000
  22428946.499   -21486225.62346 -16072801.32848  22428946.1234   22428951.9414
       163.000
  19811084.645   -30256735.65946 -22712834.75848  19811084.1824   19811089.4534
       210.000
 96  4 20  3  2 29.9950000  0  8 26 23 22 21 20 06 16 17
  21223030.778   -17757001.90046 -13594479.00148  21223031.0624   21223035.8444
       181.000
  20359218.540   -25215108.11746 -19322282.87248  20359218.2174   20359223.8484
       203.000
  22304310.390   -13253277.42046 -10030220.84548  22304309.7984   22304315.1074
       164.000
  23700071.602    -3765979.69646  -2904350.48247  23700071.6124   23700078.6004
       137.000
  22382622.419   -22341538.29746 -17122730.55847  22382622.2634   22382628.7714
       160.000
  19077956.362   -40065781.66547 -31200829.57148  19077956.4064   19077960.9824
       217.000
  22443802.096   -21408158.97546 -16011970.17748  22443801.6604   22443807.5574
       163.000
  19801651.945   -30306304.66146 -22751459.95648  19801651.4824   19801656.7654
       210.000
 96  4 20  3  2 59.9950000  0  8 26 23 22 21 20 06 16 17
  21211596.171   -17817090.83046 -13641301.51148  21211596.4574   21211601.2724
       181.000
  20342647.061   -25302191.69846 -19390140.18248  20342646.7394   20342652.3424
       203.000
  22292795.076   -13313790.83446 -10077374.14048  22292794.4604   22292799.7764
       164.000
  23677516.420    -3884508.08746  -2996710.20047  23677516.1874   23677523.2794
       139.000
  22398472.832   -22258244.12046 -17057826.03047  22398472.6304   22398479.1764
       160.000
  19078264.057   -40064164.59347 -31199569.52548  19078264.1034   19078268.7054
       217.000
  22458682.647   -21329961.24546 -15951036.89848  22458682.2084   22458688.1154
       163.000
  19792259.145   -30355664.23446 -22789921.95748  19792258.6844   19792263.9574
       210.000
 96  4 20  3  3 29.9950000  0  8 26 23 22 21 20 06 16 17
  21200253.678   -17876696.05246 -13687747.10948  21200253.9804   21200258.7654
       181.000
  20326147.953   -25388895.24746 -19457701.36448  20326147.6214   20326153.2094
       204.000
  22281370.944   -13373824.98946 -10124153.99148  22281370.3784   22281375.6854
       165.000
  23654982.532    -4002923.97346  -3088982.23847  23654982.2074   23654989.5064
       139.000
  22414335.001   -22174888.12846 -16992873.33447  22414334.8294   22414341.3154
       160.000
  19078662.055   -40062073.14247 -31197939.83448  19078662.1074   19078666.7304
       217.000
  22473584.245   -21251652.78146 -15890017.32948  22473583.7914   22473589.6594
       163.000
  19782902.153   -30404835.53846 -22828237.26048  19782901.7124   19782906.9694
       210.000
 96  4 20  3  3 59.9950000  0  8 26 23 22 21 20 06 16 17
  21188998.759   -17935841.16146 -13733834.17248  21188999.0414   21189003.8064
       182.000
  20309717.303   -25475238.70846 -19524981.95948  20309716.9854   20309722.5474
       204.000
  22270039.690   -13433370.87246 -10170553.36448  22270039.1424   22270044.4914
       165.000
  23632465.277    -4121252.55346  -3181186.26847  23632464.8254   23632472.2734
       140.000
  22430208.683   -22091471.44246 -16927873.35447  22430208.5794   22430215.1034
       160.000
  19079144.013   -40059540.34146 -31195966.23148  19079144.0634   19079148.7064
       216.000
  22488505.445   -21173241.34146 -15828917.50148  22488505.0224   22488510.9234
       163.000
  19773579.541   -30453826.40946 -22866411.96448  19773579.0764   19773584.3294
       210.000
 96  4 20  3  4 29.9950000  0  8 26 23 22 21 20 06 16 17
  21177834.089   -17994512.08746 -13779551.75048  21177834.3604   21177839.1114
       182.000
  20293356.952   -25561213.00746 -19591974.88748  20293356.6224   20293362.1784
       205.000
  22258804.897   -13492409.96446 -10216557.84148  22258804.3614   22258809.7174
       164.000
  23609967.360    -4239479.48346  -3273311.07247  23609967.0604   23609974.3174
       140.000
  22446093.217   -22007997.87046 -16862829.05047  22446093.1034   22446099.6474
       159.000
  19079708.915   -40056571.73346 -31193653.04548  19079708.9624   19079713.6154
       216.000
  22503451.095   -21094701.51946 -15767717.64348  22503450.6864   22503456.5734
       162.000
  19764295.300   -30502615.28246 -22904429.25848  19764294.8334   19764300.1064
       210.000
 96  4 20  3  4 59.9950000  0  8 26 23 22 21 20 06 16 17
  21166761.664   -18052697.92946 -13824891.33148  21166761.9264   21166766.6974
       182.000
  20277069.365   -25646804.72046 -19658669.70048  20277069.0274   20277074.5774
       205.000
  22247669.120   -13550928.68246 -10262156.82148  22247668.5894   22247673.9344
       164.000
  23587489.512    -4357601.19046  -3365353.89547  23587489.1814   23587496.4094
       141.000
  22461987.473   -21924472.95546 -16797744.72847  22461987.3594   22461993.9464
       159.000
  19080360.767   -40053146.17746 -31190983.78948  19080360.8214   19080365.4664
       216.000
  22518426.514   -21016005.13946 -15706395.78948  22518426.1684   22518431.9934
       162.000
  19755048.108   -30551209.77346 -22942295.08948  19755047.6254   19755052.8914
       210.000
 96  4 20  3  5 29.9950000  0  8 26 23 22 21 20 06 16 17
  21155779.622   -18110408.82346 -13869860.82148  21155779.8984   21155784.6354
       182.000
  20260855.650   -25732008.30446 -19725062.07648  20260855.3224   20260860.8564
       205.000
  22236629.755   -13608940.98546 -10307361.20748  22236629.2024   22236634.5934
       163.000
  23565028.492    -4475634.11146  -3457327.51947  23565028.2904   23565035.5654
       141.000
  22477884.067   -21840935.91846 -16732650.97647  22477883.9354   22477890.4674
       159.000
  19081100.720   -40049257.79646 -31187953.89348  19081100.7694   19081105.4284
       216.000
  22533430.873   -20937156.67946 -15644955.44148  22533430.5604   22533436.3744
       162.000
  19745836.162   -30599618.77946 -22980016.38948  19745835.7024   19745840.9304
       210.000
 96  4 20  3  5 59.9950000  0  8 26 23 22 21 20 06 16 17
  21144885.621   -18167656.96646 -13914469.72948  21144885.8804   21144890.5844
       182.000
  20244711.131   -25816848.29846 -19791171.13548  20244710.7884   20244716.3024
       205.000
  22225683.160   -13666465.57546 -10352185.55348  22225682.5904   22225687.9964
       163.000
  23542583.118    -4593585.13846  -3549237.33447  23542582.9194   23542590.1654
       141.000
  22493777.133   -21757417.40946 -16667571.65247  22493777.0124   22493783.5754
       159.000
  19081925.775   -40044922.19346 -31184575.50848  19081925.8084   19081930.4714
       216.000
  22548465.570   -20858148.99246 -15583391.00448  22548465.2324   22548471.0474
       161.000
  19736658.337   -30647848.62446 -23017598.08248  19736657.8764   19736663.0944
       210.000
 96  4 20  3  6 29.9950000  0  8 26 23 22 21 20 06 16 17
  21134084.097   -18224418.84546 -13958699.73248  21134084.3684   21134089.0774
       183.000
  20228639.659   -25901304.28646 -19856980.97348  20228639.3344   20228644.8154
       206.000
  22214830.427   -13723497.23446 -10396625.79548  22214829.8744   22214835.2524
       163.000
  23520158.693    -4711426.06346  -3641061.35447  23520158.5034   23520165.6894
       141.000
  22509667.295   -21673913.76946 -16602503.92447  22509667.1924   22509673.8104
       158.000
  19082841.228   -40040111.48846 -31180826.92148  19082841.2844   19082845.9514
       216.000
  22563530.886   -20778980.19246 -15521701.03147  22563530.5234   22563536.3824
       160.000
  19727515.166   -30695896.25846 -23055037.78348  19727514.6964   19727519.9274
       210.000
 96  4 20  3  6 59.9950000  0  8 26 23 22 21 20 06 16 17
  21123374.198   -18280699.33846 -14002554.63448  21123374.4724   21123379.1984
       182.000
  20212640.189   -25985381.96446 -19922496.02248  20212639.8614   20212645.3504
       206.000
  22204069.366   -13780047.06146 -10440690.59448  22204068.8034   22204074.1764
       164.000
  23497752.964    -4829168.33446  -3732808.49447  23497752.8344   23497759.9894
       141.000
  22525556.955   -21590413.03846 -16537438.44447  22525556.8624   22525563.4984
       158.000
  19083848.339   -40034819.14146 -31176703.02548  19083848.3974   19083853.0584
       216.000
  22578621.635   -20699678.01846 -15459907.13348  22578621.2364   22578627.0774
       161.000
  19718403.413   -30743778.63546 -23092348.71748  19718402.9644   19718408.2044
       210.000
 96  4 20  3  7 29.9950000  0  8 26 23 22 21 20 06 16 17
  21112762.599   -18336463.48846 -14046007.19248  21112762.8784   21112767.5984
       183.000
  20196715.912   -26069064.61546 -19987703.26448  20196715.5754   20196721.0544
       206.000
  22193404.049   -13836093.45346 -10484363.09848  22193403.4774   22193408.8824
       164.000
  23475373.310    -4946773.78146  -3824449.02147  23475373.2574   23475380.3534
       141.000
  22541452.709   -21506880.50446 -16472348.19647  22541452.6274   22541459.2304
       158.000
  19084948.173   -40029039.41746 -31172199.35148  19084948.2354   19084952.9084
       216.000
  22593738.775   -20620236.90246 -15398004.96347  22593738.4014   22593744.1824
       160.000
  19709329.358   -30791463.08946 -23129505.42848  19709328.8864   19709334.1344
       210.000
 96  4 20  3  7 59.9950000  0  8 26 23 22 21 20 06 16 17
  21102248.030   -18391717.90746 -14089062.54648  21102248.3074   21102253.0264
       183.000
  20180861.814   -26152378.38746 -20052623.07148  20180861.4604   20180866.9464
       206.000
  22182833.300   -13891642.85246 -10527648.33848  22182832.7654   22182838.1264
       164.000
  23453019.864    -5064241.41046  -3915982.16647  23453019.8134   23453026.9574
       141.000
  22557356.437   -21423306.37446 -16407225.54347  22557356.4074   22557362.9384
       158.000
  19086137.497   -40022789.61646 -31167329.38548  19086137.5424   19086142.2344
       216.000
  22608876.359   -20540688.28846 -15336019.03047  22608875.9914   22608881.7754
       158.000
  19700292.161   -30838953.85146 -23166511.21348  19700291.7024   19700296.9284
       210.000
 96  4 20  3  8 29.9950000  0  8 26 23 22 21 20 06 16 17
  21091830.411   -18446463.01446 -14131721.04348  21091830.7094   21091835.3784
       183.000
  20165079.850   -26235313.09946 -20117247.50748  20165079.5064   20165084.9674
       206.000
  22172354.739   -13946708.05346 -10570556.28548  22172354.1994   22172359.5484
       164.000
  23430691.545    -5181577.40746  -4007412.73447  23430691.2404   23430698.6034
       141.000
  22573266.758   -21339697.02446 -16342075.43747  22573266.6934   22573273.2574
       158.000
  19087417.312   -40016064.18546 -31162088.79248  19087417.3664   19087422.0594
       216.000
  22624032.378   -20461042.70746 -15273957.54447  22624032.0094   22624037.8194
       157.000
  19691291.539   -30886252.32646 -23203367.15348  19691291.0634   19691296.3004
       211.000
 96  4 20  3  8 59.9950000  0  8 26 23 22 21 20 06 16 17
  21081508.193   -18500706.39046 -14173988.58348  21081508.5054   21081513.1484
       183.000
  20149370.104   -26317868.17746 -20181576.12548  20149369.7524   20149375.2424
       207.000
  22161971.259   -14001273.66446 -10613074.93548  22161970.6974   22161976.0824
       165.000
  23408388.195    -5298782.28646  -4098741.13747  23408387.9904   23408395.1134
       142.000
  22589181.433   -21256065.07946 -16276907.73447  22589181.2954   22589187.9444
       158.000
  19088786.195   -40008870.71146 -31156483.49748  19088786.2384   19088790.9384
       216.000
  22639206.595   -20381301.17646 -15211821.29947  22639206.2744   22639212.0254
       156.000
  19682329.521   -30933348.04346 -23240065.10548  19682329.0574   19682334.2874
       211.000
 96  4 20  3  9 29.9950000  0  8 26 23 22 21 20 06 16 17
  21071272.525   -18554495.19646 -14215901.90548  21071272.8414   21071277.4664
       183.000
  20133728.688   -26400064.15846 -20245624.91548  20133728.3504   20133733.8394
       207.000
  22151677.799   -14055366.28946 -10655225.02048  22151677.2034   22151682.6084
       165.000
  23386105.273    -5415879.15146  -4189985.38147  23386105.1274   23386112.1644
       143.000
  22605091.074   -21172459.51646 -16211760.57847  22605090.9724   22605097.5904
       158.000
  19090237.312   -40001245.14646 -31150541.50548  19090237.3444   19090242.0274
       216.000
  22654392.337   -20301499.53646 -15149638.21247  22654391.9914   22654397.8594
       155.000
  19673402.810   -30980258.26946 -23276618.53348  19673402.3474   19673407.5674
       211.000
 96  4 20  3  9 59.9950000  0  8 26 23 22 21 20 06 16 17
  21061129.383   -18607797.86146 -14257436.42048  21061129.6744   21061134.2734
       183.000
  20118166.541   -26481843.80646 -20309349.28848  20118166.2034   20118171.6934
       207.000
  22141485.194   -14108928.42146 -10696961.74248  22141484.6294   22141489.9894
       165.000
  23363849.188    -5532835.41246  -4281120.05847  23363849.0544   23363856.1114
       145.000
  22621006.283   -21088824.73546 -16146590.65847  22621006.2334   22621012.8164
       157.000
  19091780.579   -39993135.24146 -31144222.10448  19091780.6254   19091785.3044
       216.000
  22669598.935   -20221588.48746 -15087369.85147  22669598.5344   22669604.3524
       153.000
  19664521.241   -31026931.24546 -23312987.08648  19664520.7664   19664525.9844
       211.000
 96  4 20  3 10 29.9950000  0  8 26 23 22 21 20 06 16 17
  21051073.166   -18660643.27046 -14298614.63048  21051073.4554   21051078.0614
       183.000
  20102680.702   -26563222.33746 -20372761.10448  20102680.3744   20102685.8334
       207.000
  22131390.886   -14161974.25546 -10738296.14548  22131390.3074   22131395.7404
       166.000
  23341613.399    -5649685.61646  -4372172.10347  23341613.1284   23341620.1154
       147.000
  22636921.631   -21005189.06246 -16081420.04647  22636921.6064   22636928.1544
       156.000
  19093412.050   -39984561.75246 -31137541.46448  19093412.0864   19093416.7554
       216.000
  22684822.913   -20141585.76646 -15025030.07247  22684822.5344   22684828.2874
       152.000
  19655678.838   -31073398.30646 -23349195.17348  19655678.3574   19655683.5834
       211.000
 96  4 20  3 10 59.9950000  0  8 26 23 22 21 20 06 16 17
  21041108.714   -18713006.66146 -14339417.24148  21041109.0034   21041113.5534
       183.000
  20087276.364   -26644172.68546 -20435839.26848  20087276.0184   20087281.4764
       208.000
  22121400.521   -14214474.02346 -10779205.05348  22121399.9734   22121405.3034
       166.000
  23319402.814    -5766402.73746  -4463120.44847  23319402.5444   23319409.5614
       148.000
  22652843.638   -20921518.37846 -16016222.14647  22652843.6334   22652850.2484
       155.000
  19095135.783   -39975503.37246 -31130482.98748  19095135.8524   19095140.4944
       215.000
  22700066.433   -20061480.44346 -14962610.32547  22700066.0814   22700071.7944
       151.000
  19646878.817   -31119642.82646 -23385229.86348  19646878.3494   19646883.5454
       211.000
 96  4 20  3 11 29.9950000  0  8 26 23 22 21 20 06 16 17
  21031233.705   -18764900.00546 -14379853.59148  21031233.9904   21031238.5524
       183.000
  20071947.469   -26724726.34846 -20498608.33548  20071947.1404   20071952.5874
       208.000
  22111503.682   -14266482.44946 -10819731.10548  22111503.0954   22111508.4534
       166.000
  23297211.143    -5883020.60746  -4553991.45247  23297210.8464   23297217.8354
       149.000
  22668770.409   -20837822.80346 -15951004.83747  22668770.3674   22668777.0124
       155.000
  19096947.792   -39965981.47846 -31123063.33448  19096947.8384   19096952.4534
       215.000
  22715322.330   -19981309.84546 -14900139.72047  22715321.9604   22715327.7224
       150.000
  19638113.393   -31165705.47246 -23421122.82348  19638112.9074   19638118.1384
       211.000
 96  4 20  3 11 59.9950000  0  8 26 23 22 21 20 06 16 17
  21021458.299   -18816270.35946 -14419882.41348  21021458.5674   21021463.1284
       183.000
  20056698.127   -26804862.14646 -20561051.79348  20056697.8074   20056703.2224
       208.000
  22101706.087   -14317969.16346 -10859850.61748  22101705.5084   22101710.8754
       166.000
  23275044.337    -5999507.89646  -4644760.70447  23275044.0624   23275051.0124
       150.000
  22684705.089   -20754085.64446 -15885755.13647  22684705.0364   22684711.6134
       154.000
  19098855.647   -39955955.48546 -31115250.87848  19098855.7074   19098860.3394
       215.000
  22730597.257   -19901039.41146 -14837591.31847  22730596.9154   22730602.5824
       150.000
  19629383.746   -31211579.88046 -23456869.09348  19629383.2714   19629388.4914
       211.000
 96  4 20  3 12 29.9950000  0  8 26 23 22 21 20 06 16 17
  21011783.720   -18867110.67746 -14459498.21348  21011784.0044   21011788.4964
       184.000
  20041528.193   -26884580.65546 -20623170.09348  20041527.8594   20041533.2894
       208.000
  22092003.877   -14368954.63646 -10899579.55748  22092003.2854   22092008.5894
       166.000
  23252905.379    -6115848.75946  -4735415.87547  23252905.0794   23252912.1054
       150.000
  22700640.948   -20670342.10146 -15820500.45447  22700640.8544   22700647.5084
       154.000
  19100857.821   -39945434.15346 -31107052.44248  19100857.8714   19100862.4894
       215.000
  22745891.524   -19820667.77546 -14774964.06347  22745891.1784   22745896.7874
       151.000
  19620684.985   -31257292.10146 -23492489.01448  19620684.5334   19620689.7404
       211.000
 96  4 20  3 12 59.9950000  0  8 26 23 22 21 20 06 16 17
  21002204.730   -18917448.57146 -14498722.52248  21002204.9964   21002209.4624
       184.000
  20026430.501   -26963919.41846 -20684992.49048  20026430.1714   20026435.5804
       208.000
  22082388.549   -14419483.59146 -10938952.76948  22082387.9214   22082393.2924
       166.000
  23230790.834    -6232061.23546  -4825970.99947  23230790.5084   23230797.4724
       150.000
  22716568.412   -20586642.75546 -15755280.21347  22716568.3374   22716575.0164
       153.000
  19102947.497   -39934452.92846 -31098495.64948  19102947.5354   19102952.1654
       215.000
  22761198.283   -19740230.17246 -14712285.40547  22761197.9714   22761203.6314
       151.000
  19612011.380   -31302872.12646 -23528005.91548  19612010.9174   19612016.1174
       211.000
 96  4 20  3 13 29.9950000  0  8 26 23 22 21 20 06 16 17
  20992721.205   -18967284.89246 -14537555.99748  20992721.4714   20992725.9254
       184.000
  20011402.908   -27042889.72446 -20746527.78048  20011402.5944   20011407.9914
       208.000
  22072861.184   -14469550.10546 -10977965.64148  22072860.5874   22072865.9424
       165.000
  23208701.424    -6348141.50946  -4916423.10947  23208701.2214   23208708.1344
       149.000
  22732484.142   -20503005.32646 -15690108.22447  22732484.1084   22732490.7064
       152.000
  19105124.809   -39923011.17146 -31089579.99648  19105124.8674   19105129.4814
       215.000
  22776518.785   -19659720.31446 -14649550.46247  22776518.5444   22776524.2144
       152.000
  19603363.296   -31348318.17046 -23563418.41148  19603362.8344   19603368.0494
       211.000
 96  4 20  3 13 59.9950000  0  8 26 23 22 21 20 06 16 17
  20983334.794   -19016610.78446 -14575991.72948  20983335.0694   20983339.5224
       184.000
  19996451.196   -27121461.44846 -20807752.47348  19996450.8754   19996456.2764
       209.000
  22063429.612   -14519113.12146 -11016586.17048  22063429.0364   22063434.3864
       165.000
  23186644.175    -6464052.92646  -5006743.63347  23186644.0404   23186650.9274
       149.000
  22748387.838   -20419431.07846 -15624985.46747  22748387.8094   22748394.4244
       151.000
  19107392.621   -39911093.63446 -31080293.59848  19107392.6774   19107397.2954
       215.000
  22791859.918   -19579102.04146 -14586731.03047  22791859.6244   22791865.3734
       152.000
  19594749.119   -31393585.90046 -23598691.96048  19594748.6684   19594753.8564
       211.000
 96  4 20  3 14 29.9950000  0  8 26 23 22 21 20 06 16 17
  20974042.324   -19065442.90946 -14614042.71648  20974042.5924   20974047.0424
       184.000
  19981573.307   -27199645.14146 -20868674.80148  19981572.9754   19981578.3904
       209.000
  22054093.150   -14568176.70746 -11054817.53548  22054092.6094   22054097.8834
       166.000
  23164616.026    -6579811.52046  -5096945.07547  23164615.8504   23164622.6734
       149.000
  22764281.212   -20335911.02546 -15559904.92447  22764281.1364   22764287.7834
       150.000
  19109749.351   -39898708.98546 -31070643.21848  19109749.3864   19109754.0334
       215.000
  22807219.720   -19498385.92646 -14523835.35147  22807219.4014   22807225.2084
       154.000
  19586173.194   -31438652.69946 -23633808.94848  19586172.7254   19586177.9234
       211.000
 96  4 20  3 14 59.9950000  0  8 26 23 22 21 20 06 16 17
  20964842.039   -19113790.53746 -14651716.16648  20964842.3314   20964846.7834
       184.000
  19966764.992   -27277463.46146 -20929312.42248  19966764.6574   19966770.0684
       209.000
  22044852.837   -14616734.83946 -11092655.04248  22044852.2864   22044857.5694
       166.000
  23142611.476    -6695445.77646  -5187049.63647  23142611.3444   23142618.1954
       149.000
  22780163.884   -20252446.95946 -15494868.02847  22780163.8014   22780170.4004
       149.000
  19112196.846   -39885847.28246 -31060621.10448  19112196.8814   19112201.5284
       215.000
  22822594.324   -19417592.09146 -14460879.11147  22822593.9574   22822599.7404
       155.000
  19577637.028   -31483510.43846 -23668763.01348  19577636.5744   19577641.7654
       211.000
 96  4 20  3 15 29.9950000  0  8 26 23 22 21 20 06 16 17
  20955735.054   -19161647.99246 -14689007.66148  20955735.3364   20955739.8344
       184.000
  19952026.501   -27354914.61346 -20989663.94948  19952026.1704   19952031.5794
       209.000
  22035710.968   -14664775.71546 -11130089.47848  22035710.3854   22035715.6654
       166.000
  23120628.962    -6810964.27646  -5277064.00347  23120628.8024   23120635.5914
       149.000
  22796038.438   -20169025.82446 -15429864.57747  22796038.3414   22796044.9044
       149.000
  19114735.945   -39872504.27446 -31050223.95148  19114735.9844   19114740.6204
       215.000
  22837984.701   -19336714.96846 -14397857.97447  22837984.4224   22837990.1434
       155.000
  19569139.862   -31528163.31746 -23703557.46248  19569139.4074   19569144.5854
       211.000
 96  4 20  3 15 59.9950000  0  8 26 23 22 21 20 06 16 17
  20946724.026   -19209000.84346 -14725905.95848  20946724.3054   20946728.8494
       184.000
  19937361.988   -27431976.75846 -21049712.35448  19937361.6724   19937367.0914
       209.000
  22026671.139   -14712280.25246 -11167106.00448  22026670.5334   22026675.8414
       167.000
  23098670.108    -6926358.73746  -5366981.70947  23098669.8144   23098676.7854
       150.000
  22811908.087   -20085630.66746 -15364881.37147  22811908.0044   22811914.4924
       149.000
  19117369.156   -39858666.53946 -31039441.29548  19117369.1914   19117373.8374
       214.000
  22853392.947   -19255744.25046 -14334763.90447  22853392.6254   22853398.3964
       156.000
  19560684.379   -31572597.17046 -23738181.22948  19560683.9104   19560689.0854
       212.000
 96  4 20  3 16 29.9950000  0  8 26 23 22 21 20 06 16 17
  20937810.478   -19255841.53946 -14762405.17748  20937810.7654   20937815.3394
       184.000
  19922769.498   -27508660.79846 -21109466.12848  19922769.1844   19922774.5954
       209.000
  22017731.432   -14759258.68746 -11203712.58248  22017730.8524   22017736.1414
       167.000
  23076730.559    -7041651.58946  -5456820.25747  23076730.3224   23076737.2364
       150.000
  22827773.384   -20002258.17946 -15299915.81547  22827773.3114   22827779.7234
       149.000
  19120095.266   -39844340.49146 -31028278.13548  19120095.3144   19120099.9644
       214.000
  22868815.758   -19174697.05546 -14271610.23947  22868815.3784   22868821.1904
       157.000
  19552263.118   -31616851.17446 -23772664.88048  19552262.6604   19552267.8184
       212.000
 96  4 20  3 16 59.9950000  0  8 26 23 22 21 20 06 16 17
  20928997.460   -19302154.18846 -14798492.92348  20928997.7464   20929002.3144
       184.000
  19908252.894   -27584945.82746 -21168908.97648  19908252.5744   19908257.9884
       209.000
  22008892.505   -14805707.43046 -11239906.39748  22008891.9414   22008897.2514
       167.000
  23054813.889    -7156824.33246  -5546565.20647  23054813.7054   23054820.5184
       151.000
  22843634.890   -19918905.85846 -15234965.97147  22843634.6714   22843641.3404
       149.000
  19122911.736   -39829539.72246 -31016745.07148  19122911.7844   19122916.4254
       214.000
  22884253.570   -19093570.69146 -14208394.89047  22884253.1814   22884259.0354
       156.000
  19543872.018   -31660946.62646 -23807024.96348  19543871.5594   19543876.7334
       212.000
 96  4 20  3 17 29.9950000  0  8 26 23 22 21 20 06 16 17
  20920286.066   -19347932.83046 -14834164.56448  20920286.3374   20920290.9214
       184.000
  19893816.869   -27660807.53346 -21228021.96748  19893816.5574   19893821.9574
       210.000
  22000153.280   -14851632.56646 -11275692.22448  22000152.6614   22000157.9654
       167.000
  23032924.642    -7271852.97646  -5636197.87247  23032924.4584   23032931.2714
       150.000
  22859494.771   -19835561.68646 -15170022.48747  22859494.5914   22859501.2404
       149.000
  19125814.784   -39814284.21246 -31004857.66448  19125814.8344   19125819.4644
       214.000
  22899707.697   -19012358.85846 -14145112.93847  22899707.3434   22899713.1364
       156.000
  19535510.294   -31704887.71646 -23841264.75548  19535509.8684   19535515.0254
       212.000
 96  4 20  3 17 59.9950000  0  8 26 23 22 21 20 06 16 17
  20911679.277   -19393161.62146 -14869407.74748  20911679.5264   20911684.1204
       184.000
  19879464.233   -27736231.11146 -21286793.57148  19879463.9244   19879469.3274
       210.000
  21991514.059   -14897032.02946 -11311068.42448  21991513.4424   21991518.7424
       167.000
  23011065.413    -7386723.62446  -5725707.41647  23011065.3204   23011071.9664
       150.000
  22875353.443   -19752223.52746 -15105083.69647  22875353.3434   22875359.9724
       150.000
  19128804.425   -39798573.50346 -30992615.55748  19128804.4744   19128809.1234
       214.000
  22915178.253   -18931060.68246 -14081763.70047  22915177.9524   22915183.6344
       155.000
  19527181.330   -31748656.72046 -23875370.46248  19527180.8844   19527186.0524
       212.000
 96  4 20  3 18 29.9950000  0  8 26 23 22 21 20 06 16 17
  20903178.721   -19437832.08246 -14904215.86948  20903178.9914   20903183.5994
       184.000
  19865193.689   -27811223.23646 -21345228.97448  19865193.3834   19865198.7804
       210.000
  21982971.181   -14941925.18646 -11346050.10948  21982970.5564   21982975.8294
       168.000
  22989238.298    -7501425.87346  -5815085.74347  22989238.1124   22989244.8294
       150.000
  22891210.027   -19668896.67046 -15040153.69247  22891209.9054   22891216.4594
       150.000
  19131879.362   -39782414.49446 -30980024.12248  19131879.4164   19131884.0714
       214.000
  22930665.387   -18849674.98946 -14018346.28147  22930665.0914   22930670.7504
       153.000
  19518884.142   -31792258.67946 -23909346.00848  19518883.6984   19518888.8484
       212.000
 96  4 20  3 18 59.9950000  0  8 26 23 22 21 20 06 16 17
  20894781.458   -19481959.76746 -14938601.05748  20894781.7534   20894786.3594
       184.000
  19851004.957   -27885785.46846 -21403329.39848  19851004.6464   19851010.0454
       210.000
  21974521.958   -14986326.24946 -11380648.33648  21974521.3254   21974526.5814
       168.000
  22967446.443    -7615942.62446  -5904319.51447  22967446.2684   22967452.9224
       149.000
  22907061.421   -19585597.05146 -14975244.91347  22907061.2924   22907067.9044
       150.000
  19135039.725   -39765806.58646 -30967082.89648  19135039.7984   19135044.4604
       214.000
  22946166.479   -18768215.98846 -13954871.74847  22946166.1304   22946171.7654
       150.000
  19510622.168   -31835675.67246 -23943177.44448  19510621.7284   19510626.8594
       212.000
 96  4 20  3 19 29.9950000  0  8 26 23 22 21 20 06 16 17
  20886484.692   -19525559.39146 -14972574.75948  20886485.0074   20886489.6194
       185.000
  19836896.395   -27959926.41146 -21461101.54348  19836896.0834   19836901.4544
       210.000
  21966163.656   -15030249.55446 -11414874.28448  21966163.0524   21966168.2604
       169.000
  22945688.375    -7730281.96646  -5993415.05547  22945688.1914   22945694.8544
       148.000
  22922903.591   -19502345.45146 -14910373.56847  22922903.4544   22922910.2114
       150.000
  19138288.883   -39748732.19346 -30953778.17548  19138288.9284   19138293.6004
       214.000
  22961678.569   -18686699.37146 -13891352.30147  22961678.2804   22961683.8514
       149.000
  19502399.868   -31878884.15746 -23976846.37948  19502399.4304   19502404.5804
       212.000
 96  4 20  3 19 59.9950000  0  8 26 23 22 21 20 06 16 17
  20878289.679   -19568624.14446 -15006131.67348  20878289.9914   20878294.6164
       185.000
  19822863.766   -28033668.34346 -21518562.76448  19822863.4574   19822868.8034
       211.000
  21957896.509   -15073693.78046 -11448726.92448  21957895.9154   21957901.0814
       169.000
  22923962.292    -7844452.88446  -6082379.35247  22923962.0724   22923968.7754
       147.000
  22938733.241   -19419160.24046 -14845553.94447  22938733.1864   22938739.8944
       151.000
  19141630.373   -39731172.42546 -30940095.24048  19141630.4354   19141635.0914
       214.000
  22977199.810   -18605134.88546 -13827795.56247  22977199.3764   22977205.0374
       148.000
  19494218.544   -31921877.29746 -24010347.51248  19494218.0944   19494223.2274
       212.000
 96  4 20  3 20 29.9950000  0  8 26 23 22 21 20 06 16 17
  20870192.803   -19611173.29346 -15039286.83048  20870193.1164   20870197.7594
       185.000
  19808907.181   -28107010.56246 -21575712.52248  19808906.8594   19808912.2014
       211.000
  21949720.403   -15116659.45946 -11482206.66648  21949719.7854   21949725.0344
       170.000
  22902268.460    -7958454.33546  -6171211.59447  22902268.3294   22902274.9494
       147.000
  22954549.945   -19336042.91846 -14780787.22547  22954549.9364   22954556.6854
       151.000
  19145066.403   -39713116.06446 -30926025.35448  19145066.4764   19145071.1224
       214.000
  22992727.166   -18523537.92446 -13764213.51347  22992726.8564   22992732.3434
       147.000
  19486076.701   -31964663.07646 -24043687.07148  19486076.2304   19486081.3834
       212.000
 96  4 20  3 20 59.9950000  0  8 26 23 22 21 20 06 16 17
  20862195.864   -19653197.44546 -15072032.90248  20862196.1924   20862200.7984
       185.000
  19795029.650   -28179937.20146 -21632538.45548  19795029.3464   19795034.6764
       211.000
  21941640.457   -15159119.64446 -11515292.52348  21941639.8494   21941645.1134
       169.000
  22880606.505    -8072288.23146  -6259913.27947  22880606.3564   22880613.0614
       148.000
  22970357.128   -19252975.66146 -14716059.50047  22970357.0734   22970363.7884
       151.000
  19148600.898   -39694542.31246 -30911552.30448  19148600.9494   19148605.5914
       214.000
  23008262.236   -18441900.40346 -13700599.84647  23008262.0424   23008267.4344
       146.000
  19477979.098   -32007216.12046 -24076845.28148  19477978.6464   19477983.7954
       213.000
 96  4 20  3 21 29.9950000  0  8 26 23 22 21 20 06 16 17
  20854297.535   -19694703.43146 -15104375.20248  20854297.8404   20854302.4154
       185.000
  19781226.415   -28252473.56946 -21689060.28348  19781226.1124   19781231.4454
       211.000
  21933656.384   -15201076.20946 -11547985.95448  21933655.7764   21933661.0954
       170.000
  22858970.920    -8185983.55346  -6348506.97747  22858970.7544   22858977.5194
       148.000
  22986152.372   -19169971.10046 -14651380.64747  22986152.2284   22986158.9784
       151.000
  19152229.473   -39675474.03346 -30896693.90748  19152229.5174   19152234.1794
       214.000
  23023804.552   -18360224.93846 -13636956.63547  23023804.3624   23023809.8024
       146.000
  19469919.927   -32049567.35246 -24109846.23448  19469919.4754   19469924.6344
       213.000
 96  4 20  3 21 59.9950000  0  8 26 23 22 21 20 06 16 17
  20846501.448   -19735671.66346 -15136298.47648  20846501.7974   20846506.3664
       185.000
  19767501.054   -28324600.91346 -21745263.40048  19767500.7344   19767506.0524
       211.000
  21925775.736   -15242489.08046 -11580255.71748  21925775.1124   21925780.4564
       170.000
  22837366.775    -8299513.89246  -6436972.10747  22837366.6104   22837373.3884
       148.000
  23001941.443   -19086998.90846 -14586727.01147  23001941.3574   23001948.1554
       150.000
  19155954.536   -39655898.72246 -30881440.42448  19155954.5794   19155959.2264
       214.000
  23039359.954   -18278481.24646 -13573260.24447  23039359.5634   23039365.2014
       144.000
  19461897.928   -32091723.15346 -24142694.90948  19461897.4594   19461902.6274
       213.000
 96  4 20  3 22 29.9950000  0  8 26 23 22 21 20 06 16 17
  20838801.321   -19776136.26546 -15167829.31448  20838801.6484   20838806.1864
       185.000
  19753852.666   -28396323.57546 -21801151.17648  19753852.3334   19753857.6534
       211.000
  21917996.600   -15283368.78946 -11612110.03148  21917996.0074   21918001.3334
       170.000
  22815789.819    -8412901.13446  -6525325.73147  22815789.6184   22815796.4054
       149.000
  23017721.438   -19004074.70546 -14522110.76947  23017721.3834   23017728.1544
       150.000
  19159770.673   -39635844.82546 -30865814.01648  19159770.7274   19159775.3754
       214.000
  23054925.081   -18196686.21646 -13509523.84147  23054924.6684   23054930.1804
       144.000
  19453907.668   -32133712.28046 -24175413.70148  19453907.2004   19453912.3694
       213.000
 96  4 20  3 22 59.9950000  0  8 26 23 22 21 20 06 16 17
  20831199.448   -19816084.26646 -15198957.60548  20831199.7414   20831204.2564
       185.000
  19740278.562   -28467655.95146 -21856734.82748  19740278.2404   19740283.5474
       211.000
  21910318.484   -15323717.47146 -11643550.56248  21910317.8724   21910323.2014
       170.000
  22794239.748    -8526147.06146  -6613569.24147  22794239.5274   22794246.3804
       151.000
  23033488.145   -18921220.23946 -14457548.87547  23033487.9984   23033494.9614
       150.000
  19163675.325   -39615325.92946 -30849825.27448  19163675.3744   19163680.0074
       214.000
  23070501.087   -18114833.85446 -13445742.75047  23070500.6454   23070506.1494
       143.000
  19445948.793   -32175536.44846 -24208003.94848  19445948.3304   19445953.5054
       213.000
 96  4 20  3 23 29.9950000  0  8 26 23 22 21 20 06 16 17
  20823696.937   -19855510.15446 -15229679.04848  20823697.2254   20823701.7604
       185.000
  19726778.699   -28538598.15746 -21912014.43848  19726778.3764   19726783.6844
       212.000
  21902741.761   -15363533.74246 -11674576.23248  21902741.1384   21902746.4734
       171.000
  22772719.786    -8639234.97846  -6701689.63047  22772719.6144   22772726.4004
       152.000
  23049239.035   -18838449.28646 -14393052.07047  23049238.7954   23049245.7374
       149.000
  19167669.843   -39594334.57146 -30833468.37948  19167669.8884   19167674.5184
       214.000
  23086086.142   -18032933.85946 -13381924.54447  23086085.8154   23086091.1294
       144.000
  19438018.333   -32217211.27846 -24240477.82348  19438017.8704   19438023.0234
       213.000
 96  4 20  3 23 59.9950000  0  8 26 23 22 21 20 06 16 17
  20816297.129   -19894396.21846 -15259979.86148  20816297.4274   20816301.9304
       185.000
  19713355.819   -28609135.83446 -21966978.83848  19713355.4884   19713360.8054
       212.000
  21895267.239   -15402812.62046 -11705183.15548  21895266.6124   21895271.9284
       171.000
  22751230.405    -8752162.40246  -6789684.96147  22751230.1424   22751236.8854
       153.000
  23064973.172   -18755766.21946 -14328623.74247  23064972.9814   23064979.9034
       148.000
  19171756.144   -39572860.92846 -30816735.68348  19171756.1894   19171760.8394
       213.000
  23101679.454   -17950990.17346 -13318072.30747  23101679.2004   23101684.4524
       144.000
  19430118.800   -32258723.65246 -24272825.11748  19430118.3294   19430123.4744
       213.000
 96  4 20  3 24 29.9950000  0  8 26 23 22 21 20 06 16 17
  20809001.155   -19932736.90946 -15289855.69748  20809001.4484   20809005.9524
       186.000
  19700007.018   -28679284.19646 -22021639.88148  19700006.6794   19700011.9774
       212.000
  21887890.039   -15441579.91746 -11735391.45248  21887889.4504   21887894.7674
       170.000
  22729767.946    -8864948.23946  -6877569.97147  22729767.7094   22729774.4424
       155.000
  23080685.776   -18673195.82146 -14264283.18847  23080685.5344   23080692.5574
       146.000
  19175931.491   -39550919.38546 -30799638.38948  19175931.5294   19175936.1814
       213.000
  23117276.510   -17869027.08046 -13254204.93247  23117276.1834   23117281.4774
       144.000
  19422250.241   -32300073.13946 -24305045.49248  19422249.7664   19422254.9104
       213.000
 96  4 20  3 24 59.9950000  0  8 26 23 22 21 20 06 16 17
  20801814.741   -19970501.79446 -15319282.85648  20801815.0434   20801819.4994
       186.000
  19686735.122   -28749028.18146 -22075985.82348  19686734.7974   19686740.0944
       212.000
  21880612.473   -15479823.72246 -11765191.81748  21880611.8874   21880617.2004
       170.000
  22708336.514    -8977570.97746  -6965327.88347  22708336.2764   22708343.0264
       156.000
  23096379.908   -18590722.67946 -14200018.42347  23096379.7194   23096386.8274
       145.000
  19180197.888   -39528499.25246 -30782168.16248  19180197.9354   19180202.5884
       213.000
  23132880.005   -17787030.07746 -13190311.16847  23132879.7004   23132884.9894
       145.000
  19414417.033   -32341236.87646 -24337121.12148  19414416.5594   19414421.6884
       213.000
 96  4 20  3 25 29.9950000  0  8 26 23 22 21 20 06 16 17
  20794739.064   -20007684.70946 -15348256.54448  20794739.3414   20794743.7754
       186.000
  19673545.402   -28818340.60646 -22129995.49048  19673545.0784   19673550.3844
       212.000
  21873436.478   -15517533.77646 -11794576.27348  21873435.8964   21873441.2254
       170.000
  22686936.939    -9090026.17846  -7052955.26847  22686936.7104   22686943.5074
       157.000
  23112059.767   -18508324.44046 -14135812.03647  23112059.5254   23112066.5714
       144.000
  19184555.521   -39505599.82046 -30764324.46248  19184555.5794   19184560.2194
       213.000
  23148490.441   -17704996.40346 -13126388.79847  23148490.1534   23148495.5014
       145.000
  19406621.758   -32382201.20746 -24369041.37448  19406621.2864   19406626.4464
       213.000
 96  4 20  3 25 59.9950000  0  8 26 23 22 21 20 06 16 17
  20787770.151   -20044306.55346 -15376793.02148  20787770.4464   20787774.8384
       186.000
  19660436.540   -28887228.01646 -22183673.97948  19660436.2134   19660441.5264
       212.000
  21866357.765   -15554732.51046 -11823562.31248  21866357.1864   21866362.5384
       170.000
  22665565.380    -9202334.25046  -7140467.99347  22665565.1464   22665571.9334
       157.000
  23127724.343   -18426006.58446 -14071668.27247  23127724.0504   23127731.1324
       142.000
  19188999.139   -39482248.53446 -30746128.66648  19188999.1924   19189003.8334
       213.000
  23164105.664   -17622938.09346 -13062447.23747  23164105.3644   23164110.7014
       145.000
  19398866.202   -32422956.78046 -24400798.94648  19398865.7354   19398870.8974
       213.000
 96  4 20  3 26 29.9950000  0  8 26 23 22 21 20 06 16 17
  20780900.428   -20080407.32846 -15404923.47848  20780900.7124   20780905.1034
       186.000
  19647405.667   -28955705.84246 -22237033.31348  19647405.3344   19647410.6234
       212.000
  21859369.861   -15591454.25246 -11852176.66248  21859369.3434   21859374.5824
       170.000
  22644221.126    -9314498.90146  -7227868.97547  22644220.9024   22644227.6164
       157.000
  23143371.506   -18343779.84146 -14007595.51947  23143371.3574   23143378.3394
       141.000
  19193525.453   -39458462.62946 -30727594.20348  19193525.5094   19193530.1454
       213.000
  23179721.142   -17540877.65546 -12998504.01847  23179720.8134   23179726.1834
       145.000
  19391146.810   -32463522.38846 -24432408.50648  19391146.3494   19391151.5184
       213.000
 96  4 20  3 26 59.9950000  0  8 26 23 22 21 20 06 16 17
  20774132.855   -20115970.74546 -15432635.21448  20774133.1574   20774137.5384
       186.000
  19634457.203   -29023750.46646 -22290055.08448  19634456.8684   19634462.1514
       213.000
  21852477.209   -15627675.34846 -11880400.89648  21852476.7154   21852481.9204
       170.000
  22622910.585    -9426486.62646  -7315132.08247  22622910.2954   22622916.9794
       158.000
  23159005.736   -18261621.61646 -13943576.15247  23159005.5644   23159012.5124
       141.000
  19198139.523   -39434215.48346 -30708700.33448  19198139.5654   19198144.2224
       213.000
  23195343.713   -17458780.53246 -12934532.21647  23195343.3384   23195348.6654
       144.000
  19383467.870   -32503875.48846 -24463852.47348  19383467.4154   19383472.5704
       213.000
 96  4 20  3 27 29.9950000  0  8 26 23 22 21 20 06 16 17
  20767462.289   -20151024.77546 -15459950.01948  20767462.5754   20767466.9674
       186.000
  19621586.205   -29091387.72346 -22342759.41348  19621585.8994   19621591.1524
       213.000
  21845675.684   -15663417.66346 -11908252.04848  21845675.2244   21845680.4194
       170.000
  22601632.419    -9538303.90046  -7402262.37547  22601632.1164   22601638.8394
       158.000
  23174624.440   -18179544.81746 -13879620.21547  23174624.3014   23174631.1524
       140.000
  19202842.035   -39409503.55046 -30689444.28248  19202842.0794   19202846.7384
       212.000
  23210971.685   -17376654.86546 -12870538.15247  23210971.2894   23210976.6434
       144.000
  19375827.275   -32544027.07446 -24495139.41648  19375826.8044   19375831.9734
       213.000
 96  4 20  3 27 59.9950000  0  8 26 23 22 21 20 06 16 17
  20760888.392   -20185570.84346 -15486869.01448  20760888.6664   20760893.0374
       186.000
  19608790.024   -29158632.12846 -22395157.63048  19608789.7074   19608794.9654
       213.000
  21838964.974   -15698682.75146 -11935731.34448  21838964.4904   21838969.6904
       170.000
  22580389.763    -9649934.49346  -7489247.20347  22580389.5024   22580396.1584
       158.000
  23190227.091   -18097552.41146 -13815730.03747  23190227.0204   23190233.8254
       140.000
  19207634.589   -39384318.51946 -30669819.58448  19207634.6314   19207639.2964
       212.000
  23226605.763   -17294497.27646 -12806519.24247  23226605.3564   23226610.7404
       143.000
  19368221.532   -32583995.40746 -24526283.55748  19368221.0604   19368226.2444
       213.000
 96  4 20  3 28 29.9950000  0  8 26 23 22 21 20 06 16 17
  20754411.104   -20219609.04946 -15513392.27248  20754411.4204   20754415.7844
       186.000
  19596067.664   -29225488.42746 -22447253.43348  19596067.3454   19596072.5974
       213.000
  21832347.810   -15733456.19346 -11962827.53748  21832347.2514   21832352.4904
       170.000
  22559183.099    -9761376.12546  -7576084.77747  22559182.8234   22559189.4834
       158.000
  23205811.150   -18015657.58546 -13751915.89447  23205811.1714   23205817.9574
       140.000
  19212516.324   -39358664.77846 -30649829.66148  19212516.3724   19212521.0354
       212.000
  23242245.439   -17212310.16846 -12742477.31847  23242244.9384   23242250.4734
       142.000
  19360646.555   -32623802.16446 -24557301.79748  19360646.0944   19360651.2404
       213.000
 96  4 20  3 28 59.9950000  0  8 26 23 22 21 20 06 16 17
  20748035.102   -20253115.17146 -15539500.92348  20748035.3954   20748039.7304
       187.000
  19583420.593   -29291949.05146 -22499040.91348  19583420.2704   19583425.5344
       213.000
  21825830.806   -15767703.22946 -11989513.54948  21825830.2224   21825835.4844
       170.000
  22538013.575    -9872622.44246  -7662770.16247  22538013.2984   22538019.9694
       159.000
  23221376.971   -17933858.84346 -13688176.62347  23221376.8554   23221383.8114
       140.000
  19217487.188   -39332542.75046 -30629474.84648  19217487.2304   19217491.9064
       212.000
  23257892.803   -17130082.12746 -12678403.50847  23257892.4264   23257897.9904
       143.000
  19353103.994   -32663438.74946 -24588187.43848  19353103.5254   19353108.6644
       213.000
